<?xml version="1.0" encoding="UTF-8" standalone="no" ?>
<gpx xmlns="http://www.topografix.com/GPX/1/1" xmlns:xsi="http://www.w3.org/2001/XMLSchema-instance" xsi:schemaLocation="http://www.topografix.com/GPX/1/1 http://www.topografix.com/GPX/1/1/gpx.xsd" version="1.1" creator="VisuGPX - https://www.visugpx.com">
  <metadata>
    <name>HRP J5</name>
  </metadata>
  <trk>
    <name><![CDATA[Route from Shelter to Chemin du Refuge 362]]></name>
    <extensions>
      <line xmlns="http://www.topografix.com/GPX/gpx_style/0/2">
        <color>0000FF</color>
        <width>4</width>
      </line>
    </extensions>
    <trkseg>
      <trkpt lat="43.00963" lon="-1.02836">
        <ele>1443</ele>
        <time>2024-07-27T05:00:09.000Z</time>
      </trkpt>
      <trkpt lat="43.00953" lon="-1.02806">
        <ele>1443</ele>
        <time>2024-07-27T05:00:32.081Z</time>
      </trkpt>
      <trkpt lat="43.00947" lon="-1.02784">
        <ele>1443</ele>
        <time>2024-07-27T05:00:48.804Z</time>
      </trkpt>
      <trkpt lat="43.00942" lon="-1.0276">
        <ele>1444</ele>
        <time>2024-07-27T05:01:09.771Z</time>
      </trkpt>
      <trkpt lat="43.00939" lon="-1.02757">
        <ele>1444</ele>
        <time>2024-07-27T05:01:13.366Z</time>
      </trkpt>
      <trkpt lat="43.00928" lon="-1.02727">
        <ele>1444</ele>
        <time>2024-07-27T05:01:36.778Z</time>
      </trkpt>
      <trkpt lat="43.00913" lon="-1.027">
        <ele>1444</ele>
        <time>2024-07-27T05:02:01.281Z</time>
      </trkpt>
      <trkpt lat="43.00892" lon="-1.02635">
        <ele>1448</ele>
        <time>2024-07-27T05:03:05.546Z</time>
      </trkpt>
      <trkpt lat="43.00878" lon="-1.02597">
        <ele>1450</ele>
        <time>2024-07-27T05:03:42.541Z</time>
      </trkpt>
      <trkpt lat="43.00873" lon="-1.0257">
        <ele>1451</ele>
        <time>2024-07-27T05:04:06.359Z</time>
      </trkpt>
      <trkpt lat="43.00884" lon="-1.02464">
        <ele>1460</ele>
        <time>2024-07-27T05:05:57.712Z</time>
      </trkpt>
      <trkpt lat="43.00888" lon="-1.02429">
        <ele>1463</ele>
        <time>2024-07-27T05:06:34.724Z</time>
      </trkpt>
      <trkpt lat="43.00884" lon="-1.02403">
        <ele>1462</ele>
        <time>2024-07-27T05:06:51.351Z</time>
      </trkpt>
      <trkpt lat="43.00874" lon="-1.0236">
        <ele>1461</ele>
        <time>2024-07-27T05:07:20.098Z</time>
      </trkpt>
      <trkpt lat="43.00853" lon="-1.02326">
        <ele>1457</ele>
        <time>2024-07-27T05:07:47.855Z</time>
      </trkpt>
      <trkpt lat="43.00825" lon="-1.02289">
        <ele>1454</ele>
        <time>2024-07-27T05:08:20.577Z</time>
      </trkpt>
      <trkpt lat="43.00783" lon="-1.02246">
        <ele>1448</ele>
        <time>2024-07-27T05:09:05.724Z</time>
      </trkpt>
      <trkpt lat="43.0076" lon="-1.02214">
        <ele>1444</ele>
        <time>2024-07-27T05:09:33.334Z</time>
      </trkpt>
      <trkpt lat="43.0075" lon="-1.02207">
        <ele>1442</ele>
        <time>2024-07-27T05:09:43.291Z</time>
      </trkpt>
      <trkpt lat="43.00716" lon="-1.02166">
        <ele>1438</ele>
        <time>2024-07-27T05:10:21.297Z</time>
      </trkpt>
      <trkpt lat="43.00693" lon="-1.02133">
        <ele>1435</ele>
        <time>2024-07-27T05:10:50.121Z</time>
      </trkpt>
      <trkpt lat="43.00673" lon="-1.02123">
        <ele>1432</ele>
        <time>2024-07-27T05:11:08.019Z</time>
      </trkpt>
      <trkpt lat="43.00639" lon="-1.02092">
        <ele>1429</ele>
        <time>2024-07-27T05:11:42.576Z</time>
      </trkpt>
      <trkpt lat="43.00621" lon="-1.02077">
        <ele>1428</ele>
        <time>2024-07-27T05:12:00.565Z</time>
      </trkpt>
      <trkpt lat="43.00596" lon="-1.02069">
        <ele>1427</ele>
        <time>2024-07-27T05:12:22.767Z</time>
      </trkpt>
      <trkpt lat="43.0058" lon="-1.02059">
        <ele>1427</ele>
        <time>2024-07-27T05:12:40.181Z</time>
      </trkpt>
      <trkpt lat="43.00563" lon="-1.0202">
        <ele>1429</ele>
        <time>2024-07-27T05:13:19.640Z</time>
      </trkpt>
      <trkpt lat="43.00537" lon="-1.01963">
        <ele>1426</ele>
        <time>2024-07-27T05:14:01.007Z</time>
      </trkpt>
      <trkpt lat="43.00524" lon="-1.01959">
        <ele>1426</ele>
        <time>2024-07-27T05:14:14.205Z</time>
      </trkpt>
      <trkpt lat="43.00495" lon="-1.01957">
        <ele>1433</ele>
        <time>2024-07-27T05:15:21.003Z</time>
      </trkpt>
      <trkpt lat="43.00446" lon="-1.01964">
        <ele>1448</ele>
        <time>2024-07-27T05:17:47.631Z</time>
      </trkpt>
      <trkpt lat="43.00403" lon="-1.01964">
        <ele>1459</ele>
        <time>2024-07-27T05:19:32.745Z</time>
      </trkpt>
      <trkpt lat="43.0038" lon="-1.01953">
        <ele>1462</ele>
        <time>2024-07-27T05:20:08.361Z</time>
      </trkpt>
      <trkpt lat="43.00358" lon="-1.01946">
        <ele>1467</ele>
        <time>2024-07-27T05:20:56.446Z</time>
      </trkpt>
      <trkpt lat="43.00334" lon="-1.01944">
        <ele>1473</ele>
        <time>2024-07-27T05:21:53.726Z</time>
      </trkpt>
      <trkpt lat="43.00295" lon="-1.01933">
        <ele>1481</ele>
        <time>2024-07-27T05:23:11.627Z</time>
      </trkpt>
      <trkpt lat="43.00279" lon="-1.01933">
        <ele>1486</ele>
        <time>2024-07-27T05:24:00.676Z</time>
      </trkpt>
      <trkpt lat="43.00249" lon="-1.01936">
        <ele>1497</ele>
        <time>2024-07-27T05:25:56.239Z</time>
      </trkpt>
      <trkpt lat="43.00216" lon="-1.01936">
        <ele>1508</ele>
        <time>2024-07-27T05:27:48.617Z</time>
      </trkpt>
      <trkpt lat="43.00191" lon="-1.01933">
        <ele>1519</ele>
        <time>2024-07-27T05:29:54.405Z</time>
      </trkpt>
      <trkpt lat="43.00172" lon="-1.0193">
        <ele>1528</ele>
        <time>2024-07-27T05:31:32.372Z</time>
      </trkpt>
      <trkpt lat="43.00125" lon="-1.01922">
        <ele>1549</ele>
        <time>2024-07-27T05:35:32.876Z</time>
      </trkpt>
      <trkpt lat="43.00114" lon="-1.01927">
        <ele>1555</ele>
        <time>2024-07-27T05:36:30.087Z</time>
      </trkpt>
      <trkpt lat="43.00097" lon="-1.01944">
        <ele>1561</ele>
        <time>2024-07-27T05:37:28.269Z</time>
      </trkpt>
      <trkpt lat="43.00092" lon="-1.01946">
        <ele>1563</ele>
        <time>2024-07-27T05:37:49.160Z</time>
      </trkpt>
      <trkpt lat="43.00081" lon="-1.01947">
        <ele>1566</ele>
        <time>2024-07-27T05:38:17.915Z</time>
      </trkpt>
      <trkpt lat="43.00065" lon="-1.01959">
        <ele>1569</ele>
        <time>2024-07-27T05:38:49.159Z</time>
      </trkpt>
      <trkpt lat="43.00051" lon="-1.01967">
        <ele>1570</ele>
        <time>2024-07-27T05:39:07.224Z</time>
      </trkpt>
      <trkpt lat="43.0003" lon="-1.01975">
        <ele>1570</ele>
        <time>2024-07-27T05:39:28.400Z</time>
      </trkpt>
      <trkpt lat="43.00022" lon="-1.01975">
        <ele>1569</ele>
        <time>2024-07-27T05:39:34.605Z</time>
      </trkpt>
      <trkpt lat="43.00013" lon="-1.01979">
        <ele>1569</ele>
        <time>2024-07-27T05:39:43.901Z</time>
      </trkpt>
      <trkpt lat="42.99955" lon="-1.01997">
        <ele>1579</ele>
        <time>2024-07-27T05:41:27.042Z</time>
      </trkpt>
      <trkpt lat="42.99911" lon="-1.02004">
        <ele>1589</ele>
        <time>2024-07-27T05:43:02.814Z</time>
      </trkpt>
      <trkpt lat="42.99877" lon="-1.01997">
        <ele>1591</ele>
        <time>2024-07-27T05:43:43.150Z</time>
      </trkpt>
      <trkpt lat="42.99848" lon="-1.01991">
        <ele>1593</ele>
        <time>2024-07-27T05:44:18.560Z</time>
      </trkpt>
      <trkpt lat="42.99825" lon="-1.01994">
        <ele>1604</ele>
        <time>2024-07-27T05:46:16.289Z</time>
      </trkpt>
      <trkpt lat="42.99817" lon="-1.01999">
        <ele>1611</ele>
        <time>2024-07-27T05:47:01.332Z</time>
      </trkpt>
      <trkpt lat="42.99806" lon="-1.02013">
        <ele>1621</ele>
        <time>2024-07-27T05:48:17.478Z</time>
      </trkpt>
      <trkpt lat="42.99795" lon="-1.02022">
        <ele>1629</ele>
        <time>2024-07-27T05:49:23.292Z</time>
      </trkpt>
      <trkpt lat="42.99782" lon="-1.02039">
        <ele>1640</ele>
        <time>2024-07-27T05:50:53.569Z</time>
      </trkpt>
      <trkpt lat="42.99778" lon="-1.02046">
        <ele>1642</ele>
        <time>2024-07-27T05:51:13.226Z</time>
      </trkpt>
      <trkpt lat="42.9977" lon="-1.02056">
        <ele>1647</ele>
        <time>2024-07-27T05:52:08.005Z</time>
      </trkpt>
      <trkpt lat="42.99761" lon="-1.02072">
        <ele>1652</ele>
        <time>2024-07-27T05:52:58.675Z</time>
      </trkpt>
      <trkpt lat="42.99753" lon="-1.0208">
        <ele>1657</ele>
        <time>2024-07-27T05:53:49.222Z</time>
      </trkpt>
      <trkpt lat="42.99746" lon="-1.02097">
        <ele>1660</ele>
        <time>2024-07-27T05:54:18.273Z</time>
      </trkpt>
      <trkpt lat="42.99736" lon="-1.0211">
        <ele>1666</ele>
        <time>2024-07-27T05:55:27.149Z</time>
      </trkpt>
      <trkpt lat="42.99719" lon="-1.02129">
        <ele>1673</ele>
        <time>2024-07-27T05:56:36.460Z</time>
      </trkpt>
      <trkpt lat="42.99713" lon="-1.02132">
        <ele>1676</ele>
        <time>2024-07-27T05:57:08.311Z</time>
      </trkpt>
      <trkpt lat="42.99704" lon="-1.02133">
        <ele>1678</ele>
        <time>2024-07-27T05:57:27.430Z</time>
      </trkpt>
      <trkpt lat="42.99699" lon="-1.02126">
        <ele>1681</ele>
        <time>2024-07-27T05:58:00.715Z</time>
      </trkpt>
      <trkpt lat="42.99698" lon="-1.02121">
        <ele>1683</ele>
        <time>2024-07-27T05:58:18.762Z</time>
      </trkpt>
      <trkpt lat="42.99698" lon="-1.02108">
        <ele>1687</ele>
        <time>2024-07-27T05:59:02.983Z</time>
      </trkpt>
      <trkpt lat="42.99697" lon="-1.02099">
        <ele>1689</ele>
        <time>2024-07-27T05:59:22.573Z</time>
      </trkpt>
      <trkpt lat="42.99693" lon="-1.02093">
        <ele>1692</ele>
        <time>2024-07-27T05:59:53.692Z</time>
      </trkpt>
      <trkpt lat="42.9969" lon="-1.02076">
        <ele>1696</ele>
        <time>2024-07-27T06:00:33.915Z</time>
      </trkpt>
      <trkpt lat="42.99685" lon="-1.02065">
        <ele>1700</ele>
        <time>2024-07-27T06:01:17.862Z</time>
      </trkpt>
      <trkpt lat="42.99676" lon="-1.02054">
        <ele>1705</ele>
        <time>2024-07-27T06:02:14.658Z</time>
      </trkpt>
      <trkpt lat="42.99674" lon="-1.0205">
        <ele>1707</ele>
        <time>2024-07-27T06:02:36.049Z</time>
      </trkpt>
      <trkpt lat="42.99672" lon="-1.02045">
        <ele>1709</ele>
        <time>2024-07-27T06:02:55.690Z</time>
      </trkpt>
      <trkpt lat="42.99669" lon="-1.02045">
        <ele>1710</ele>
        <time>2024-07-27T06:03:06.473Z</time>
      </trkpt>
      <trkpt lat="42.99668" lon="-1.02042">
        <ele>1711</ele>
        <time>2024-07-27T06:03:17.865Z</time>
      </trkpt>
      <trkpt lat="42.99661" lon="-1.02042">
        <ele>1714</ele>
        <time>2024-07-27T06:03:51.524Z</time>
      </trkpt>
      <trkpt lat="42.99659" lon="-1.02032">
        <ele>1717</ele>
        <time>2024-07-27T06:04:24.318Z</time>
      </trkpt>
      <trkpt lat="42.99649" lon="-1.02027">
        <ele>1721</ele>
        <time>2024-07-27T06:05:05.984Z</time>
      </trkpt>
      <trkpt lat="42.99635" lon="-1.02">
        <ele>1732</ele>
        <time>2024-07-27T06:07:07.122Z</time>
      </trkpt>
      <trkpt lat="42.99617" lon="-1.01954">
        <ele>1740</ele>
        <time>2024-07-27T06:08:24.529Z</time>
      </trkpt>
      <trkpt lat="42.99607" lon="-1.01912">
        <ele>1743</ele>
        <time>2024-07-27T06:09:07.181Z</time>
      </trkpt>
      <trkpt lat="42.99598" lon="-1.01875">
        <ele>1741</ele>
        <time>2024-07-27T06:09:31.300Z</time>
      </trkpt>
      <trkpt lat="42.99585" lon="-1.01833">
        <ele>1739</ele>
        <time>2024-07-27T06:09:59.857Z</time>
      </trkpt>
      <trkpt lat="42.99572" lon="-1.01815">
        <ele>1738</ele>
        <time>2024-07-27T06:10:15.288Z</time>
      </trkpt>
      <trkpt lat="42.99565" lon="-1.01798">
        <ele>1739</ele>
        <time>2024-07-27T06:10:33.085Z</time>
      </trkpt>
      <trkpt lat="42.99553" lon="-1.0178">
        <ele>1739</ele>
        <time>2024-07-27T06:10:49.813Z</time>
      </trkpt>
      <trkpt lat="42.99544" lon="-1.01767">
        <ele>1741</ele>
        <time>2024-07-27T06:11:11.472Z</time>
      </trkpt>
      <trkpt lat="42.99537" lon="-1.01752">
        <ele>1742</ele>
        <time>2024-07-27T06:11:27.655Z</time>
      </trkpt>
      <trkpt lat="42.99528" lon="-1.01735">
        <ele>1740</ele>
        <time>2024-07-27T06:11:40.803Z</time>
      </trkpt>
      <trkpt lat="42.99523" lon="-1.01729">
        <ele>1741</ele>
        <time>2024-07-27T06:11:51.452Z</time>
      </trkpt>
      <trkpt lat="42.99519" lon="-1.01722">
        <ele>1742</ele>
        <time>2024-07-27T06:12:02.450Z</time>
      </trkpt>
      <trkpt lat="42.99513" lon="-1.01713">
        <ele>1742</ele>
        <time>2024-07-27T06:12:11.038Z</time>
      </trkpt>
      <trkpt lat="42.99505" lon="-1.01697">
        <ele>1740</ele>
        <time>2024-07-27T06:12:23.090Z</time>
      </trkpt>
      <trkpt lat="42.99501" lon="-1.01686">
        <ele>1737</ele>
        <time>2024-07-27T06:12:30.523Z</time>
      </trkpt>
      <trkpt lat="42.99501" lon="-1.0168">
        <ele>1735</ele>
        <time>2024-07-27T06:12:34.439Z</time>
      </trkpt>
      <trkpt lat="42.99499" lon="-1.01671">
        <ele>1732</ele>
        <time>2024-07-27T06:12:39.813Z</time>
      </trkpt>
      <trkpt lat="42.99494" lon="-1.01664">
        <ele>1730</ele>
        <time>2024-07-27T06:12:46.120Z</time>
      </trkpt>
      <trkpt lat="42.99482" lon="-1.01662">
        <ele>1730</ele>
        <time>2024-07-27T06:12:57.662Z</time>
      </trkpt>
      <trkpt lat="42.99475" lon="-1.01659">
        <ele>1728</ele>
        <time>2024-07-27T06:13:04.157Z</time>
      </trkpt>
      <trkpt lat="42.99471" lon="-1.01659">
        <ele>1727</ele>
        <time>2024-07-27T06:13:07.557Z</time>
      </trkpt>
      <trkpt lat="42.99453" lon="-1.01651">
        <ele>1719</ele>
        <time>2024-07-27T06:13:22.960Z</time>
      </trkpt>
      <trkpt lat="42.99444" lon="-1.01653">
        <ele>1716</ele>
        <time>2024-07-27T06:13:30.784Z</time>
      </trkpt>
      <trkpt lat="42.9943" lon="-1.01649">
        <ele>1710</ele>
        <time>2024-07-27T06:13:42.809Z</time>
      </trkpt>
      <trkpt lat="42.99427" lon="-1.01635">
        <ele>1704</ele>
        <time>2024-07-27T06:13:51.860Z</time>
      </trkpt>
      <trkpt lat="42.99427" lon="-1.0163">
        <ele>1702</ele>
        <time>2024-07-27T06:13:55.195Z</time>
      </trkpt>
      <trkpt lat="42.99426" lon="-1.01624">
        <ele>1699</ele>
        <time>2024-07-27T06:13:59.264Z</time>
      </trkpt>
      <trkpt lat="42.99421" lon="-1.01608">
        <ele>1690</ele>
        <time>2024-07-27T06:14:09.548Z</time>
      </trkpt>
      <trkpt lat="42.9941" lon="-1.01606">
        <ele>1688</ele>
        <time>2024-07-27T06:14:19.215Z</time>
      </trkpt>
      <trkpt lat="42.99406" lon="-1.01603">
        <ele>1687</ele>
        <time>2024-07-27T06:14:22.931Z</time>
      </trkpt>
      <trkpt lat="42.99404" lon="-1.016">
        <ele>1686</ele>
        <time>2024-07-27T06:14:25.706Z</time>
      </trkpt>
      <trkpt lat="42.99396" lon="-1.01599">
        <ele>1687</ele>
        <time>2024-07-27T06:14:36.960Z</time>
      </trkpt>
      <trkpt lat="42.99377" lon="-1.01606">
        <ele>1694</ele>
        <time>2024-07-27T06:15:49.937Z</time>
      </trkpt>
      <trkpt lat="42.99364" lon="-1.01609">
        <ele>1699</ele>
        <time>2024-07-27T06:16:42.958Z</time>
      </trkpt>
      <trkpt lat="42.99349" lon="-1.01605">
        <ele>1705</ele>
        <time>2024-07-27T06:17:47.979Z</time>
      </trkpt>
      <trkpt lat="42.99337" lon="-1.01601">
        <ele>1710</ele>
        <time>2024-07-27T06:18:43.787Z</time>
      </trkpt>
      <trkpt lat="42.99328" lon="-1.0159">
        <ele>1714</ele>
        <time>2024-07-27T06:19:23.605Z</time>
      </trkpt>
      <trkpt lat="42.99312" lon="-1.01564">
        <ele>1725</ele>
        <time>2024-07-27T06:21:29.332Z</time>
      </trkpt>
      <trkpt lat="42.99309" lon="-1.0156">
        <ele>1726</ele>
        <time>2024-07-27T06:21:38.909Z</time>
      </trkpt>
      <trkpt lat="42.99307" lon="-1.01547">
        <ele>1728</ele>
        <time>2024-07-27T06:21:58.223Z</time>
      </trkpt>
      <trkpt lat="42.99304" lon="-1.01535">
        <ele>1731</ele>
        <time>2024-07-27T06:22:27.934Z</time>
      </trkpt>
      <trkpt lat="42.99304" lon="-1.01484">
        <ele>1743</ele>
        <time>2024-07-27T06:24:27.562Z</time>
      </trkpt>
      <trkpt lat="42.99304" lon="-1.01465">
        <ele>1746</ele>
        <time>2024-07-27T06:24:56.418Z</time>
      </trkpt>
      <trkpt lat="42.993" lon="-1.01449">
        <ele>1750</ele>
        <time>2024-07-27T06:25:36.332Z</time>
      </trkpt>
      <trkpt lat="42.99298" lon="-1.01428">
        <ele>1752</ele>
        <time>2024-07-27T06:25:59.348Z</time>
      </trkpt>
      <trkpt lat="42.99296" lon="-1.01418">
        <ele>1754</ele>
        <time>2024-07-27T06:26:18.532Z</time>
      </trkpt>
      <trkpt lat="42.99291" lon="-1.01398">
        <ele>1760</ele>
        <time>2024-07-27T06:27:23.287Z</time>
      </trkpt>
      <trkpt lat="42.99285" lon="-1.01379">
        <ele>1765</ele>
        <time>2024-07-27T06:28:13.203Z</time>
      </trkpt>
      <trkpt lat="42.99283" lon="-1.01371">
        <ele>1765</ele>
        <time>2024-07-27T06:28:18.642Z</time>
      </trkpt>
      <trkpt lat="42.99276" lon="-1.01352">
        <ele>1770</ele>
        <time>2024-07-27T06:29:08.269Z</time>
      </trkpt>
      <trkpt lat="42.99275" lon="-1.01339">
        <ele>1771</ele>
        <time>2024-07-27T06:29:21.163Z</time>
      </trkpt>
      <trkpt lat="42.99273" lon="-1.0133">
        <ele>1773</ele>
        <time>2024-07-27T06:29:40.700Z</time>
      </trkpt>
      <trkpt lat="42.99264" lon="-1.013">
        <ele>1781</ele>
        <time>2024-07-27T06:31:01.812Z</time>
      </trkpt>
      <trkpt lat="42.99262" lon="-1.01292">
        <ele>1783</ele>
        <time>2024-07-27T06:31:21.863Z</time>
      </trkpt>
      <trkpt lat="42.9926" lon="-1.01281">
        <ele>1784</ele>
        <time>2024-07-27T06:31:33.808Z</time>
      </trkpt>
      <trkpt lat="42.99252" lon="-1.0126">
        <ele>1788</ele>
        <time>2024-07-27T06:32:12.051Z</time>
      </trkpt>
      <trkpt lat="42.99244" lon="-1.01247">
        <ele>1795</ele>
        <time>2024-07-27T06:33:16.338Z</time>
      </trkpt>
      <trkpt lat="42.99243" lon="-1.01233">
        <ele>1799</ele>
        <time>2024-07-27T06:33:59.072Z</time>
      </trkpt>
      <trkpt lat="42.99237" lon="-1.01229">
        <ele>1803</ele>
        <time>2024-07-27T06:34:29.254Z</time>
      </trkpt>
      <trkpt lat="42.99234" lon="-1.01224">
        <ele>1805</ele>
        <time>2024-07-27T06:34:50.926Z</time>
      </trkpt>
      <trkpt lat="42.99232" lon="-1.01215">
        <ele>1807</ele>
        <time>2024-07-27T06:35:10.352Z</time>
      </trkpt>
      <trkpt lat="42.99231" lon="-1.01201">
        <ele>1812</ele>
        <time>2024-07-27T06:36:04.416Z</time>
      </trkpt>
      <trkpt lat="42.9923" lon="-1.01193">
        <ele>1815</ele>
        <time>2024-07-27T06:36:34.841Z</time>
      </trkpt>
      <trkpt lat="42.99228" lon="-1.01187">
        <ele>1817</ele>
        <time>2024-07-27T06:36:57.387Z</time>
      </trkpt>
      <trkpt lat="42.99227" lon="-1.01176">
        <ele>1821</ele>
        <time>2024-07-27T06:37:40.805Z</time>
      </trkpt>
      <trkpt lat="42.9922" lon="-1.01154">
        <ele>1830</ele>
        <time>2024-07-27T06:39:08.128Z</time>
      </trkpt>
      <trkpt lat="42.9922" lon="-1.01148">
        <ele>1832</ele>
        <time>2024-07-27T06:39:30.909Z</time>
      </trkpt>
      <trkpt lat="42.99216" lon="-1.01135">
        <ele>1837</ele>
        <time>2024-07-27T06:40:23.441Z</time>
      </trkpt>
      <trkpt lat="42.99205" lon="-1.01114">
        <ele>1844</ele>
        <time>2024-07-27T06:41:38.471Z</time>
      </trkpt>
      <trkpt lat="42.99209" lon="-1.01111">
        <ele>1844</ele>
        <time>2024-07-27T06:41:43.003Z</time>
      </trkpt>
      <trkpt lat="42.99206" lon="-1.01098">
        <ele>1846</ele>
        <time>2024-07-27T06:42:02.367Z</time>
      </trkpt>
      <trkpt lat="42.99204" lon="-1.0109">
        <ele>1848</ele>
        <time>2024-07-27T06:42:22.156Z</time>
      </trkpt>
      <trkpt lat="42.99212" lon="-1.01083">
        <ele>1846</ele>
        <time>2024-07-27T06:42:30.191Z</time>
      </trkpt>
      <trkpt lat="42.99207" lon="-1.01079">
        <ele>1848</ele>
        <time>2024-07-27T06:42:51.728Z</time>
      </trkpt>
      <trkpt lat="42.99201" lon="-1.01069">
        <ele>1850</ele>
        <time>2024-07-27T06:43:11.014Z</time>
      </trkpt>
      <trkpt lat="42.99197" lon="-1.01052">
        <ele>1852</ele>
        <time>2024-07-27T06:43:32.341Z</time>
      </trkpt>
      <trkpt lat="42.99192" lon="-1.01039">
        <ele>1854</ele>
        <time>2024-07-27T06:43:52.476Z</time>
      </trkpt>
      <trkpt lat="42.99188" lon="-1.01035">
        <ele>1857</ele>
        <time>2024-07-27T06:44:16.474Z</time>
      </trkpt>
      <trkpt lat="42.99186" lon="-1.01029">
        <ele>1857</ele>
        <time>2024-07-27T06:44:21.354Z</time>
      </trkpt>
      <trkpt lat="42.9917" lon="-1.01008">
        <ele>1865</ele>
        <time>2024-07-27T06:45:44.878Z</time>
      </trkpt>
      <trkpt lat="42.99167" lon="-1.01001">
        <ele>1865</ele>
        <time>2024-07-27T06:45:50.648Z</time>
      </trkpt>
      <trkpt lat="42.99166" lon="-1.00994">
        <ele>1864</ele>
        <time>2024-07-27T06:45:55.102Z</time>
      </trkpt>
      <trkpt lat="42.99157" lon="-1.00983">
        <ele>1868</ele>
        <time>2024-07-27T06:46:34.896Z</time>
      </trkpt>
      <trkpt lat="42.99149" lon="-1.00974">
        <ele>1871</ele>
        <time>2024-07-27T06:47:04.057Z</time>
      </trkpt>
      <trkpt lat="42.99145" lon="-1.00966">
        <ele>1872</ele>
        <time>2024-07-27T06:47:15.131Z</time>
      </trkpt>
      <trkpt lat="42.99139" lon="-1.00955">
        <ele>1874</ele>
        <time>2024-07-27T06:47:34.452Z</time>
      </trkpt>
      <trkpt lat="42.99124" lon="-1.00937">
        <ele>1881</ele>
        <time>2024-07-27T06:48:46.648Z</time>
      </trkpt>
      <trkpt lat="42.99122" lon="-1.00932">
        <ele>1882</ele>
        <time>2024-07-27T06:48:56.216Z</time>
      </trkpt>
      <trkpt lat="42.99113" lon="-1.00921">
        <ele>1888</ele>
        <time>2024-07-27T06:49:58.303Z</time>
      </trkpt>
      <trkpt lat="42.99101" lon="-1.00913">
        <ele>1895</ele>
        <time>2024-07-27T06:51:08.691Z</time>
      </trkpt>
      <trkpt lat="42.99091" lon="-1.00905">
        <ele>1902</ele>
        <time>2024-07-27T06:52:04.498Z</time>
      </trkpt>
      <trkpt lat="42.99091" lon="-1.00902">
        <ele>1902</ele>
        <time>2024-07-27T06:52:06.533Z</time>
      </trkpt>
      <trkpt lat="42.99085" lon="-1.00896">
        <ele>1905</ele>
        <time>2024-07-27T06:52:39.528Z</time>
      </trkpt>
      <trkpt lat="42.99074" lon="-1.00884">
        <ele>1911</ele>
        <time>2024-07-27T06:53:46.666Z</time>
      </trkpt>
      <trkpt lat="42.99064" lon="-1.00868">
        <ele>1917</ele>
        <time>2024-07-27T06:54:52.861Z</time>
      </trkpt>
      <trkpt lat="42.99054" lon="-1.00855">
        <ele>1920</ele>
        <time>2024-07-27T06:55:21.764Z</time>
      </trkpt>
      <trkpt lat="42.99051" lon="-1.00848">
        <ele>1922</ele>
        <time>2024-07-27T06:55:42.109Z</time>
      </trkpt>
      <trkpt lat="42.99038" lon="-1.00832">
        <ele>1928</ele>
        <time>2024-07-27T06:56:43.903Z</time>
      </trkpt>
      <trkpt lat="42.99028" lon="-1.00824">
        <ele>1931</ele>
        <time>2024-07-27T06:57:12.588Z</time>
      </trkpt>
      <trkpt lat="42.99019" lon="-1.00817">
        <ele>1935</ele>
        <time>2024-07-27T06:57:54.367Z</time>
      </trkpt>
      <trkpt lat="42.99017" lon="-1.00813">
        <ele>1937</ele>
        <time>2024-07-27T06:58:13.692Z</time>
      </trkpt>
      <trkpt lat="42.99018" lon="-1.00813">
        <ele>1937</ele>
        <time>2024-07-27T06:58:15.052Z</time>
      </trkpt>
      <trkpt lat="42.9903" lon="-1.00813">
        <ele>1932</ele>
        <time>2024-07-27T06:58:25.604Z</time>
      </trkpt>
      <trkpt lat="42.99038" lon="-1.00815">
        <ele>1929</ele>
        <time>2024-07-27T06:58:31.920Z</time>
      </trkpt>
      <trkpt lat="42.99052" lon="-1.00816">
        <ele>1920</ele>
        <time>2024-07-27T06:58:44.173Z</time>
      </trkpt>
      <trkpt lat="42.99036" lon="-1.00803">
        <ele>1929</ele>
        <time>2024-07-27T07:00:19.392Z</time>
      </trkpt>
      <trkpt lat="42.99026" lon="-1.00791">
        <ele>1933</ele>
        <time>2024-07-27T07:00:58.829Z</time>
      </trkpt>
      <trkpt lat="42.99024" lon="-1.00786">
        <ele>1935</ele>
        <time>2024-07-27T07:01:20.515Z</time>
      </trkpt>
      <trkpt lat="42.99011" lon="-1.00774">
        <ele>1944</ele>
        <time>2024-07-27T07:02:42.406Z</time>
      </trkpt>
      <trkpt lat="42.99001" lon="-1.00761">
        <ele>1948</ele>
        <time>2024-07-27T07:03:21.792Z</time>
      </trkpt>
      <trkpt lat="42.98992" lon="-1.00749">
        <ele>1954</ele>
        <time>2024-07-27T07:04:30.401Z</time>
      </trkpt>
      <trkpt lat="42.98988" lon="-1.00742">
        <ele>1956</ele>
        <time>2024-07-27T07:04:51.117Z</time>
      </trkpt>
      <trkpt lat="42.98987" lon="-1.00742">
        <ele>1957</ele>
        <time>2024-07-27T07:04:58.855Z</time>
      </trkpt>
      <trkpt lat="42.98977" lon="-1.00734">
        <ele>1962</ele>
        <time>2024-07-27T07:05:55.594Z</time>
      </trkpt>
      <trkpt lat="42.98975" lon="-1.00729">
        <ele>1962</ele>
        <time>2024-07-27T07:05:59.895Z</time>
      </trkpt>
      <trkpt lat="42.98969" lon="-1.00723">
        <ele>1964</ele>
        <time>2024-07-27T07:06:19.063Z</time>
      </trkpt>
      <trkpt lat="42.98965" lon="-1.00722">
        <ele>1967</ele>
        <time>2024-07-27T07:06:42.762Z</time>
      </trkpt>
      <trkpt lat="42.98957" lon="-1.00717">
        <ele>1970</ele>
        <time>2024-07-27T07:07:14.938Z</time>
      </trkpt>
      <trkpt lat="42.98957" lon="-1.00714">
        <ele>1971</ele>
        <time>2024-07-27T07:07:25.359Z</time>
      </trkpt>
      <trkpt lat="42.9896" lon="-1.0071">
        <ele>1969</ele>
        <time>2024-07-27T07:07:28.947Z</time>
      </trkpt>
      <trkpt lat="42.98956" lon="-1.00709">
        <ele>1971</ele>
        <time>2024-07-27T07:07:49.621Z</time>
      </trkpt>
      <trkpt lat="42.9895" lon="-1.00705">
        <ele>1975</ele>
        <time>2024-07-27T07:08:26.779Z</time>
      </trkpt>
      <trkpt lat="42.98941" lon="-1.00696">
        <ele>1980</ele>
        <time>2024-07-27T07:09:21.787Z</time>
      </trkpt>
      <trkpt lat="42.98928" lon="-1.00682">
        <ele>1987</ele>
        <time>2024-07-27T07:10:40.900Z</time>
      </trkpt>
      <trkpt lat="42.98923" lon="-1.00673">
        <ele>1990</ele>
        <time>2024-07-27T07:11:13.027Z</time>
      </trkpt>
      <trkpt lat="42.98921" lon="-1.00671">
        <ele>1991</ele>
        <time>2024-07-27T07:11:22.795Z</time>
      </trkpt>
      <trkpt lat="42.98911" lon="-1.00658">
        <ele>1994</ele>
        <time>2024-07-27T07:11:51.472Z</time>
      </trkpt>
      <trkpt lat="42.98902" lon="-1.0065">
        <ele>1995</ele>
        <time>2024-07-27T07:12:05.828Z</time>
      </trkpt>
      <trkpt lat="42.98901" lon="-1.00646">
        <ele>1995</ele>
        <time>2024-07-27T07:12:08.662Z</time>
      </trkpt>
      <trkpt lat="42.9889" lon="-1.00639">
        <ele>1999</ele>
        <time>2024-07-27T07:12:49.604Z</time>
      </trkpt>
      <trkpt lat="42.98884" lon="-1.00637">
        <ele>2001</ele>
        <time>2024-07-27T07:13:09.478Z</time>
      </trkpt>
      <trkpt lat="42.98881" lon="-1.00632">
        <ele>2000</ele>
        <time>2024-07-27T07:13:13.484Z</time>
      </trkpt>
      <trkpt lat="42.98879" lon="-1.00628">
        <ele>1999</ele>
        <time>2024-07-27T07:13:16.660Z</time>
      </trkpt>
      <trkpt lat="42.98879" lon="-1.00626">
        <ele>1998</ele>
        <time>2024-07-27T07:13:17.983Z</time>
      </trkpt>
      <trkpt lat="42.98875" lon="-1.00623">
        <ele>1998</ele>
        <time>2024-07-27T07:13:21.719Z</time>
      </trkpt>
      <trkpt lat="42.98872" lon="-1.0062">
        <ele>1998</ele>
        <time>2024-07-27T07:13:25.733Z</time>
      </trkpt>
      <trkpt lat="42.98865" lon="-1.00618">
        <ele>1999</ele>
        <time>2024-07-27T07:13:36.990Z</time>
      </trkpt>
      <trkpt lat="42.9886" lon="-1.00616">
        <ele>2000</ele>
        <time>2024-07-27T07:13:46.927Z</time>
      </trkpt>
      <trkpt lat="42.98846" lon="-1.00614">
        <ele>2000</ele>
        <time>2024-07-27T07:13:59.813Z</time>
      </trkpt>
      <trkpt lat="42.9884" lon="-1.00611">
        <ele>2000</ele>
        <time>2024-07-27T07:14:05.857Z</time>
      </trkpt>
      <trkpt lat="42.98835" lon="-1.0061">
        <ele>2000</ele>
        <time>2024-07-27T07:14:11.729Z</time>
      </trkpt>
      <trkpt lat="42.98829" lon="-1.00609">
        <ele>2000</ele>
        <time>2024-07-27T07:14:16.917Z</time>
      </trkpt>
      <trkpt lat="42.9882" lon="-1.00605">
        <ele>2000</ele>
        <time>2024-07-27T07:14:26.213Z</time>
      </trkpt>
      <trkpt lat="42.9881" lon="-1.00604">
        <ele>2000</ele>
        <time>2024-07-27T07:14:36.429Z</time>
      </trkpt>
      <trkpt lat="42.98802" lon="-1.00602">
        <ele>2000</ele>
        <time>2024-07-27T07:14:43.681Z</time>
      </trkpt>
      <trkpt lat="42.98792" lon="-1.00601">
        <ele>2001</ele>
        <time>2024-07-27T07:14:57.101Z</time>
      </trkpt>
      <trkpt lat="42.98774" lon="-1.006">
        <ele>2001</ele>
        <time>2024-07-27T07:15:14.986Z</time>
      </trkpt>
      <trkpt lat="42.98758" lon="-1.00595">
        <ele>1999</ele>
        <time>2024-07-27T07:15:29.192Z</time>
      </trkpt>
      <trkpt lat="42.98743" lon="-1.0059">
        <ele>1996</ele>
        <time>2024-07-27T07:15:42.459Z</time>
      </trkpt>
      <trkpt lat="42.98739" lon="-1.00588">
        <ele>1995</ele>
        <time>2024-07-27T07:15:45.978Z</time>
      </trkpt>
      <trkpt lat="42.98732" lon="-1.00585">
        <ele>1993</ele>
        <time>2024-07-27T07:15:51.816Z</time>
      </trkpt>
      <trkpt lat="42.98722" lon="-1.00574">
        <ele>1987</ele>
        <time>2024-07-27T07:16:03.330Z</time>
      </trkpt>
      <trkpt lat="42.98714" lon="-1.00565">
        <ele>1982</ele>
        <time>2024-07-27T07:16:11.685Z</time>
      </trkpt>
      <trkpt lat="42.9871" lon="-1.00563">
        <ele>1980</ele>
        <time>2024-07-27T07:16:15.654Z</time>
      </trkpt>
      <trkpt lat="42.98704" lon="-1.00557">
        <ele>1976</ele>
        <time>2024-07-27T07:16:21.310Z</time>
      </trkpt>
      <trkpt lat="42.98701" lon="-1.00566">
        <ele>1980</ele>
        <time>2024-07-27T07:16:55.898Z</time>
      </trkpt>
      <trkpt lat="42.98702" lon="-1.00574">
        <ele>1983</ele>
        <time>2024-07-27T07:17:26.835Z</time>
      </trkpt>
      <trkpt lat="42.98695" lon="-1.00566">
        <ele>1979</ele>
        <time>2024-07-27T07:17:34.454Z</time>
      </trkpt>
      <trkpt lat="42.98693" lon="-1.0057">
        <ele>1980</ele>
        <time>2024-07-27T07:17:44.036Z</time>
      </trkpt>
      <trkpt lat="42.98674" lon="-1.00561">
        <ele>1968</ele>
        <time>2024-07-27T07:18:01.208Z</time>
      </trkpt>
      <trkpt lat="42.98664" lon="-1.00557">
        <ele>1961</ele>
        <time>2024-07-27T07:18:09.342Z</time>
      </trkpt>
      <trkpt lat="42.98666" lon="-1.00568">
        <ele>1967</ele>
        <time>2024-07-27T07:18:50.175Z</time>
      </trkpt>
      <trkpt lat="42.9866" lon="-1.00564">
        <ele>1962</ele>
        <time>2024-07-27T07:18:55.917Z</time>
      </trkpt>
      <trkpt lat="42.98653" lon="-1.00564">
        <ele>1956</ele>
        <time>2024-07-27T07:19:01.527Z</time>
      </trkpt>
      <trkpt lat="42.98642" lon="-1.00555">
        <ele>1942</ele>
        <time>2024-07-27T07:19:12.570Z</time>
      </trkpt>
      <trkpt lat="42.98637" lon="-1.00555">
        <ele>1938</ele>
        <time>2024-07-27T07:19:16.395Z</time>
      </trkpt>
      <trkpt lat="42.98635" lon="-1.00557">
        <ele>1937</ele>
        <time>2024-07-27T07:19:18.465Z</time>
      </trkpt>
      <trkpt lat="42.98631" lon="-1.00552">
        <ele>1931</ele>
        <time>2024-07-27T07:19:22.908Z</time>
      </trkpt>
      <trkpt lat="42.9863" lon="-1.00555">
        <ele>1931</ele>
        <time>2024-07-27T07:19:25.205Z</time>
      </trkpt>
      <trkpt lat="42.98625" lon="-1.00569">
        <ele>1933</ele>
        <time>2024-07-27T07:19:45.648Z</time>
      </trkpt>
      <trkpt lat="42.98619" lon="-1.00566">
        <ele>1927</ele>
        <time>2024-07-27T07:19:50.936Z</time>
      </trkpt>
      <trkpt lat="42.98614" lon="-1.00562">
        <ele>1920</ele>
        <time>2024-07-27T07:19:55.639Z</time>
      </trkpt>
      <trkpt lat="42.98609" lon="-1.00557">
        <ele>1915</ele>
        <time>2024-07-27T07:20:00.942Z</time>
      </trkpt>
      <trkpt lat="42.98601" lon="-1.00557">
        <ele>1911</ele>
        <time>2024-07-27T07:20:07.657Z</time>
      </trkpt>
      <trkpt lat="42.98597" lon="-1.00555">
        <ele>1908</ele>
        <time>2024-07-27T07:20:11.912Z</time>
      </trkpt>
      <trkpt lat="42.98582" lon="-1.00548">
        <ele>1902</ele>
        <time>2024-07-27T07:20:24.844Z</time>
      </trkpt>
      <trkpt lat="42.98582" lon="-1.00554">
        <ele>1904</ele>
        <time>2024-07-27T07:20:45.363Z</time>
      </trkpt>
      <trkpt lat="42.98581" lon="-1.00557">
        <ele>1905</ele>
        <time>2024-07-27T07:20:56.741Z</time>
      </trkpt>
      <trkpt lat="42.98576" lon="-1.00556">
        <ele>1905</ele>
        <time>2024-07-27T07:21:01.361Z</time>
      </trkpt>
      <trkpt lat="42.98574" lon="-1.00552">
        <ele>1904</ele>
        <time>2024-07-27T07:21:04.507Z</time>
      </trkpt>
      <trkpt lat="42.98566" lon="-1.00547">
        <ele>1903</ele>
        <time>2024-07-27T07:21:11.487Z</time>
      </trkpt>
      <trkpt lat="42.9856" lon="-1.00541">
        <ele>1902</ele>
        <time>2024-07-27T07:21:17.994Z</time>
      </trkpt>
      <trkpt lat="42.98555" lon="-1.00536">
        <ele>1902</ele>
        <time>2024-07-27T07:21:23.884Z</time>
      </trkpt>
      <trkpt lat="42.98548" lon="-1.00533">
        <ele>1903</ele>
        <time>2024-07-27T07:21:35.244Z</time>
      </trkpt>
      <trkpt lat="42.98538" lon="-1.00527">
        <ele>1903</ele>
        <time>2024-07-27T07:21:46.383Z</time>
      </trkpt>
      <trkpt lat="42.98526" lon="-1.00521">
        <ele>1901</ele>
        <time>2024-07-27T07:21:56.980Z</time>
      </trkpt>
      <trkpt lat="42.98518" lon="-1.00519">
        <ele>1901</ele>
        <time>2024-07-27T07:22:04.326Z</time>
      </trkpt>
      <trkpt lat="42.98508" lon="-1.00511">
        <ele>1901</ele>
        <time>2024-07-27T07:22:16.003Z</time>
      </trkpt>
      <trkpt lat="42.98489" lon="-1.00504">
        <ele>1901</ele>
        <time>2024-07-27T07:22:34.995Z</time>
      </trkpt>
      <trkpt lat="42.98479" lon="-1.00498">
        <ele>1901</ele>
        <time>2024-07-27T07:22:45.603Z</time>
      </trkpt>
      <trkpt lat="42.98464" lon="-1.00487">
        <ele>1901</ele>
        <time>2024-07-27T07:23:02.211Z</time>
      </trkpt>
      <trkpt lat="42.98452" lon="-1.00482">
        <ele>1899</ele>
        <time>2024-07-27T07:23:12.788Z</time>
      </trkpt>
      <trkpt lat="42.98449" lon="-1.00476">
        <ele>1901</ele>
        <time>2024-07-27T07:23:34.173Z</time>
      </trkpt>
      <trkpt lat="42.98434" lon="-1.00463">
        <ele>1902</ele>
        <time>2024-07-27T07:23:55.240Z</time>
      </trkpt>
      <trkpt lat="42.98423" lon="-1.0046">
        <ele>1900</ele>
        <time>2024-07-27T07:24:04.405Z</time>
      </trkpt>
      <trkpt lat="42.98409" lon="-1.00453">
        <ele>1899</ele>
        <time>2024-07-27T07:24:16.960Z</time>
      </trkpt>
      <trkpt lat="42.98405" lon="-1.00449">
        <ele>1899</ele>
        <time>2024-07-27T07:24:22.455Z</time>
      </trkpt>
      <trkpt lat="42.98382" lon="-1.00433">
        <ele>1898</ele>
        <time>2024-07-27T07:24:43.945Z</time>
      </trkpt>
      <trkpt lat="42.98367" lon="-1.00419">
        <ele>1895</ele>
        <time>2024-07-27T07:25:00.051Z</time>
      </trkpt>
      <trkpt lat="42.98361" lon="-1.00415">
        <ele>1893</ele>
        <time>2024-07-27T07:25:05.824Z</time>
      </trkpt>
      <trkpt lat="42.98351" lon="-1.00401">
        <ele>1892</ele>
        <time>2024-07-27T07:25:17.606Z</time>
      </trkpt>
      <trkpt lat="42.98344" lon="-1.00392">
        <ele>1891</ele>
        <time>2024-07-27T07:25:25.530Z</time>
      </trkpt>
      <trkpt lat="42.98337" lon="-1.00384">
        <ele>1890</ele>
        <time>2024-07-27T07:25:33.483Z</time>
      </trkpt>
      <trkpt lat="42.98331" lon="-1.0038">
        <ele>1886</ele>
        <time>2024-07-27T07:25:39.704Z</time>
      </trkpt>
      <trkpt lat="42.98325" lon="-1.00372">
        <ele>1884</ele>
        <time>2024-07-27T07:25:46.386Z</time>
      </trkpt>
      <trkpt lat="42.98319" lon="-1.00358">
        <ele>1884</ele>
        <time>2024-07-27T07:25:58.176Z</time>
      </trkpt>
      <trkpt lat="42.98309" lon="-1.00343">
        <ele>1881</ele>
        <time>2024-07-27T07:26:10.785Z</time>
      </trkpt>
      <trkpt lat="42.98303" lon="-1.00333">
        <ele>1880</ele>
        <time>2024-07-27T07:26:18.779Z</time>
      </trkpt>
      <trkpt lat="42.98297" lon="-1.00319">
        <ele>1879</ele>
        <time>2024-07-27T07:26:28.611Z</time>
      </trkpt>
      <trkpt lat="42.9829" lon="-1.00316">
        <ele>1876</ele>
        <time>2024-07-27T07:26:35.106Z</time>
      </trkpt>
      <trkpt lat="42.98278" lon="-1.00304">
        <ele>1872</ele>
        <time>2024-07-27T07:26:47.533Z</time>
      </trkpt>
      <trkpt lat="42.98267" lon="-1.00292">
        <ele>1870</ele>
        <time>2024-07-27T07:26:59.008Z</time>
      </trkpt>
      <trkpt lat="42.98265" lon="-1.00295">
        <ele>1869</ele>
        <time>2024-07-27T07:27:01.442Z</time>
      </trkpt>
      <trkpt lat="42.98261" lon="-1.00285">
        <ele>1868</ele>
        <time>2024-07-27T07:27:08.787Z</time>
      </trkpt>
      <trkpt lat="42.98259" lon="-1.00287">
        <ele>1867</ele>
        <time>2024-07-27T07:27:10.752Z</time>
      </trkpt>
      <trkpt lat="42.98256" lon="-1.00283">
        <ele>1865</ele>
        <time>2024-07-27T07:27:14.670Z</time>
      </trkpt>
      <trkpt lat="42.98253" lon="-1.00275">
        <ele>1865</ele>
        <time>2024-07-27T07:27:20.440Z</time>
      </trkpt>
      <trkpt lat="42.98251" lon="-1.00276">
        <ele>1864</ele>
        <time>2024-07-27T07:27:22.330Z</time>
      </trkpt>
      <trkpt lat="42.98248" lon="-1.00274">
        <ele>1863</ele>
        <time>2024-07-27T07:27:25.296Z</time>
      </trkpt>
      <trkpt lat="42.98247" lon="-1.00268">
        <ele>1864</ele>
        <time>2024-07-27T07:27:34.914Z</time>
      </trkpt>
      <trkpt lat="42.98231" lon="-1.00257">
        <ele>1858</ele>
        <time>2024-07-27T07:27:49.930Z</time>
      </trkpt>
      <trkpt lat="42.98216" lon="-1.00249">
        <ele>1850</ele>
        <time>2024-07-27T07:28:03.717Z</time>
      </trkpt>
      <trkpt lat="42.9821" lon="-1.00243">
        <ele>1848</ele>
        <time>2024-07-27T07:28:10.081Z</time>
      </trkpt>
      <trkpt lat="42.98193" lon="-1.00234">
        <ele>1840</ele>
        <time>2024-07-27T07:28:25.656Z</time>
      </trkpt>
      <trkpt lat="42.98186" lon="-1.00234">
        <ele>1835</ele>
        <time>2024-07-27T07:28:31.776Z</time>
      </trkpt>
      <trkpt lat="42.98171" lon="-1.00221">
        <ele>1829</ele>
        <time>2024-07-27T07:28:47.149Z</time>
      </trkpt>
      <trkpt lat="42.98164" lon="-1.00215">
        <ele>1824</ele>
        <time>2024-07-27T07:28:54.086Z</time>
      </trkpt>
      <trkpt lat="42.98155" lon="-1.00202">
        <ele>1820</ele>
        <time>2024-07-27T07:29:05.170Z</time>
      </trkpt>
      <trkpt lat="42.98137" lon="-1.00184">
        <ele>1811</ele>
        <time>2024-07-27T07:29:24.403Z</time>
      </trkpt>
      <trkpt lat="42.98118" lon="-1.00168">
        <ele>1801</ele>
        <time>2024-07-27T07:29:43.146Z</time>
      </trkpt>
      <trkpt lat="42.98111" lon="-1.00164">
        <ele>1799</ele>
        <time>2024-07-27T07:29:49.388Z</time>
      </trkpt>
      <trkpt lat="42.98105" lon="-1.00154">
        <ele>1796</ele>
        <time>2024-07-27T07:29:57.382Z</time>
      </trkpt>
      <trkpt lat="42.98098" lon="-1.00153">
        <ele>1795</ele>
        <time>2024-07-27T07:30:03.449Z</time>
      </trkpt>
      <trkpt lat="42.98095" lon="-1.00151">
        <ele>1795</ele>
        <time>2024-07-27T07:30:06.337Z</time>
      </trkpt>
      <trkpt lat="42.98091" lon="-1.00152">
        <ele>1795</ele>
        <time>2024-07-27T07:30:10.841Z</time>
      </trkpt>
      <trkpt lat="42.98081" lon="-1.00155">
        <ele>1795</ele>
        <time>2024-07-27T07:30:19.997Z</time>
      </trkpt>
      <trkpt lat="42.98077" lon="-1.00157">
        <ele>1796</ele>
        <time>2024-07-27T07:30:29.678Z</time>
      </trkpt>
      <trkpt lat="42.9807" lon="-1.00155">
        <ele>1795</ele>
        <time>2024-07-27T07:30:35.398Z</time>
      </trkpt>
      <trkpt lat="42.98061" lon="-1.00155">
        <ele>1796</ele>
        <time>2024-07-27T07:30:48.187Z</time>
      </trkpt>
      <trkpt lat="42.98054" lon="-1.00157">
        <ele>1796</ele>
        <time>2024-07-27T07:30:55.297Z</time>
      </trkpt>
      <trkpt lat="42.98041" lon="-1.00157">
        <ele>1796</ele>
        <time>2024-07-27T07:31:07.440Z</time>
      </trkpt>
      <trkpt lat="42.98035" lon="-1.00155">
        <ele>1795</ele>
        <time>2024-07-27T07:31:13.077Z</time>
      </trkpt>
      <trkpt lat="42.98026" lon="-1.00156">
        <ele>1795</ele>
        <time>2024-07-27T07:31:22.032Z</time>
      </trkpt>
      <trkpt lat="42.98012" lon="-1.00154">
        <ele>1794</ele>
        <time>2024-07-27T07:31:33.301Z</time>
      </trkpt>
      <trkpt lat="42.98001" lon="-1.00151">
        <ele>1791</ele>
        <time>2024-07-27T07:31:42.968Z</time>
      </trkpt>
      <trkpt lat="42.97996" lon="-1.00151">
        <ele>1790</ele>
        <time>2024-07-27T07:31:47.473Z</time>
      </trkpt>
      <trkpt lat="42.97993" lon="-1.00154">
        <ele>1790</ele>
        <time>2024-07-27T07:31:50.645Z</time>
      </trkpt>
      <trkpt lat="42.97987" lon="-1.00151">
        <ele>1789</ele>
        <time>2024-07-27T07:31:56.137Z</time>
      </trkpt>
      <trkpt lat="42.97975" lon="-1.00149">
        <ele>1784</ele>
        <time>2024-07-27T07:32:06.820Z</time>
      </trkpt>
      <trkpt lat="42.97968" lon="-1.00149">
        <ele>1782</ele>
        <time>2024-07-27T07:32:12.940Z</time>
      </trkpt>
      <trkpt lat="42.97959" lon="-1.00141">
        <ele>1778</ele>
        <time>2024-07-27T07:32:21.783Z</time>
      </trkpt>
      <trkpt lat="42.97938" lon="-1.00125">
        <ele>1768</ele>
        <time>2024-07-27T07:32:42.481Z</time>
      </trkpt>
      <trkpt lat="42.97913" lon="-1.00109">
        <ele>1752</ele>
        <time>2024-07-27T07:33:05.461Z</time>
      </trkpt>
      <trkpt lat="42.9789" lon="-1.00096">
        <ele>1742</ele>
        <time>2024-07-27T07:33:27.309Z</time>
      </trkpt>
      <trkpt lat="42.97865" lon="-1.00084">
        <ele>1734</ele>
        <time>2024-07-27T07:33:49.769Z</time>
      </trkpt>
      <trkpt lat="42.97842" lon="-1.00073">
        <ele>1726</ele>
        <time>2024-07-27T07:34:10.420Z</time>
      </trkpt>
      <trkpt lat="42.97811" lon="-1.00048">
        <ele>1713</ele>
        <time>2024-07-27T07:34:40.932Z</time>
      </trkpt>
      <trkpt lat="42.97788" lon="-1.00038">
        <ele>1707</ele>
        <time>2024-07-27T07:35:00.923Z</time>
      </trkpt>
      <trkpt lat="42.97773" lon="-1.00022">
        <ele>1701</ele>
        <time>2024-07-27T07:35:17.711Z</time>
      </trkpt>
      <trkpt lat="42.97755" lon="-1.00001">
        <ele>1695</ele>
        <time>2024-07-27T07:35:37.511Z</time>
      </trkpt>
      <trkpt lat="42.97742" lon="-0.99992">
        <ele>1695</ele>
        <time>2024-07-27T07:35:51.841Z</time>
      </trkpt>
      <trkpt lat="42.97727" lon="-0.99973">
        <ele>1694</ele>
        <time>2024-07-27T07:36:09.158Z</time>
      </trkpt>
      <trkpt lat="42.97721" lon="-0.99968">
        <ele>1695</ele>
        <time>2024-07-27T07:36:19.983Z</time>
      </trkpt>
      <trkpt lat="42.97712" lon="-0.99964">
        <ele>1697</ele>
        <time>2024-07-27T07:36:39.446Z</time>
      </trkpt>
      <trkpt lat="42.97708" lon="-0.99964">
        <ele>1697</ele>
        <time>2024-07-27T07:36:43.235Z</time>
      </trkpt>
      <trkpt lat="42.97699" lon="-0.99958">
        <ele>1698</ele>
        <time>2024-07-27T07:36:56.729Z</time>
      </trkpt>
      <trkpt lat="42.97679" lon="-0.99942">
        <ele>1697</ele>
        <time>2024-07-27T07:37:16.333Z</time>
      </trkpt>
      <trkpt lat="42.97663" lon="-0.99931">
        <ele>1696</ele>
        <time>2024-07-27T07:37:31.349Z</time>
      </trkpt>
      <trkpt lat="42.97648" lon="-0.99915">
        <ele>1695</ele>
        <time>2024-07-27T07:37:47.665Z</time>
      </trkpt>
      <trkpt lat="42.97638" lon="-0.99911">
        <ele>1693</ele>
        <time>2024-07-27T07:37:57.000Z</time>
      </trkpt>
      <trkpt lat="42.97628" lon="-0.99902">
        <ele>1690</ele>
        <time>2024-07-27T07:38:07.106Z</time>
      </trkpt>
      <trkpt lat="42.97622" lon="-0.999">
        <ele>1688</ele>
        <time>2024-07-27T07:38:12.258Z</time>
      </trkpt>
      <trkpt lat="42.97616" lon="-0.99895">
        <ele>1687</ele>
        <time>2024-07-27T07:38:17.971Z</time>
      </trkpt>
      <trkpt lat="42.97608" lon="-0.99884">
        <ele>1683</ele>
        <time>2024-07-27T07:38:28.285Z</time>
      </trkpt>
      <trkpt lat="42.97602" lon="-0.99864">
        <ele>1678</ele>
        <time>2024-07-27T07:38:41.580Z</time>
      </trkpt>
      <trkpt lat="42.97598" lon="-0.99842">
        <ele>1673</ele>
        <time>2024-07-27T07:38:55.899Z</time>
      </trkpt>
      <trkpt lat="42.97593" lon="-0.99816">
        <ele>1669</ele>
        <time>2024-07-27T07:39:12.534Z</time>
      </trkpt>
      <trkpt lat="42.97586" lon="-0.99784">
        <ele>1658</ele>
        <time>2024-07-27T07:39:33.117Z</time>
      </trkpt>
      <trkpt lat="42.97578" lon="-0.99769">
        <ele>1649</ele>
        <time>2024-07-27T07:39:44.711Z</time>
      </trkpt>
      <trkpt lat="42.97571" lon="-0.99759">
        <ele>1643</ele>
        <time>2024-07-27T07:39:52.995Z</time>
      </trkpt>
      <trkpt lat="42.97566" lon="-0.99756">
        <ele>1641</ele>
        <time>2024-07-27T07:39:57.802Z</time>
      </trkpt>
      <trkpt lat="42.97566" lon="-0.99751">
        <ele>1639</ele>
        <time>2024-07-27T07:40:01.261Z</time>
      </trkpt>
      <trkpt lat="42.97562" lon="-0.99751">
        <ele>1639</ele>
        <time>2024-07-27T07:40:05.146Z</time>
      </trkpt>
      <trkpt lat="42.97556" lon="-0.99749">
        <ele>1637</ele>
        <time>2024-07-27T07:40:09.706Z</time>
      </trkpt>
      <trkpt lat="42.97544" lon="-0.99735">
        <ele>1631</ele>
        <time>2024-07-27T07:40:23.174Z</time>
      </trkpt>
      <trkpt lat="42.97535" lon="-0.99711">
        <ele>1624</ele>
        <time>2024-07-27T07:40:39.888Z</time>
      </trkpt>
      <trkpt lat="42.97527" lon="-0.99693">
        <ele>1618</ele>
        <time>2024-07-27T07:40:52.941Z</time>
      </trkpt>
      <trkpt lat="42.9752" lon="-0.99669">
        <ele>1612</ele>
        <time>2024-07-27T07:41:09.061Z</time>
      </trkpt>
      <trkpt lat="42.97515" lon="-0.99653">
        <ele>1609</ele>
        <time>2024-07-27T07:41:20.062Z</time>
      </trkpt>
      <trkpt lat="42.97499" lon="-0.99616">
        <ele>1599</ele>
        <time>2024-07-27T07:41:46.597Z</time>
      </trkpt>
      <trkpt lat="42.97486" lon="-0.9959">
        <ele>1595</ele>
        <time>2024-07-27T07:42:06.281Z</time>
      </trkpt>
      <trkpt lat="42.97466" lon="-0.99566">
        <ele>1593</ele>
        <time>2024-07-27T07:42:29.282Z</time>
      </trkpt>
      <trkpt lat="42.97463" lon="-0.99559">
        <ele>1592</ele>
        <time>2024-07-27T07:42:33.726Z</time>
      </trkpt>
      <trkpt lat="42.97463" lon="-0.99555">
        <ele>1591</ele>
        <time>2024-07-27T07:42:36.524Z</time>
      </trkpt>
      <trkpt lat="42.9746" lon="-0.99542">
        <ele>1590</ele>
        <time>2024-07-27T07:42:44.689Z</time>
      </trkpt>
      <trkpt lat="42.97457" lon="-0.99533">
        <ele>1588</ele>
        <time>2024-07-27T07:42:51.398Z</time>
      </trkpt>
      <trkpt lat="42.97454" lon="-0.99514">
        <ele>1585</ele>
        <time>2024-07-27T07:43:03.358Z</time>
      </trkpt>
      <trkpt lat="42.97449" lon="-0.99497">
        <ele>1584</ele>
        <time>2024-07-27T07:43:14.417Z</time>
      </trkpt>
      <trkpt lat="42.97442" lon="-0.9948">
        <ele>1583</ele>
        <time>2024-07-27T07:43:26.675Z</time>
      </trkpt>
      <trkpt lat="42.97436" lon="-0.99468">
        <ele>1582</ele>
        <time>2024-07-27T07:43:35.979Z</time>
      </trkpt>
      <trkpt lat="42.97434" lon="-0.99461">
        <ele>1581</ele>
        <time>2024-07-27T07:43:40.249Z</time>
      </trkpt>
      <trkpt lat="42.97436" lon="-0.9945">
        <ele>1580</ele>
        <time>2024-07-27T07:43:47.722Z</time>
      </trkpt>
      <trkpt lat="42.97431" lon="-0.99436">
        <ele>1578</ele>
        <time>2024-07-27T07:43:56.927Z</time>
      </trkpt>
      <trkpt lat="42.97426" lon="-0.99435">
        <ele>1578</ele>
        <time>2024-07-27T07:44:02.018Z</time>
      </trkpt>
      <trkpt lat="42.97418" lon="-0.99425">
        <ele>1577</ele>
        <time>2024-07-27T07:44:11.472Z</time>
      </trkpt>
      <trkpt lat="42.97413" lon="-0.99387">
        <ele>1574</ele>
        <time>2024-07-27T07:44:35.469Z</time>
      </trkpt>
      <trkpt lat="42.97403" lon="-0.99342">
        <ele>1570</ele>
        <time>2024-07-27T07:45:04.548Z</time>
      </trkpt>
      <trkpt lat="42.97402" lon="-0.99318">
        <ele>1568</ele>
        <time>2024-07-27T07:45:19.645Z</time>
      </trkpt>
      <trkpt lat="42.97403" lon="-0.9931">
        <ele>1567</ele>
        <time>2024-07-27T07:45:24.882Z</time>
      </trkpt>
      <trkpt lat="42.97402" lon="-0.99305">
        <ele>1567</ele>
        <time>2024-07-27T07:45:28.292Z</time>
      </trkpt>
      <trkpt lat="42.97395" lon="-0.9929">
        <ele>1568</ele>
        <time>2024-07-27T07:45:44.433Z</time>
      </trkpt>
      <trkpt lat="42.97385" lon="-0.99249">
        <ele>1570</ele>
        <time>2024-07-27T07:46:22.425Z</time>
      </trkpt>
      <trkpt lat="42.97381" lon="-0.99227">
        <ele>1571</ele>
        <time>2024-07-27T07:46:41.547Z</time>
      </trkpt>
      <trkpt lat="42.97371" lon="-0.99187">
        <ele>1575</ele>
        <time>2024-07-27T07:47:27.740Z</time>
      </trkpt>
      <trkpt lat="42.9736" lon="-0.99158">
        <ele>1578</ele>
        <time>2024-07-27T07:48:03.370Z</time>
      </trkpt>
      <trkpt lat="42.97355" lon="-0.99144">
        <ele>1578</ele>
        <time>2024-07-27T07:48:14.197Z</time>
      </trkpt>
      <trkpt lat="42.97351" lon="-0.99127">
        <ele>1579</ele>
        <time>2024-07-27T07:48:30.485Z</time>
      </trkpt>
      <trkpt lat="42.97345" lon="-0.99113">
        <ele>1580</ele>
        <time>2024-07-27T07:48:45.514Z</time>
      </trkpt>
      <trkpt lat="42.97326" lon="-0.99075">
        <ele>1583</ele>
        <time>2024-07-27T07:49:29.488Z</time>
      </trkpt>
      <trkpt lat="42.97309" lon="-0.9904">
        <ele>1586</ele>
        <time>2024-07-27T07:50:10.637Z</time>
      </trkpt>
      <trkpt lat="42.97303" lon="-0.9903">
        <ele>1587</ele>
        <time>2024-07-27T07:50:23.597Z</time>
      </trkpt>
      <trkpt lat="42.97284" lon="-0.99002">
        <ele>1590</ele>
        <time>2024-07-27T07:51:02.239Z</time>
      </trkpt>
      <trkpt lat="42.9728" lon="-0.98995">
        <ele>1590</ele>
        <time>2024-07-27T07:51:08.104Z</time>
      </trkpt>
      <trkpt lat="42.97269" lon="-0.98976">
        <ele>1590</ele>
        <time>2024-07-27T07:51:25.391Z</time>
      </trkpt>
      <trkpt lat="42.97263" lon="-0.98964">
        <ele>1589</ele>
        <time>2024-07-27T07:51:34.927Z</time>
      </trkpt>
      <trkpt lat="42.97258" lon="-0.98951">
        <ele>1587</ele>
        <time>2024-07-27T07:51:43.685Z</time>
      </trkpt>
      <trkpt lat="42.97256" lon="-0.98941">
        <ele>1585</ele>
        <time>2024-07-27T07:51:50.132Z</time>
      </trkpt>
      <trkpt lat="42.97256" lon="-0.98926">
        <ele>1583</ele>
        <time>2024-07-27T07:51:59.647Z</time>
      </trkpt>
      <trkpt lat="42.97255" lon="-0.98908">
        <ele>1581</ele>
        <time>2024-07-27T07:52:10.834Z</time>
      </trkpt>
      <trkpt lat="42.97255" lon="-0.98894">
        <ele>1579</ele>
        <time>2024-07-27T07:52:19.804Z</time>
      </trkpt>
      <trkpt lat="42.97255" lon="-0.98887">
        <ele>1578</ele>
        <time>2024-07-27T07:52:24.249Z</time>
      </trkpt>
      <trkpt lat="42.97255" lon="-0.98878">
        <ele>1577</ele>
        <time>2024-07-27T07:52:29.847Z</time>
      </trkpt>
      <trkpt lat="42.97255" lon="-0.98872">
        <ele>1577</ele>
        <time>2024-07-27T07:52:33.799Z</time>
      </trkpt>
      <trkpt lat="42.97254" lon="-0.98866">
        <ele>1576</ele>
        <time>2024-07-27T07:52:37.848Z</time>
      </trkpt>
      <trkpt lat="42.9725" lon="-0.98852">
        <ele>1576</ele>
        <time>2024-07-27T07:52:48.729Z</time>
      </trkpt>
      <trkpt lat="42.97249" lon="-0.98835">
        <ele>1575</ele>
        <time>2024-07-27T07:52:58.760Z</time>
      </trkpt>
      <trkpt lat="42.97249" lon="-0.98826">
        <ele>1574</ele>
        <time>2024-07-27T07:53:04.916Z</time>
      </trkpt>
      <trkpt lat="42.97249" lon="-0.98803">
        <ele>1575</ele>
        <time>2024-07-27T07:53:24.279Z</time>
      </trkpt>
      <trkpt lat="42.97247" lon="-0.98794">
        <ele>1576</ele>
        <time>2024-07-27T07:53:35.072Z</time>
      </trkpt>
      <trkpt lat="42.97241" lon="-0.98767">
        <ele>1580</ele>
        <time>2024-07-27T07:54:14.505Z</time>
      </trkpt>
      <trkpt lat="42.97236" lon="-0.98742">
        <ele>1583</ele>
        <time>2024-07-27T07:54:46.088Z</time>
      </trkpt>
      <trkpt lat="42.97234" lon="-0.98721">
        <ele>1586</ele>
        <time>2024-07-27T07:55:15.464Z</time>
      </trkpt>
      <trkpt lat="42.97232" lon="-0.98705">
        <ele>1587</ele>
        <time>2024-07-27T07:55:30.840Z</time>
      </trkpt>
      <trkpt lat="42.97228" lon="-0.98695">
        <ele>1589</ele>
        <time>2024-07-27T07:55:49.924Z</time>
      </trkpt>
      <trkpt lat="42.97223" lon="-0.98676">
        <ele>1591</ele>
        <time>2024-07-27T07:56:12.522Z</time>
      </trkpt>
      <trkpt lat="42.97216" lon="-0.98642">
        <ele>1593</ele>
        <time>2024-07-27T07:56:44.837Z</time>
      </trkpt>
      <trkpt lat="42.97211" lon="-0.98622">
        <ele>1594</ele>
        <time>2024-07-27T07:57:03.662Z</time>
      </trkpt>
      <trkpt lat="42.97206" lon="-0.98589">
        <ele>1597</ele>
        <time>2024-07-27T07:57:39.238Z</time>
      </trkpt>
      <trkpt lat="42.97202" lon="-0.98572">
        <ele>1601</ele>
        <time>2024-07-27T07:58:18.529Z</time>
      </trkpt>
      <trkpt lat="42.97199" lon="-0.98554">
        <ele>1606</ele>
        <time>2024-07-27T07:59:11.617Z</time>
      </trkpt>
      <trkpt lat="42.97194" lon="-0.98533">
        <ele>1613</ele>
        <time>2024-07-27T08:00:30.009Z</time>
      </trkpt>
      <trkpt lat="42.97191" lon="-0.98518">
        <ele>1618</ele>
        <time>2024-07-27T08:01:25.355Z</time>
      </trkpt>
      <trkpt lat="42.97186" lon="-0.98494">
        <ele>1625</ele>
        <time>2024-07-27T08:02:40.137Z</time>
      </trkpt>
      <trkpt lat="42.97182" lon="-0.98481">
        <ele>1629</ele>
        <time>2024-07-27T08:03:22.894Z</time>
      </trkpt>
      <trkpt lat="42.9718" lon="-0.98465">
        <ele>1632</ele>
        <time>2024-07-27T08:03:51.615Z</time>
      </trkpt>
      <trkpt lat="42.97177" lon="-0.98448">
        <ele>1636</ele>
        <time>2024-07-27T08:04:31.289Z</time>
      </trkpt>
      <trkpt lat="42.97176" lon="-0.98431">
        <ele>1639</ele>
        <time>2024-07-27T08:04:59.932Z</time>
      </trkpt>
      <trkpt lat="42.97173" lon="-0.98418">
        <ele>1642</ele>
        <time>2024-07-27T08:05:29.055Z</time>
      </trkpt>
      <trkpt lat="42.97169" lon="-0.98411">
        <ele>1643</ele>
        <time>2024-07-27T08:05:39.429Z</time>
      </trkpt>
      <trkpt lat="42.97161" lon="-0.98401">
        <ele>1646</ele>
        <time>2024-07-27T08:06:08.234Z</time>
      </trkpt>
      <trkpt lat="42.97149" lon="-0.98379">
        <ele>1649</ele>
        <time>2024-07-27T08:06:40.622Z</time>
      </trkpt>
      <trkpt lat="42.97136" lon="-0.98361">
        <ele>1651</ele>
        <time>2024-07-27T08:07:06.411Z</time>
      </trkpt>
      <trkpt lat="42.97123" lon="-0.98344">
        <ele>1653</ele>
        <time>2024-07-27T08:07:31.337Z</time>
      </trkpt>
      <trkpt lat="42.97117" lon="-0.98337">
        <ele>1653</ele>
        <time>2024-07-27T08:07:39.021Z</time>
      </trkpt>
      <trkpt lat="42.97114" lon="-0.98327">
        <ele>1653</ele>
        <time>2024-07-27T08:07:46.779Z</time>
      </trkpt>
      <trkpt lat="42.97109" lon="-0.9831">
        <ele>1652</ele>
        <time>2024-07-27T08:07:58.271Z</time>
      </trkpt>
      <trkpt lat="42.971" lon="-0.98277">
        <ele>1649</ele>
        <time>2024-07-27T08:08:20.234Z</time>
      </trkpt>
      <trkpt lat="42.97096" lon="-0.98249">
        <ele>1647</ele>
        <time>2024-07-27T08:08:37.899Z</time>
      </trkpt>
      <trkpt lat="42.97087" lon="-0.98227">
        <ele>1645</ele>
        <time>2024-07-27T08:08:53.153Z</time>
      </trkpt>
      <trkpt lat="42.97075" lon="-0.98188">
        <ele>1640</ele>
        <time>2024-07-27T08:09:19.778Z</time>
      </trkpt>
      <trkpt lat="42.97063" lon="-0.98143">
        <ele>1634</ele>
        <time>2024-07-27T08:09:49.625Z</time>
      </trkpt>
      <trkpt lat="42.97057" lon="-0.98129">
        <ele>1629</ele>
        <time>2024-07-27T08:09:59.099Z</time>
      </trkpt>
      <trkpt lat="42.97052" lon="-0.98117">
        <ele>1626</ele>
        <time>2024-07-27T08:10:08.138Z</time>
      </trkpt>
      <trkpt lat="42.97033" lon="-0.98092">
        <ele>1620</ele>
        <time>2024-07-27T08:10:30.256Z</time>
      </trkpt>
      <trkpt lat="42.97015" lon="-0.98071">
        <ele>1616</ele>
        <time>2024-07-27T08:10:50.489Z</time>
      </trkpt>
      <trkpt lat="42.97001" lon="-0.98054">
        <ele>1611</ele>
        <time>2024-07-27T08:11:06.663Z</time>
      </trkpt>
      <trkpt lat="42.96981" lon="-0.98031">
        <ele>1607</ele>
        <time>2024-07-27T08:11:28.906Z</time>
      </trkpt>
      <trkpt lat="42.96966" lon="-0.98016">
        <ele>1605</ele>
        <time>2024-07-27T08:11:44.477Z</time>
      </trkpt>
      <trkpt lat="42.96954" lon="-0.98009">
        <ele>1605</ele>
        <time>2024-07-27T08:11:57.030Z</time>
      </trkpt>
      <trkpt lat="42.96942" lon="-0.97995">
        <ele>1603</ele>
        <time>2024-07-27T08:12:10.477Z</time>
      </trkpt>
      <trkpt lat="42.96935" lon="-0.97985">
        <ele>1601</ele>
        <time>2024-07-27T08:12:19.587Z</time>
      </trkpt>
      <trkpt lat="42.96921" lon="-0.97971">
        <ele>1600</ele>
        <time>2024-07-27T08:12:33.976Z</time>
      </trkpt>
      <trkpt lat="42.96909" lon="-0.97958">
        <ele>1599</ele>
        <time>2024-07-27T08:12:47.162Z</time>
      </trkpt>
      <trkpt lat="42.969" lon="-0.97943">
        <ele>1598</ele>
        <time>2024-07-27T08:12:58.620Z</time>
      </trkpt>
      <trkpt lat="42.96891" lon="-0.97925">
        <ele>1596</ele>
        <time>2024-07-27T08:13:12.276Z</time>
      </trkpt>
      <trkpt lat="42.96889" lon="-0.9792">
        <ele>1596</ele>
        <time>2024-07-27T08:13:16.578Z</time>
      </trkpt>
      <trkpt lat="42.96883" lon="-0.97908">
        <ele>1595</ele>
        <time>2024-07-27T08:13:25.365Z</time>
      </trkpt>
      <trkpt lat="42.96872" lon="-0.9789">
        <ele>1593</ele>
        <time>2024-07-27T08:13:40.060Z</time>
      </trkpt>
      <trkpt lat="42.96869" lon="-0.97884">
        <ele>1593</ele>
        <time>2024-07-27T08:13:45.567Z</time>
      </trkpt>
      <trkpt lat="42.96863" lon="-0.97872">
        <ele>1592</ele>
        <time>2024-07-27T08:13:54.405Z</time>
      </trkpt>
      <trkpt lat="42.96857" lon="-0.97858">
        <ele>1590</ele>
        <time>2024-07-27T08:14:04.615Z</time>
      </trkpt>
      <trkpt lat="42.96848" lon="-0.97843">
        <ele>1588</ele>
        <time>2024-07-27T08:14:16.563Z</time>
      </trkpt>
      <trkpt lat="42.96846" lon="-0.97835">
        <ele>1587</ele>
        <time>2024-07-27T08:14:21.880Z</time>
      </trkpt>
      <trkpt lat="42.96823" lon="-0.97806">
        <ele>1580</ele>
        <time>2024-07-27T08:14:48.395Z</time>
      </trkpt>
      <trkpt lat="42.96804" lon="-0.97783">
        <ele>1572</ele>
        <time>2024-07-27T08:15:10.540Z</time>
      </trkpt>
      <trkpt lat="42.96793" lon="-0.97769">
        <ele>1569</ele>
        <time>2024-07-27T08:15:23.192Z</time>
      </trkpt>
      <trkpt lat="42.96782" lon="-0.9776">
        <ele>1565</ele>
        <time>2024-07-27T08:15:33.727Z</time>
      </trkpt>
      <trkpt lat="42.96772" lon="-0.97746">
        <ele>1561</ele>
        <time>2024-07-27T08:15:46.371Z</time>
      </trkpt>
      <trkpt lat="42.96761" lon="-0.97735">
        <ele>1558</ele>
        <time>2024-07-27T08:15:57.542Z</time>
      </trkpt>
      <trkpt lat="42.96747" lon="-0.97723">
        <ele>1554</ele>
        <time>2024-07-27T08:16:11.345Z</time>
      </trkpt>
      <trkpt lat="42.96737" lon="-0.97713">
        <ele>1552</ele>
        <time>2024-07-27T08:16:21.736Z</time>
      </trkpt>
      <trkpt lat="42.96731" lon="-0.97707">
        <ele>1551</ele>
        <time>2024-07-27T08:16:28.100Z</time>
      </trkpt>
      <trkpt lat="42.96721" lon="-0.97697">
        <ele>1548</ele>
        <time>2024-07-27T08:16:38.943Z</time>
      </trkpt>
      <trkpt lat="42.96708" lon="-0.97689">
        <ele>1545</ele>
        <time>2024-07-27T08:16:50.701Z</time>
      </trkpt>
      <trkpt lat="42.96655" lon="-0.97667">
        <ele>1538</ele>
        <time>2024-07-27T08:17:38.037Z</time>
      </trkpt>
      <trkpt lat="42.96594" lon="-0.9763">
        <ele>1534</ele>
        <time>2024-07-27T08:18:34.844Z</time>
      </trkpt>
      <trkpt lat="42.96574" lon="-0.97615">
        <ele>1533</ele>
        <time>2024-07-27T08:18:54.451Z</time>
      </trkpt>
      <trkpt lat="42.96555" lon="-0.97611">
        <ele>1535</ele>
        <time>2024-07-27T08:19:20.269Z</time>
      </trkpt>
      <trkpt lat="42.96535" lon="-0.97608">
        <ele>1538</ele>
        <time>2024-07-27T08:19:52.835Z</time>
      </trkpt>
      <trkpt lat="42.96522" lon="-0.97612">
        <ele>1540</ele>
        <time>2024-07-27T08:20:14.447Z</time>
      </trkpt>
      <trkpt lat="42.96459" lon="-0.97621">
        <ele>1547</ele>
        <time>2024-07-27T08:21:43.150Z</time>
      </trkpt>
      <trkpt lat="42.96418" lon="-0.97646">
        <ele>1547</ele>
        <time>2024-07-27T08:22:26.526Z</time>
      </trkpt>
      <trkpt lat="42.96392" lon="-0.97661">
        <ele>1547</ele>
        <time>2024-07-27T08:22:54.355Z</time>
      </trkpt>
      <trkpt lat="42.96376" lon="-0.97674">
        <ele>1545</ele>
        <time>2024-07-27T08:23:09.904Z</time>
      </trkpt>
      <trkpt lat="42.96364" lon="-0.97678">
        <ele>1545</ele>
        <time>2024-07-27T08:23:21.664Z</time>
      </trkpt>
      <trkpt lat="42.96342" lon="-0.97674">
        <ele>1548</ele>
        <time>2024-07-27T08:23:55.874Z</time>
      </trkpt>
      <trkpt lat="42.9633" lon="-0.97668">
        <ele>1549</ele>
        <time>2024-07-27T08:24:11.168Z</time>
      </trkpt>
      <trkpt lat="42.96313" lon="-0.97665">
        <ele>1549</ele>
        <time>2024-07-27T08:24:28.557Z</time>
      </trkpt>
      <trkpt lat="42.96295" lon="-0.97651">
        <ele>1550</ele>
        <time>2024-07-27T08:24:51.900Z</time>
      </trkpt>
      <trkpt lat="42.96274" lon="-0.97627">
        <ele>1551</ele>
        <time>2024-07-27T08:25:21.512Z</time>
      </trkpt>
      <trkpt lat="42.96253" lon="-0.97599">
        <ele>1551</ele>
        <time>2024-07-27T08:25:49.935Z</time>
      </trkpt>
      <trkpt lat="42.96236" lon="-0.9757">
        <ele>1550</ele>
        <time>2024-07-27T08:26:14.028Z</time>
      </trkpt>
      <trkpt lat="42.96211" lon="-0.97507">
        <ele>1553</ele>
        <time>2024-07-27T08:27:14.803Z</time>
      </trkpt>
      <trkpt lat="42.96186" lon="-0.97451">
        <ele>1555</ele>
        <time>2024-07-27T08:28:08.060Z</time>
      </trkpt>
      <trkpt lat="42.96152" lon="-0.97393">
        <ele>1554</ele>
        <time>2024-07-27T08:28:58.412Z</time>
      </trkpt>
      <trkpt lat="42.96137" lon="-0.97354">
        <ele>1553</ele>
        <time>2024-07-27T08:29:26.459Z</time>
      </trkpt>
      <trkpt lat="42.9613" lon="-0.97308">
        <ele>1552</ele>
        <time>2024-07-27T08:29:56.880Z</time>
      </trkpt>
      <trkpt lat="42.96128" lon="-0.9727">
        <ele>1550</ele>
        <time>2024-07-27T08:30:20.516Z</time>
      </trkpt>
      <trkpt lat="42.96131" lon="-0.97237">
        <ele>1550</ele>
        <time>2024-07-27T08:30:44.252Z</time>
      </trkpt>
      <trkpt lat="42.96135" lon="-0.97187">
        <ele>1550</ele>
        <time>2024-07-27T08:31:20.288Z</time>
      </trkpt>
      <trkpt lat="42.96142" lon="-0.97168">
        <ele>1551</ele>
        <time>2024-07-27T08:31:38.579Z</time>
      </trkpt>
      <trkpt lat="42.9615" lon="-0.97157">
        <ele>1552</ele>
        <time>2024-07-27T08:31:53.108Z</time>
      </trkpt>
      <trkpt lat="42.96163" lon="-0.97146">
        <ele>1554</ele>
        <time>2024-07-27T08:32:16.464Z</time>
      </trkpt>
      <trkpt lat="42.96176" lon="-0.97136">
        <ele>1555</ele>
        <time>2024-07-27T08:32:34.484Z</time>
      </trkpt>
      <trkpt lat="42.96206" lon="-0.97121">
        <ele>1553</ele>
        <time>2024-07-27T08:33:01.919Z</time>
      </trkpt>
      <trkpt lat="42.96208" lon="-0.9712">
        <ele>1553</ele>
        <time>2024-07-27T08:33:03.872Z</time>
      </trkpt>
      <trkpt lat="42.96193" lon="-0.97049">
        <ele>1554</ele>
        <time>2024-07-27T08:33:59.547Z</time>
      </trkpt>
      <trkpt lat="42.96176" lon="-0.96987">
        <ele>1558</ele>
        <time>2024-07-27T08:35:01.031Z</time>
      </trkpt>
      <trkpt lat="42.96163" lon="-0.96952">
        <ele>1563</ele>
        <time>2024-07-27T08:35:51.884Z</time>
      </trkpt>
      <trkpt lat="42.96165" lon="-0.96936">
        <ele>1564</ele>
        <time>2024-07-27T08:36:06.577Z</time>
      </trkpt>
      <trkpt lat="42.96164" lon="-0.969">
        <ele>1566</ele>
        <time>2024-07-27T08:36:39.149Z</time>
      </trkpt>
      <trkpt lat="42.96157" lon="-0.96856">
        <ele>1568</ele>
        <time>2024-07-27T08:37:18.123Z</time>
      </trkpt>
      <trkpt lat="42.9615" lon="-0.96822">
        <ele>1569</ele>
        <time>2024-07-27T08:37:46.482Z</time>
      </trkpt>
      <trkpt lat="42.96142" lon="-0.96776">
        <ele>1570</ele>
        <time>2024-07-27T08:38:23.098Z</time>
      </trkpt>
      <trkpt lat="42.96138" lon="-0.96749">
        <ele>1571</ele>
        <time>2024-07-27T08:38:46.570Z</time>
      </trkpt>
      <trkpt lat="42.96133" lon="-0.96722">
        <ele>1572</ele>
        <time>2024-07-27T08:39:09.867Z</time>
      </trkpt>
      <trkpt lat="42.96119" lon="-0.96672">
        <ele>1574</ele>
        <time>2024-07-27T08:39:54.236Z</time>
      </trkpt>
      <trkpt lat="42.9611" lon="-0.96627">
        <ele>1576</ele>
        <time>2024-07-27T08:40:34.206Z</time>
      </trkpt>
      <trkpt lat="42.961" lon="-0.96591">
        <ele>1577</ele>
        <time>2024-07-27T08:41:05.275Z</time>
      </trkpt>
      <trkpt lat="42.96091" lon="-0.9657">
        <ele>1579</ele>
        <time>2024-07-27T08:41:29.967Z</time>
      </trkpt>
      <trkpt lat="42.96085" lon="-0.96539">
        <ele>1580</ele>
        <time>2024-07-27T08:41:55.934Z</time>
      </trkpt>
      <trkpt lat="42.96077" lon="-0.96518">
        <ele>1582</ele>
        <time>2024-07-27T08:42:20.637Z</time>
      </trkpt>
      <trkpt lat="42.96071" lon="-0.96495">
        <ele>1584</ele>
        <time>2024-07-27T08:42:45.595Z</time>
      </trkpt>
      <trkpt lat="42.96064" lon="-0.96469">
        <ele>1586</ele>
        <time>2024-07-27T08:43:12.985Z</time>
      </trkpt>
      <trkpt lat="42.96061" lon="-0.96439">
        <ele>1590</ele>
        <time>2024-07-27T08:43:53.246Z</time>
      </trkpt>
      <trkpt lat="42.96069" lon="-0.96413">
        <ele>1595</ele>
        <time>2024-07-27T08:44:40.966Z</time>
      </trkpt>
      <trkpt lat="42.96071" lon="-0.9639">
        <ele>1599</ele>
        <time>2024-07-27T08:45:19.139Z</time>
      </trkpt>
      <trkpt lat="42.96083" lon="-0.96328">
        <ele>1611</ele>
        <time>2024-07-27T08:47:13.755Z</time>
      </trkpt>
      <trkpt lat="42.9609" lon="-0.96249">
        <ele>1627</ele>
        <time>2024-07-27T08:49:47.616Z</time>
      </trkpt>
      <trkpt lat="42.96087" lon="-0.9621">
        <ele>1636</ele>
        <time>2024-07-27T08:51:16.412Z</time>
      </trkpt>
      <trkpt lat="42.96063" lon="-0.96145">
        <ele>1652</ele>
        <time>2024-07-27T08:53:53.287Z</time>
      </trkpt>
      <trkpt lat="42.96063" lon="-0.96122">
        <ele>1656</ele>
        <time>2024-07-27T08:54:31.509Z</time>
      </trkpt>
      <trkpt lat="42.96058" lon="-0.96096">
        <ele>1661</ele>
        <time>2024-07-27T08:55:19.370Z</time>
      </trkpt>
      <trkpt lat="42.96052" lon="-0.96082">
        <ele>1665</ele>
        <time>2024-07-27T08:55:59.746Z</time>
      </trkpt>
      <trkpt lat="42.96041" lon="-0.96067">
        <ele>1670</ele>
        <time>2024-07-27T08:56:48.987Z</time>
      </trkpt>
      <trkpt lat="42.96035" lon="-0.96034">
        <ele>1678</ele>
        <time>2024-07-27T08:58:08.756Z</time>
      </trkpt>
      <trkpt lat="42.96036" lon="-0.96028">
        <ele>1679</ele>
        <time>2024-07-27T08:58:18.306Z</time>
      </trkpt>
      <trkpt lat="42.96029" lon="-0.9601">
        <ele>1683</ele>
        <time>2024-07-27T08:58:56.649Z</time>
      </trkpt>
      <trkpt lat="42.96033" lon="-0.96001">
        <ele>1685</ele>
        <time>2024-07-27T08:59:15.743Z</time>
      </trkpt>
      <trkpt lat="42.96033" lon="-0.95991">
        <ele>1687</ele>
        <time>2024-07-27T08:59:34.990Z</time>
      </trkpt>
      <trkpt lat="42.96028" lon="-0.95972">
        <ele>1691</ele>
        <time>2024-07-27T09:00:13.235Z</time>
      </trkpt>
      <trkpt lat="42.96007" lon="-0.95933">
        <ele>1699</ele>
        <time>2024-07-27T09:01:29.853Z</time>
      </trkpt>
      <trkpt lat="42.96009" lon="-0.95914">
        <ele>1702</ele>
        <time>2024-07-27T09:01:58.732Z</time>
      </trkpt>
      <trkpt lat="42.96004" lon="-0.95889">
        <ele>1706</ele>
        <time>2024-07-27T09:02:37.441Z</time>
      </trkpt>
      <trkpt lat="42.96007" lon="-0.95861">
        <ele>1709</ele>
        <time>2024-07-27T09:03:10.038Z</time>
      </trkpt>
      <trkpt lat="42.96005" lon="-0.95829">
        <ele>1713</ele>
        <time>2024-07-27T09:03:51.178Z</time>
      </trkpt>
      <trkpt lat="42.95991" lon="-0.95757">
        <ele>1722</ele>
        <time>2024-07-27T09:05:24.105Z</time>
      </trkpt>
      <trkpt lat="42.95989" lon="-0.95737">
        <ele>1723</ele>
        <time>2024-07-27T09:05:41.960Z</time>
      </trkpt>
      <trkpt lat="42.95973" lon="-0.95703">
        <ele>1724</ele>
        <time>2024-07-27T09:06:13.510Z</time>
      </trkpt>
      <trkpt lat="42.95933" lon="-0.95633">
        <ele>1725</ele>
        <time>2024-07-27T09:07:19.911Z</time>
      </trkpt>
      <trkpt lat="42.95888" lon="-0.95507">
        <ele>1714</ele>
        <time>2024-07-27T09:08:47.125Z</time>
      </trkpt>
      <trkpt lat="42.95866" lon="-0.95441">
        <ele>1700</ele>
        <time>2024-07-27T09:09:32.607Z</time>
      </trkpt>
      <trkpt lat="42.95804" lon="-0.95333">
        <ele>1672</ele>
        <time>2024-07-27T09:10:57.789Z</time>
      </trkpt>
      <trkpt lat="42.95753" lon="-0.95208">
        <ele>1658</ele>
        <time>2024-07-27T09:12:26.830Z</time>
      </trkpt>
      <trkpt lat="42.95652" lon="-0.95038">
        <ele>1649</ele>
        <time>2024-07-27T09:14:42.731Z</time>
      </trkpt>
      <trkpt lat="42.95577" lon="-0.94934">
        <ele>1648</ele>
        <time>2024-07-27T09:16:23.636Z</time>
      </trkpt>
      <trkpt lat="42.9557" lon="-0.94921">
        <ele>1648</ele>
        <time>2024-07-27T09:16:34.652Z</time>
      </trkpt>
      <trkpt lat="42.95563" lon="-0.94903">
        <ele>1649</ele>
        <time>2024-07-27T09:16:53.256Z</time>
      </trkpt>
      <trkpt lat="42.95553" lon="-0.94876">
        <ele>1648</ele>
        <time>2024-07-27T09:17:11.825Z</time>
      </trkpt>
      <trkpt lat="42.95552" lon="-0.94871">
        <ele>1648</ele>
        <time>2024-07-27T09:17:15.638Z</time>
      </trkpt>
      <trkpt lat="42.95542" lon="-0.94842">
        <ele>1648</ele>
        <time>2024-07-27T09:17:38.154Z</time>
      </trkpt>
      <trkpt lat="42.95536" lon="-0.94816">
        <ele>1648</ele>
        <time>2024-07-27T09:17:57.672Z</time>
      </trkpt>
      <trkpt lat="42.95532" lon="-0.94806">
        <ele>1648</ele>
        <time>2024-07-27T09:18:05.602Z</time>
      </trkpt>
      <trkpt lat="42.95526" lon="-0.94794">
        <ele>1648</ele>
        <time>2024-07-27T09:18:16.237Z</time>
      </trkpt>
      <trkpt lat="42.95517" lon="-0.94771">
        <ele>1650</ele>
        <time>2024-07-27T09:18:42.659Z</time>
      </trkpt>
      <trkpt lat="42.9551" lon="-0.94756">
        <ele>1650</ele>
        <time>2024-07-27T09:18:55.113Z</time>
      </trkpt>
      <trkpt lat="42.95504" lon="-0.9474">
        <ele>1651</ele>
        <time>2024-07-27T09:19:11.528Z</time>
      </trkpt>
      <trkpt lat="42.95489" lon="-0.94701">
        <ele>1654</ele>
        <time>2024-07-27T09:19:53.778Z</time>
      </trkpt>
      <trkpt lat="42.95487" lon="-0.94696">
        <ele>1655</ele>
        <time>2024-07-27T09:20:03.359Z</time>
      </trkpt>
      <trkpt lat="42.95477" lon="-0.94663">
        <ele>1657</ele>
        <time>2024-07-27T09:20:35.926Z</time>
      </trkpt>
      <trkpt lat="42.95455" lon="-0.94649">
        <ele>1663</ele>
        <time>2024-07-27T09:21:33.198Z</time>
      </trkpt>
      <trkpt lat="42.95432" lon="-0.94641">
        <ele>1668</ele>
        <time>2024-07-27T09:22:21.547Z</time>
      </trkpt>
      <trkpt lat="42.95417" lon="-0.94627">
        <ele>1672</ele>
        <time>2024-07-27T09:23:00.191Z</time>
      </trkpt>
      <trkpt lat="42.95401" lon="-0.94611">
        <ele>1676</ele>
        <time>2024-07-27T09:23:39.129Z</time>
      </trkpt>
      <trkpt lat="42.95388" lon="-0.94593">
        <ele>1682</ele>
        <time>2024-07-27T09:24:39.702Z</time>
      </trkpt>
      <trkpt lat="42.95378" lon="-0.94578">
        <ele>1686</ele>
        <time>2024-07-27T09:25:18.051Z</time>
      </trkpt>
      <trkpt lat="42.95367" lon="-0.94563">
        <ele>1691</ele>
        <time>2024-07-27T09:26:08.135Z</time>
      </trkpt>
      <trkpt lat="42.95356" lon="-0.94541">
        <ele>1695</ele>
        <time>2024-07-27T09:26:46.899Z</time>
      </trkpt>
      <trkpt lat="42.95342" lon="-0.94508">
        <ele>1701</ele>
        <time>2024-07-27T09:27:44.731Z</time>
      </trkpt>
      <trkpt lat="42.95339" lon="-0.94463">
        <ele>1706</ele>
        <time>2024-07-27T09:28:38.365Z</time>
      </trkpt>
      <trkpt lat="42.95339" lon="-0.94413">
        <ele>1712</ele>
        <time>2024-07-27T09:29:40.686Z</time>
      </trkpt>
      <trkpt lat="42.95336" lon="-0.94376">
        <ele>1717</ele>
        <time>2024-07-27T09:30:30.575Z</time>
      </trkpt>
      <trkpt lat="42.95334" lon="-0.94343">
        <ele>1721</ele>
        <time>2024-07-27T09:31:12.096Z</time>
      </trkpt>
      <trkpt lat="42.95336" lon="-0.94315">
        <ele>1723</ele>
        <time>2024-07-27T09:31:39.390Z</time>
      </trkpt>
      <trkpt lat="42.95342" lon="-0.94294">
        <ele>1725</ele>
        <time>2024-07-27T09:32:03.391Z</time>
      </trkpt>
      <trkpt lat="42.95347" lon="-0.94266">
        <ele>1727</ele>
        <time>2024-07-27T09:32:31.735Z</time>
      </trkpt>
      <trkpt lat="42.95352" lon="-0.94228">
        <ele>1728</ele>
        <time>2024-07-27T09:33:02.161Z</time>
      </trkpt>
      <trkpt lat="42.95358" lon="-0.94206">
        <ele>1730</ele>
        <time>2024-07-27T09:33:27.089Z</time>
      </trkpt>
      <trkpt lat="42.95364" lon="-0.94175">
        <ele>1735</ele>
        <time>2024-07-27T09:34:15.244Z</time>
      </trkpt>
      <trkpt lat="42.95369" lon="-0.94117">
        <ele>1744</ele>
        <time>2024-07-27T09:35:42.150Z</time>
      </trkpt>
      <trkpt lat="42.95378" lon="-0.9404">
        <ele>1750</ele>
        <time>2024-07-27T09:37:00.630Z</time>
      </trkpt>
      <trkpt lat="42.9538" lon="-0.94009">
        <ele>1750</ele>
        <time>2024-07-27T09:37:23.098Z</time>
      </trkpt>
      <trkpt lat="42.95392" lon="-0.93964">
        <ele>1750</ele>
        <time>2024-07-27T09:37:56.823Z</time>
      </trkpt>
      <trkpt lat="42.95403" lon="-0.93923">
        <ele>1746</ele>
        <time>2024-07-27T09:38:23.942Z</time>
      </trkpt>
      <trkpt lat="42.9541" lon="-0.93879">
        <ele>1742</ele>
        <time>2024-07-27T09:38:51.883Z</time>
      </trkpt>
      <trkpt lat="42.95413" lon="-0.93854">
        <ele>1741</ele>
        <time>2024-07-27T09:39:07.654Z</time>
      </trkpt>
      <trkpt lat="42.95416" lon="-0.93843">
        <ele>1740</ele>
        <time>2024-07-27T09:39:14.934Z</time>
      </trkpt>
      <trkpt lat="42.95422" lon="-0.93834">
        <ele>1739</ele>
        <time>2024-07-27T09:39:22.451Z</time>
      </trkpt>
      <trkpt lat="42.95428" lon="-0.93818">
        <ele>1738</ele>
        <time>2024-07-27T09:39:33.931Z</time>
      </trkpt>
      <trkpt lat="42.95434" lon="-0.93797">
        <ele>1738</ele>
        <time>2024-07-27T09:39:50.356Z</time>
      </trkpt>
      <trkpt lat="42.95436" lon="-0.93732">
        <ele>1742</ele>
        <time>2024-07-27T09:40:50.818Z</time>
      </trkpt>
      <trkpt lat="42.95451" lon="-0.93673">
        <ele>1744</ele>
        <time>2024-07-27T09:41:42.144Z</time>
      </trkpt>
      <trkpt lat="42.95478" lon="-0.93607">
        <ele>1749</ele>
        <time>2024-07-27T09:42:54.032Z</time>
      </trkpt>
      <trkpt lat="42.95509" lon="-0.93559">
        <ele>1751</ele>
        <time>2024-07-27T09:43:46.713Z</time>
      </trkpt>
      <trkpt lat="42.95556" lon="-0.93487">
        <ele>1752</ele>
        <time>2024-07-27T09:44:58.078Z</time>
      </trkpt>
      <trkpt lat="42.95569" lon="-0.93479">
        <ele>1750</ele>
        <time>2024-07-27T09:45:10.377Z</time>
      </trkpt>
      <trkpt lat="42.95586" lon="-0.93474">
        <ele>1748</ele>
        <time>2024-07-27T09:45:25.179Z</time>
      </trkpt>
      <trkpt lat="42.956" lon="-0.93465">
        <ele>1747</ele>
        <time>2024-07-27T09:45:38.176Z</time>
      </trkpt>
      <trkpt lat="42.956" lon="-0.93456">
        <ele>1745</ele>
        <time>2024-07-27T09:45:43.775Z</time>
      </trkpt>
      <trkpt lat="42.95574" lon="-0.93442">
        <ele>1743</ele>
        <time>2024-07-27T09:46:07.835Z</time>
      </trkpt>
      <trkpt lat="42.95552" lon="-0.93427">
        <ele>1743</ele>
        <time>2024-07-27T09:46:31.555Z</time>
      </trkpt>
      <trkpt lat="42.9553" lon="-0.93398">
        <ele>1744</ele>
        <time>2024-07-27T09:47:04.599Z</time>
      </trkpt>
      <trkpt lat="42.95521" lon="-0.93378">
        <ele>1744</ele>
        <time>2024-07-27T09:47:20.980Z</time>
      </trkpt>
      <trkpt lat="42.95513" lon="-0.93357">
        <ele>1745</ele>
        <time>2024-07-27T09:47:41.419Z</time>
      </trkpt>
      <trkpt lat="42.95513" lon="-0.93341">
        <ele>1744</ele>
        <time>2024-07-27T09:47:50.956Z</time>
      </trkpt>
      <trkpt lat="42.95511" lon="-0.93297">
        <ele>1744</ele>
        <time>2024-07-27T09:48:22.293Z</time>
      </trkpt>
      <trkpt lat="42.95516" lon="-0.9324">
        <ele>1746</ele>
        <time>2024-07-27T09:49:10.128Z</time>
      </trkpt>
      <trkpt lat="42.9552" lon="-0.93219">
        <ele>1746</ele>
        <time>2024-07-27T09:49:25.349Z</time>
      </trkpt>
      <trkpt lat="42.95525" lon="-0.93202">
        <ele>1744</ele>
        <time>2024-07-27T09:49:36.844Z</time>
      </trkpt>
      <trkpt lat="42.95538" lon="-0.9312">
        <ele>1744</ele>
        <time>2024-07-27T09:50:36.255Z</time>
      </trkpt>
      <trkpt lat="42.95546" lon="-0.93075">
        <ele>1742</ele>
        <time>2024-07-27T09:51:05.043Z</time>
      </trkpt>
      <trkpt lat="42.95547" lon="-0.93051">
        <ele>1743</ele>
        <time>2024-07-27T09:51:25.681Z</time>
      </trkpt>
      <trkpt lat="42.95553" lon="-0.93019">
        <ele>1742</ele>
        <time>2024-07-27T09:51:46.675Z</time>
      </trkpt>
      <trkpt lat="42.95555" lon="-0.93012">
        <ele>1740</ele>
        <time>2024-07-27T09:51:51.708Z</time>
      </trkpt>
      <trkpt lat="42.95556" lon="-0.92993">
        <ele>1741</ele>
        <time>2024-07-27T09:52:08.613Z</time>
      </trkpt>
      <trkpt lat="42.95569" lon="-0.92915">
        <ele>1738</ele>
        <time>2024-07-27T09:52:58.537Z</time>
      </trkpt>
      <trkpt lat="42.95585" lon="-0.92859">
        <ele>1735</ele>
        <time>2024-07-27T09:53:35.641Z</time>
      </trkpt>
      <trkpt lat="42.95588" lon="-0.92845">
        <ele>1735</ele>
        <time>2024-07-27T09:53:46.369Z</time>
      </trkpt>
      <trkpt lat="42.95597" lon="-0.9282">
        <ele>1735</ele>
        <time>2024-07-27T09:54:05.756Z</time>
      </trkpt>
      <trkpt lat="42.95609" lon="-0.92801">
        <ele>1735</ele>
        <time>2024-07-27T09:54:23.101Z</time>
      </trkpt>
      <trkpt lat="42.95618" lon="-0.92791">
        <ele>1734</ele>
        <time>2024-07-27T09:54:33.055Z</time>
      </trkpt>
      <trkpt lat="42.95638" lon="-0.92761">
        <ele>1733</ele>
        <time>2024-07-27T09:54:59.524Z</time>
      </trkpt>
      <trkpt lat="42.95645" lon="-0.92743">
        <ele>1734</ele>
        <time>2024-07-27T09:55:17.324Z</time>
      </trkpt>
      <trkpt lat="42.95651" lon="-0.92734">
        <ele>1734</ele>
        <time>2024-07-27T09:55:25.915Z</time>
      </trkpt>
      <trkpt lat="42.95664" lon="-0.92703">
        <ele>1737</ele>
        <time>2024-07-27T09:56:03.400Z</time>
      </trkpt>
      <trkpt lat="42.95674" lon="-0.92685">
        <ele>1739</ele>
        <time>2024-07-27T09:56:27.666Z</time>
      </trkpt>
      <trkpt lat="42.95692" lon="-0.92663">
        <ele>1740</ele>
        <time>2024-07-27T09:56:53.910Z</time>
      </trkpt>
      <trkpt lat="42.9571" lon="-0.92645">
        <ele>1742</ele>
        <time>2024-07-27T09:57:22.782Z</time>
      </trkpt>
      <trkpt lat="42.95722" lon="-0.92636">
        <ele>1743</ele>
        <time>2024-07-27T09:57:39.448Z</time>
      </trkpt>
      <trkpt lat="42.95743" lon="-0.9262">
        <ele>1747</ele>
        <time>2024-07-27T09:58:20.806Z</time>
      </trkpt>
      <trkpt lat="42.95755" lon="-0.92618">
        <ele>1747</ele>
        <time>2024-07-27T09:58:32.332Z</time>
      </trkpt>
      <trkpt lat="42.95767" lon="-0.92616">
        <ele>1748</ele>
        <time>2024-07-27T09:58:48.207Z</time>
      </trkpt>
      <trkpt lat="42.95778" lon="-0.92617">
        <ele>1747</ele>
        <time>2024-07-27T09:58:57.194Z</time>
      </trkpt>
      <trkpt lat="42.95781" lon="-0.92616">
        <ele>1747</ele>
        <time>2024-07-27T09:59:01.036Z</time>
      </trkpt>
      <trkpt lat="42.95797" lon="-0.92617">
        <ele>1746</ele>
        <time>2024-07-27T09:59:13.968Z</time>
      </trkpt>
      <trkpt lat="42.95806" lon="-0.92616">
        <ele>1746</ele>
        <time>2024-07-27T09:59:22.986Z</time>
      </trkpt>
      <trkpt lat="42.95816" lon="-0.92617">
        <ele>1745</ele>
        <time>2024-07-27T09:59:31.383Z</time>
      </trkpt>
      <trkpt lat="42.95823" lon="-0.92622">
        <ele>1744</ele>
        <time>2024-07-27T09:59:38.165Z</time>
      </trkpt>
      <trkpt lat="42.95832" lon="-0.92628">
        <ele>1741</ele>
        <time>2024-07-27T09:59:46.459Z</time>
      </trkpt>
      <trkpt lat="42.95844" lon="-0.92625">
        <ele>1742</ele>
        <time>2024-07-27T10:00:02.326Z</time>
      </trkpt>
      <trkpt lat="42.95881" lon="-0.92616">
        <ele>1742</ele>
        <time>2024-07-27T10:00:39.217Z</time>
      </trkpt>
      <trkpt lat="42.95904" lon="-0.92617">
        <ele>1740</ele>
        <time>2024-07-27T10:00:58.775Z</time>
      </trkpt>
      <trkpt lat="42.95916" lon="-0.92613">
        <ele>1741</ele>
        <time>2024-07-27T10:01:14.279Z</time>
      </trkpt>
      <trkpt lat="42.95929" lon="-0.92612">
        <ele>1741</ele>
        <time>2024-07-27T10:01:27.118Z</time>
      </trkpt>
      <trkpt lat="42.95949" lon="-0.92616">
        <ele>1739</ele>
        <time>2024-07-27T10:01:44.020Z</time>
      </trkpt>
      <trkpt lat="42.95958" lon="-0.92615">
        <ele>1740</ele>
        <time>2024-07-27T10:01:56.327Z</time>
      </trkpt>
      <trkpt lat="42.95982" lon="-0.92618">
        <ele>1740</ele>
        <time>2024-07-27T10:02:20.078Z</time>
      </trkpt>
      <trkpt lat="42.95992" lon="-0.92618">
        <ele>1740</ele>
        <time>2024-07-27T10:02:29.695Z</time>
      </trkpt>
      <trkpt lat="42.96044" lon="-0.9263">
        <ele>1735</ele>
        <time>2024-07-27T10:03:14.395Z</time>
      </trkpt>
      <trkpt lat="42.96081" lon="-0.92629">
        <ele>1725</ele>
        <time>2024-07-27T10:03:46.190Z</time>
      </trkpt>
      <trkpt lat="42.96095" lon="-0.92622">
        <ele>1719</ele>
        <time>2024-07-27T10:03:58.847Z</time>
      </trkpt>
      <trkpt lat="42.961" lon="-0.92612">
        <ele>1716</ele>
        <time>2024-07-27T10:04:06.377Z</time>
      </trkpt>
      <trkpt lat="42.96102" lon="-0.92605">
        <ele>1713</ele>
        <time>2024-07-27T10:04:11.167Z</time>
      </trkpt>
      <trkpt lat="42.96104" lon="-0.92592">
        <ele>1709</ele>
        <time>2024-07-27T10:04:19.082Z</time>
      </trkpt>
      <trkpt lat="42.96102" lon="-0.9258">
        <ele>1707</ele>
        <time>2024-07-27T10:04:26.556Z</time>
      </trkpt>
      <trkpt lat="42.96103" lon="-0.92576">
        <ele>1705</ele>
        <time>2024-07-27T10:04:29.540Z</time>
      </trkpt>
      <trkpt lat="42.96104" lon="-0.92571">
        <ele>1703</ele>
        <time>2024-07-27T10:04:32.578Z</time>
      </trkpt>
      <trkpt lat="42.96102" lon="-0.92568">
        <ele>1702</ele>
        <time>2024-07-27T10:04:35.239Z</time>
      </trkpt>
      <trkpt lat="42.961" lon="-0.92564">
        <ele>1702</ele>
        <time>2024-07-27T10:04:38.509Z</time>
      </trkpt>
      <trkpt lat="42.96101" lon="-0.92561">
        <ele>1701</ele>
        <time>2024-07-27T10:04:40.826Z</time>
      </trkpt>
      <trkpt lat="42.96099" lon="-0.92553">
        <ele>1699</ele>
        <time>2024-07-27T10:04:46.085Z</time>
      </trkpt>
      <trkpt lat="42.96097" lon="-0.92544">
        <ele>1697</ele>
        <time>2024-07-27T10:04:51.461Z</time>
      </trkpt>
      <trkpt lat="42.96098" lon="-0.92534">
        <ele>1694</ele>
        <time>2024-07-27T10:04:58.208Z</time>
      </trkpt>
      <trkpt lat="42.96092" lon="-0.92513">
        <ele>1691</ele>
        <time>2024-07-27T10:05:12.026Z</time>
      </trkpt>
      <trkpt lat="42.96088" lon="-0.92486">
        <ele>1688</ele>
        <time>2024-07-27T10:05:29.210Z</time>
      </trkpt>
      <trkpt lat="42.9609" lon="-0.92461">
        <ele>1683</ele>
        <time>2024-07-27T10:05:45.101Z</time>
      </trkpt>
      <trkpt lat="42.96092" lon="-0.92437">
        <ele>1680</ele>
        <time>2024-07-27T10:06:00.140Z</time>
      </trkpt>
      <trkpt lat="42.9609" lon="-0.92424">
        <ele>1679</ele>
        <time>2024-07-27T10:06:08.067Z</time>
      </trkpt>
      <trkpt lat="42.96088" lon="-0.92412">
        <ele>1680</ele>
        <time>2024-07-27T10:06:20.641Z</time>
      </trkpt>
      <trkpt lat="42.96088" lon="-0.92401">
        <ele>1679</ele>
        <time>2024-07-27T10:06:27.857Z</time>
      </trkpt>
      <trkpt lat="42.96087" lon="-0.92382">
        <ele>1678</ele>
        <time>2024-07-27T10:06:39.690Z</time>
      </trkpt>
      <trkpt lat="42.96085" lon="-0.92369">
        <ele>1678</ele>
        <time>2024-07-27T10:06:48.836Z</time>
      </trkpt>
      <trkpt lat="42.96089" lon="-0.92351">
        <ele>1677</ele>
        <time>2024-07-27T10:07:00.955Z</time>
      </trkpt>
      <trkpt lat="42.96088" lon="-0.92335">
        <ele>1677</ele>
        <time>2024-07-27T10:07:11.916Z</time>
      </trkpt>
      <trkpt lat="42.96089" lon="-0.92322">
        <ele>1677</ele>
        <time>2024-07-27T10:07:21.608Z</time>
      </trkpt>
      <trkpt lat="42.96096" lon="-0.92301">
        <ele>1674</ele>
        <time>2024-07-27T10:07:35.808Z</time>
      </trkpt>
      <trkpt lat="42.96095" lon="-0.92274">
        <ele>1675</ele>
        <time>2024-07-27T10:07:58.360Z</time>
      </trkpt>
      <trkpt lat="42.96106" lon="-0.92248">
        <ele>1670</ele>
        <time>2024-07-27T10:08:16.832Z</time>
      </trkpt>
      <trkpt lat="42.96108" lon="-0.92236">
        <ele>1669</ele>
        <time>2024-07-27T10:08:24.438Z</time>
      </trkpt>
      <trkpt lat="42.96112" lon="-0.92225">
        <ele>1666</ele>
        <time>2024-07-27T10:08:32.378Z</time>
      </trkpt>
      <trkpt lat="42.96112" lon="-0.92208">
        <ele>1666</ele>
        <time>2024-07-27T10:08:44.606Z</time>
      </trkpt>
      <trkpt lat="42.96113" lon="-0.92204">
        <ele>1665</ele>
        <time>2024-07-27T10:08:47.047Z</time>
      </trkpt>
      <trkpt lat="42.96115" lon="-0.92195">
        <ele>1664</ele>
        <time>2024-07-27T10:08:52.771Z</time>
      </trkpt>
      <trkpt lat="42.96112" lon="-0.92186">
        <ele>1666</ele>
        <time>2024-07-27T10:09:11.974Z</time>
      </trkpt>
      <trkpt lat="42.96115" lon="-0.9217">
        <ele>1664</ele>
        <time>2024-07-27T10:09:22.434Z</time>
      </trkpt>
      <trkpt lat="42.96113" lon="-0.92156">
        <ele>1666</ele>
        <time>2024-07-27T10:09:42.270Z</time>
      </trkpt>
      <trkpt lat="42.96115" lon="-0.92147">
        <ele>1664</ele>
        <time>2024-07-27T10:09:47.587Z</time>
      </trkpt>
      <trkpt lat="42.96113" lon="-0.92138">
        <ele>1666</ele>
        <time>2024-07-27T10:10:06.748Z</time>
      </trkpt>
      <trkpt lat="42.96116" lon="-0.92124">
        <ele>1664</ele>
        <time>2024-07-27T10:10:15.543Z</time>
      </trkpt>
      <trkpt lat="42.96119" lon="-0.92105">
        <ele>1663</ele>
        <time>2024-07-27T10:10:27.505Z</time>
      </trkpt>
      <trkpt lat="42.96119" lon="-0.9209">
        <ele>1663</ele>
        <time>2024-07-27T10:10:38.403Z</time>
      </trkpt>
      <trkpt lat="42.96116" lon="-0.92069">
        <ele>1665</ele>
        <time>2024-07-27T10:11:01.575Z</time>
      </trkpt>
      <trkpt lat="42.96123" lon="-0.92041">
        <ele>1661</ele>
        <time>2024-07-27T10:11:20.447Z</time>
      </trkpt>
      <trkpt lat="42.96125" lon="-0.92012">
        <ele>1660</ele>
        <time>2024-07-27T10:11:38.442Z</time>
      </trkpt>
      <trkpt lat="42.96125" lon="-0.91996">
        <ele>1660</ele>
        <time>2024-07-27T10:11:49.340Z</time>
      </trkpt>
      <trkpt lat="42.96117" lon="-0.91961">
        <ele>1666</ele>
        <time>2024-07-27T10:12:46.870Z</time>
      </trkpt>
      <trkpt lat="42.9612" lon="-0.91949">
        <ele>1665</ele>
        <time>2024-07-27T10:12:55.224Z</time>
      </trkpt>
      <trkpt lat="42.96119" lon="-0.91928">
        <ele>1667</ele>
        <time>2024-07-27T10:13:18.069Z</time>
      </trkpt>
      <trkpt lat="42.96126" lon="-0.91888">
        <ele>1665</ele>
        <time>2024-07-27T10:13:43.818Z</time>
      </trkpt>
      <trkpt lat="42.96128" lon="-0.91878">
        <ele>1665</ele>
        <time>2024-07-27T10:13:51.094Z</time>
      </trkpt>
      <trkpt lat="42.96133" lon="-0.9185">
        <ele>1664</ele>
        <time>2024-07-27T10:14:08.822Z</time>
      </trkpt>
      <trkpt lat="42.96131" lon="-0.91821">
        <ele>1665</ele>
        <time>2024-07-27T10:14:32.659Z</time>
      </trkpt>
      <trkpt lat="42.96136" lon="-0.91799">
        <ele>1664</ele>
        <time>2024-07-27T10:14:47.130Z</time>
      </trkpt>
      <trkpt lat="42.96146" lon="-0.91759">
        <ele>1662</ele>
        <time>2024-07-27T10:15:13.160Z</time>
      </trkpt>
      <trkpt lat="42.96152" lon="-0.91715">
        <ele>1662</ele>
        <time>2024-07-27T10:15:45.070Z</time>
      </trkpt>
      <trkpt lat="42.96155" lon="-0.91679">
        <ele>1664</ele>
        <time>2024-07-27T10:16:17.832Z</time>
      </trkpt>
      <trkpt lat="42.96154" lon="-0.91677">
        <ele>1664</ele>
        <time>2024-07-27T10:16:20.129Z</time>
      </trkpt>
      <trkpt lat="42.96148" lon="-0.91657">
        <ele>1662</ele>
        <time>2024-07-27T10:16:33.517Z</time>
      </trkpt>
      <trkpt lat="42.96146" lon="-0.91645">
        <ele>1661</ele>
        <time>2024-07-27T10:16:40.817Z</time>
      </trkpt>
      <trkpt lat="42.96148" lon="-0.91635">
        <ele>1661</ele>
        <time>2024-07-27T10:16:47.897Z</time>
      </trkpt>
      <trkpt lat="42.9615" lon="-0.91623">
        <ele>1662</ele>
        <time>2024-07-27T10:17:00.888Z</time>
      </trkpt>
      <trkpt lat="42.96154" lon="-0.91605">
        <ele>1663</ele>
        <time>2024-07-27T10:17:17.788Z</time>
      </trkpt>
      <trkpt lat="42.96152" lon="-0.91558">
        <ele>1658</ele>
        <time>2024-07-27T10:17:46.886Z</time>
      </trkpt>
      <trkpt lat="42.96155" lon="-0.91532">
        <ele>1657</ele>
        <time>2024-07-27T10:18:03.362Z</time>
      </trkpt>
      <trkpt lat="42.96153" lon="-0.91496">
        <ele>1654</ele>
        <time>2024-07-27T10:18:25.757Z</time>
      </trkpt>
      <trkpt lat="42.96154" lon="-0.91483">
        <ele>1654</ele>
        <time>2024-07-27T10:18:35.378Z</time>
      </trkpt>
      <trkpt lat="42.9616" lon="-0.91463">
        <ele>1656</ele>
        <time>2024-07-27T10:18:58.609Z</time>
      </trkpt>
      <trkpt lat="42.96159" lon="-0.91438">
        <ele>1655</ele>
        <time>2024-07-27T10:19:14.295Z</time>
      </trkpt>
      <trkpt lat="42.96161" lon="-0.91421">
        <ele>1655</ele>
        <time>2024-07-27T10:19:26.641Z</time>
      </trkpt>
      <trkpt lat="42.96163" lon="-0.91407">
        <ele>1654</ele>
        <time>2024-07-27T10:19:35.270Z</time>
      </trkpt>
      <trkpt lat="42.96167" lon="-0.91365">
        <ele>1650</ele>
        <time>2024-07-27T10:20:01.728Z</time>
      </trkpt>
      <trkpt lat="42.96166" lon="-0.91341">
        <ele>1648</ele>
        <time>2024-07-27T10:20:16.754Z</time>
      </trkpt>
      <trkpt lat="42.96161" lon="-0.9132">
        <ele>1645</ele>
        <time>2024-07-27T10:20:30.235Z</time>
      </trkpt>
      <trkpt lat="42.96154" lon="-0.91298">
        <ele>1643</ele>
        <time>2024-07-27T10:20:45.510Z</time>
      </trkpt>
      <trkpt lat="42.96149" lon="-0.9128">
        <ele>1641</ele>
        <time>2024-07-27T10:20:57.548Z</time>
      </trkpt>
      <trkpt lat="42.96148" lon="-0.91267">
        <ele>1641</ele>
        <time>2024-07-27T10:21:06.531Z</time>
      </trkpt>
      <trkpt lat="42.9615" lon="-0.91253">
        <ele>1640</ele>
        <time>2024-07-27T10:21:15.556Z</time>
      </trkpt>
      <trkpt lat="42.96155" lon="-0.91238">
        <ele>1639</ele>
        <time>2024-07-27T10:21:25.526Z</time>
      </trkpt>
      <trkpt lat="42.9616" lon="-0.9122">
        <ele>1638</ele>
        <time>2024-07-27T10:21:37.595Z</time>
      </trkpt>
      <trkpt lat="42.9616" lon="-0.91201">
        <ele>1638</ele>
        <time>2024-07-27T10:21:51.616Z</time>
      </trkpt>
      <trkpt lat="42.96163" lon="-0.91186">
        <ele>1638</ele>
        <time>2024-07-27T10:22:02.598Z</time>
      </trkpt>
      <trkpt lat="42.96166" lon="-0.91182">
        <ele>1638</ele>
        <time>2024-07-27T10:22:06.680Z</time>
      </trkpt>
      <trkpt lat="42.96175" lon="-0.91167">
        <ele>1641</ele>
        <time>2024-07-27T10:22:35.477Z</time>
      </trkpt>
      <trkpt lat="42.96182" lon="-0.91161">
        <ele>1644</ele>
        <time>2024-07-27T10:23:06.475Z</time>
      </trkpt>
      <trkpt lat="42.96186" lon="-0.91157">
        <ele>1645</ele>
        <time>2024-07-27T10:23:16.158Z</time>
      </trkpt>
      <trkpt lat="42.9619" lon="-0.91153">
        <ele>1647</ele>
        <time>2024-07-27T10:23:38.015Z</time>
      </trkpt>
      <trkpt lat="42.9619" lon="-0.91148">
        <ele>1647</ele>
        <time>2024-07-27T10:23:41.925Z</time>
      </trkpt>
      <trkpt lat="42.96186" lon="-0.91142">
        <ele>1647</ele>
        <time>2024-07-27T10:23:47.318Z</time>
      </trkpt>
      <trkpt lat="42.96182" lon="-0.91132">
        <ele>1647</ele>
        <time>2024-07-27T10:23:55.295Z</time>
      </trkpt>
      <trkpt lat="42.96175" lon="-0.91089">
        <ele>1650</ele>
        <time>2024-07-27T10:24:37.715Z</time>
      </trkpt>
      <trkpt lat="42.96173" lon="-0.91031">
        <ele>1654</ele>
        <time>2024-07-27T10:25:34.110Z</time>
      </trkpt>
      <trkpt lat="42.96175" lon="-0.9099">
        <ele>1661</ele>
        <time>2024-07-27T10:26:40.969Z</time>
      </trkpt>
      <trkpt lat="42.96167" lon="-0.90931">
        <ele>1662</ele>
        <time>2024-07-27T10:27:27.068Z</time>
      </trkpt>
      <trkpt lat="42.9616" lon="-0.90874">
        <ele>1661</ele>
        <time>2024-07-27T10:28:05.693Z</time>
      </trkpt>
      <trkpt lat="42.96158" lon="-0.90847">
        <ele>1660</ele>
        <time>2024-07-27T10:28:22.405Z</time>
      </trkpt>
      <trkpt lat="42.9616" lon="-0.90828">
        <ele>1661</ele>
        <time>2024-07-27T10:28:39.431Z</time>
      </trkpt>
      <trkpt lat="42.96156" lon="-0.90804">
        <ele>1658</ele>
        <time>2024-07-27T10:28:54.804Z</time>
      </trkpt>
      <trkpt lat="42.96159" lon="-0.90783">
        <ele>1659</ele>
        <time>2024-07-27T10:29:13.131Z</time>
      </trkpt>
      <trkpt lat="42.96167" lon="-0.90744">
        <ele>1662</ele>
        <time>2024-07-27T10:29:53.204Z</time>
      </trkpt>
      <trkpt lat="42.96176" lon="-0.90724">
        <ele>1667</ele>
        <time>2024-07-27T10:30:41.677Z</time>
      </trkpt>
      <trkpt lat="42.96179" lon="-0.90708">
        <ele>1668</ele>
        <time>2024-07-27T10:30:56.494Z</time>
      </trkpt>
      <trkpt lat="42.96179" lon="-0.90685">
        <ele>1669</ele>
        <time>2024-07-27T10:31:16.483Z</time>
      </trkpt>
      <trkpt lat="42.96184" lon="-0.90674">
        <ele>1673</ele>
        <time>2024-07-27T10:32:01.442Z</time>
      </trkpt>
      <trkpt lat="42.96185" lon="-0.90663">
        <ele>1675</ele>
        <time>2024-07-27T10:32:20.541Z</time>
      </trkpt>
      <trkpt lat="42.96183" lon="-0.90654">
        <ele>1674</ele>
        <time>2024-07-27T10:32:26.368Z</time>
      </trkpt>
      <trkpt lat="42.96178" lon="-0.90646">
        <ele>1672</ele>
        <time>2024-07-27T10:32:33.127Z</time>
      </trkpt>
      <trkpt lat="42.96171" lon="-0.90619">
        <ele>1669</ele>
        <time>2024-07-27T10:32:50.973Z</time>
      </trkpt>
      <trkpt lat="42.96171" lon="-0.90611">
        <ele>1669</ele>
        <time>2024-07-27T10:32:56.731Z</time>
      </trkpt>
      <trkpt lat="42.96173" lon="-0.90585">
        <ele>1673</ele>
        <time>2024-07-27T10:33:35.476Z</time>
      </trkpt>
      <trkpt lat="42.96171" lon="-0.90549">
        <ele>1676</ele>
        <time>2024-07-27T10:34:12.840Z</time>
      </trkpt>
      <trkpt lat="42.96172" lon="-0.90535">
        <ele>1679</ele>
        <time>2024-07-27T10:34:41.847Z</time>
      </trkpt>
      <trkpt lat="42.9617" lon="-0.90514">
        <ele>1682</ele>
        <time>2024-07-27T10:35:11.263Z</time>
      </trkpt>
      <trkpt lat="42.96165" lon="-0.90497">
        <ele>1681</ele>
        <time>2024-07-27T10:35:22.757Z</time>
      </trkpt>
      <trkpt lat="42.96163" lon="-0.90486">
        <ele>1684</ele>
        <time>2024-07-27T10:35:53.423Z</time>
      </trkpt>
      <trkpt lat="42.96154" lon="-0.90462">
        <ele>1686</ele>
        <time>2024-07-27T10:36:19.602Z</time>
      </trkpt>
      <trkpt lat="42.9615" lon="-0.90445">
        <ele>1689</ele>
        <time>2024-07-27T10:36:48.327Z</time>
      </trkpt>
      <trkpt lat="42.9614" lon="-0.90421">
        <ele>1689</ele>
        <time>2024-07-27T10:37:08.217Z</time>
      </trkpt>
      <trkpt lat="42.96135" lon="-0.90383">
        <ele>1693</ele>
        <time>2024-07-27T10:37:52.357Z</time>
      </trkpt>
      <trkpt lat="42.96129" lon="-0.90372">
        <ele>1690</ele>
        <time>2024-07-27T10:38:00.446Z</time>
      </trkpt>
      <trkpt lat="42.96128" lon="-0.90358">
        <ele>1692</ele>
        <time>2024-07-27T10:38:20.226Z</time>
      </trkpt>
      <trkpt lat="42.96121" lon="-0.90327">
        <ele>1692</ele>
        <time>2024-07-27T10:38:43.686Z</time>
      </trkpt>
      <trkpt lat="42.96121" lon="-0.90314">
        <ele>1693</ele>
        <time>2024-07-27T10:38:56.510Z</time>
      </trkpt>
      <trkpt lat="42.96119" lon="-0.90304">
        <ele>1692</ele>
        <time>2024-07-27T10:39:02.816Z</time>
      </trkpt>
      <trkpt lat="42.96116" lon="-0.90294">
        <ele>1690</ele>
        <time>2024-07-27T10:39:09.583Z</time>
      </trkpt>
      <trkpt lat="42.96113" lon="-0.90275">
        <ele>1687</ele>
        <time>2024-07-27T10:39:21.622Z</time>
      </trkpt>
      <trkpt lat="42.96116" lon="-0.90245">
        <ele>1686</ele>
        <time>2024-07-27T10:39:40.671Z</time>
      </trkpt>
      <trkpt lat="42.96127" lon="-0.90224">
        <ele>1691</ele>
        <time>2024-07-27T10:40:28.675Z</time>
      </trkpt>
      <trkpt lat="42.96131" lon="-0.90208">
        <ele>1692</ele>
        <time>2024-07-27T10:40:44.389Z</time>
      </trkpt>
      <trkpt lat="42.96132" lon="-0.90193">
        <ele>1691</ele>
        <time>2024-07-27T10:40:53.980Z</time>
      </trkpt>
      <trkpt lat="42.96131" lon="-0.90166">
        <ele>1689</ele>
        <time>2024-07-27T10:41:10.723Z</time>
      </trkpt>
      <trkpt lat="42.96137" lon="-0.90149">
        <ele>1692</ele>
        <time>2024-07-27T10:41:39.599Z</time>
      </trkpt>
      <trkpt lat="42.96141" lon="-0.90145">
        <ele>1694</ele>
        <time>2024-07-27T10:42:02.019Z</time>
      </trkpt>
      <trkpt lat="42.96148" lon="-0.90132">
        <ele>1697</ele>
        <time>2024-07-27T10:42:30.758Z</time>
      </trkpt>
      <trkpt lat="42.9615" lon="-0.90119">
        <ele>1697</ele>
        <time>2024-07-27T10:42:40.480Z</time>
      </trkpt>
      <trkpt lat="42.9615" lon="-0.90106">
        <ele>1696</ele>
        <time>2024-07-27T10:42:48.334Z</time>
      </trkpt>
      <trkpt lat="42.96149" lon="-0.90099">
        <ele>1695</ele>
        <time>2024-07-27T10:42:52.867Z</time>
      </trkpt>
      <trkpt lat="42.96145" lon="-0.90076">
        <ele>1690</ele>
        <time>2024-07-27T10:43:07.875Z</time>
      </trkpt>
      <trkpt lat="42.9615" lon="-0.90062">
        <ele>1690</ele>
        <time>2024-07-27T10:43:19.226Z</time>
      </trkpt>
      <trkpt lat="42.96152" lon="-0.90055">
        <ele>1690</ele>
        <time>2024-07-27T10:43:23.907Z</time>
      </trkpt>
      <trkpt lat="42.96158" lon="-0.90031">
        <ele>1690</ele>
        <time>2024-07-27T10:43:42.299Z</time>
      </trkpt>
      <trkpt lat="42.96163" lon="-0.90021">
        <ele>1690</ele>
        <time>2024-07-27T10:43:50.628Z</time>
      </trkpt>
      <trkpt lat="42.96163" lon="-0.90012">
        <ele>1689</ele>
        <time>2024-07-27T10:43:56.250Z</time>
      </trkpt>
      <trkpt lat="42.96164" lon="-0.90003">
        <ele>1689</ele>
        <time>2024-07-27T10:44:02.684Z</time>
      </trkpt>
      <trkpt lat="42.96162" lon="-0.89995">
        <ele>1688</ele>
        <time>2024-07-27T10:44:07.942Z</time>
      </trkpt>
      <trkpt lat="42.96155" lon="-0.89977">
        <ele>1687</ele>
        <time>2024-07-27T10:44:20.702Z</time>
      </trkpt>
      <trkpt lat="42.96148" lon="-0.89965">
        <ele>1687</ele>
        <time>2024-07-27T10:44:31.718Z</time>
      </trkpt>
      <trkpt lat="42.96138" lon="-0.89946">
        <ele>1690</ele>
        <time>2024-07-27T10:45:02.034Z</time>
      </trkpt>
      <trkpt lat="42.96129" lon="-0.89939">
        <ele>1691</ele>
        <time>2024-07-27T10:45:16.018Z</time>
      </trkpt>
      <trkpt lat="42.96115" lon="-0.89934">
        <ele>1693</ele>
        <time>2024-07-27T10:45:38.627Z</time>
      </trkpt>
      <trkpt lat="42.96071" lon="-0.89911">
        <ele>1701</ele>
        <time>2024-07-27T10:47:00.631Z</time>
      </trkpt>
      <trkpt lat="42.96054" lon="-0.89905">
        <ele>1704</ele>
        <time>2024-07-27T10:47:31.271Z</time>
      </trkpt>
      <trkpt lat="42.96037" lon="-0.89906">
        <ele>1705</ele>
        <time>2024-07-27T10:47:50.643Z</time>
      </trkpt>
      <trkpt lat="42.96028" lon="-0.89907">
        <ele>1705</ele>
        <time>2024-07-27T10:47:59.608Z</time>
      </trkpt>
      <trkpt lat="42.96016" lon="-0.89905">
        <ele>1706</ele>
        <time>2024-07-27T10:48:14.858Z</time>
      </trkpt>
      <trkpt lat="42.95997" lon="-0.89894">
        <ele>1709</ele>
        <time>2024-07-27T10:48:47.729Z</time>
      </trkpt>
      <trkpt lat="42.95987" lon="-0.89885">
        <ele>1711</ele>
        <time>2024-07-27T10:49:08.600Z</time>
      </trkpt>
      <trkpt lat="42.9597" lon="-0.89875">
        <ele>1712</ele>
        <time>2024-07-27T10:49:29.493Z</time>
      </trkpt>
      <trkpt lat="42.95962" lon="-0.89868">
        <ele>1714</ele>
        <time>2024-07-27T10:49:48.890Z</time>
      </trkpt>
      <trkpt lat="42.95951" lon="-0.89866">
        <ele>1714</ele>
        <time>2024-07-27T10:49:59.269Z</time>
      </trkpt>
      <trkpt lat="42.95934" lon="-0.89862">
        <ele>1714</ele>
        <time>2024-07-27T10:50:16.087Z</time>
      </trkpt>
      <trkpt lat="42.9593" lon="-0.89858">
        <ele>1715</ele>
        <time>2024-07-27T10:50:25.769Z</time>
      </trkpt>
      <trkpt lat="42.95922" lon="-0.89858">
        <ele>1714</ele>
        <time>2024-07-27T10:50:32.503Z</time>
      </trkpt>
      <trkpt lat="42.959" lon="-0.89848">
        <ele>1716</ele>
        <time>2024-07-27T10:51:02.552Z</time>
      </trkpt>
      <trkpt lat="42.95852" lon="-0.89834">
        <ele>1716</ele>
        <time>2024-07-27T10:51:49.571Z</time>
      </trkpt>
      <trkpt lat="42.95814" lon="-0.89819">
        <ele>1717</ele>
        <time>2024-07-27T10:52:31.215Z</time>
      </trkpt>
      <trkpt lat="42.9577" lon="-0.89801">
        <ele>1719</ele>
        <time>2024-07-27T10:53:22.513Z</time>
      </trkpt>
      <trkpt lat="42.9573" lon="-0.89789">
        <ele>1719</ele>
        <time>2024-07-27T10:54:02.330Z</time>
      </trkpt>
      <trkpt lat="42.95714" lon="-0.89779">
        <ele>1721</ele>
        <time>2024-07-27T10:54:27.531Z</time>
      </trkpt>
      <trkpt lat="42.95704" lon="-0.89779">
        <ele>1720</ele>
        <time>2024-07-27T10:54:35.964Z</time>
      </trkpt>
      <trkpt lat="42.95695" lon="-0.89773">
        <ele>1719</ele>
        <time>2024-07-27T10:54:44.009Z</time>
      </trkpt>
      <trkpt lat="42.95672" lon="-0.8977">
        <ele>1716</ele>
        <time>2024-07-27T10:55:04.193Z</time>
      </trkpt>
      <trkpt lat="42.9566" lon="-0.89761">
        <ele>1715</ele>
        <time>2024-07-27T10:55:15.680Z</time>
      </trkpt>
      <trkpt lat="42.9564" lon="-0.89751">
        <ele>1715</ele>
        <time>2024-07-27T10:55:36.137Z</time>
      </trkpt>
      <trkpt lat="42.95634" lon="-0.89745">
        <ele>1716</ele>
        <time>2024-07-27T10:55:47.706Z</time>
      </trkpt>
      <trkpt lat="42.95627" lon="-0.89738">
        <ele>1715</ele>
        <time>2024-07-27T10:55:54.846Z</time>
      </trkpt>
      <trkpt lat="42.95627" lon="-0.89735">
        <ele>1714</ele>
        <time>2024-07-27T10:55:57.085Z</time>
      </trkpt>
      <trkpt lat="42.95631" lon="-0.89728">
        <ele>1711</ele>
        <time>2024-07-27T10:56:02.273Z</time>
      </trkpt>
      <trkpt lat="42.95634" lon="-0.89724">
        <ele>1708</ele>
        <time>2024-07-27T10:56:05.791Z</time>
      </trkpt>
      <trkpt lat="42.95634" lon="-0.89715">
        <ele>1705</ele>
        <time>2024-07-27T10:56:11.390Z</time>
      </trkpt>
      <trkpt lat="42.95632" lon="-0.89712">
        <ele>1705</ele>
        <time>2024-07-27T10:56:13.688Z</time>
      </trkpt>
      <trkpt lat="42.9563" lon="-0.89707">
        <ele>1703</ele>
        <time>2024-07-27T10:56:17.508Z</time>
      </trkpt>
      <trkpt lat="42.95626" lon="-0.89701">
        <ele>1702</ele>
        <time>2024-07-27T10:56:22.184Z</time>
      </trkpt>
      <trkpt lat="42.95611" lon="-0.89693">
        <ele>1703</ele>
        <time>2024-07-27T10:56:41.994Z</time>
      </trkpt>
      <trkpt lat="42.95595" lon="-0.89678">
        <ele>1701</ele>
        <time>2024-07-27T10:56:58.385Z</time>
      </trkpt>
      <trkpt lat="42.95571" lon="-0.89647">
        <ele>1697</ele>
        <time>2024-07-27T10:57:26.101Z</time>
      </trkpt>
      <trkpt lat="42.95553" lon="-0.89616">
        <ele>1692</ele>
        <time>2024-07-27T10:57:50.759Z</time>
      </trkpt>
      <trkpt lat="42.95546" lon="-0.89605">
        <ele>1691</ele>
        <time>2024-07-27T10:58:00.243Z</time>
      </trkpt>
      <trkpt lat="42.95534" lon="-0.89597">
        <ele>1693</ele>
        <time>2024-07-27T10:58:21.735Z</time>
      </trkpt>
      <trkpt lat="42.9552" lon="-0.89569">
        <ele>1696</ele>
        <time>2024-07-27T10:58:57.519Z</time>
      </trkpt>
      <trkpt lat="42.95515" lon="-0.89549">
        <ele>1698</ele>
        <time>2024-07-27T10:59:20.508Z</time>
      </trkpt>
      <trkpt lat="42.95515" lon="-0.89537">
        <ele>1698</ele>
        <time>2024-07-27T10:59:29.466Z</time>
      </trkpt>
      <trkpt lat="42.95519" lon="-0.89524">
        <ele>1696</ele>
        <time>2024-07-27T10:59:37.674Z</time>
      </trkpt>
      <trkpt lat="42.95519" lon="-0.89511">
        <ele>1696</ele>
        <time>2024-07-27T10:59:47.361Z</time>
      </trkpt>
      <trkpt lat="42.95516" lon="-0.895">
        <ele>1698</ele>
        <time>2024-07-27T11:00:06.465Z</time>
      </trkpt>
      <trkpt lat="42.95511" lon="-0.89483">
        <ele>1703</ele>
        <time>2024-07-27T11:00:59.658Z</time>
      </trkpt>
      <trkpt lat="42.95507" lon="-0.89451">
        <ele>1710</ele>
        <time>2024-07-27T11:02:07.711Z</time>
      </trkpt>
      <trkpt lat="42.95504" lon="-0.89442">
        <ele>1713</ele>
        <time>2024-07-27T11:02:40.957Z</time>
      </trkpt>
      <trkpt lat="42.95501" lon="-0.89427">
        <ele>1717</ele>
        <time>2024-07-27T11:03:22.999Z</time>
      </trkpt>
      <trkpt lat="42.95504" lon="-0.89383">
        <ele>1720</ele>
        <time>2024-07-27T11:04:05.551Z</time>
      </trkpt>
      <trkpt lat="42.95517" lon="-0.89311">
        <ele>1714</ele>
        <time>2024-07-27T11:04:52.069Z</time>
      </trkpt>
      <trkpt lat="42.95515" lon="-0.89275">
        <ele>1714</ele>
        <time>2024-07-27T11:05:17.695Z</time>
      </trkpt>
      <trkpt lat="42.95513" lon="-0.89261">
        <ele>1715</ele>
        <time>2024-07-27T11:05:31.187Z</time>
      </trkpt>
      <trkpt lat="42.95511" lon="-0.89257">
        <ele>1717</ele>
        <time>2024-07-27T11:05:52.881Z</time>
      </trkpt>
      <trkpt lat="42.95508" lon="-0.89248">
        <ele>1719</ele>
        <time>2024-07-27T11:06:12.268Z</time>
      </trkpt>
      <trkpt lat="42.95509" lon="-0.89238">
        <ele>1719</ele>
        <time>2024-07-27T11:06:19.331Z</time>
      </trkpt>
      <trkpt lat="42.95512" lon="-0.89227">
        <ele>1716</ele>
        <time>2024-07-27T11:06:26.669Z</time>
      </trkpt>
      <trkpt lat="42.95513" lon="-0.89213">
        <ele>1716</ele>
        <time>2024-07-27T11:06:36.914Z</time>
      </trkpt>
      <trkpt lat="42.95515" lon="-0.89195">
        <ele>1715</ele>
        <time>2024-07-27T11:06:48.174Z</time>
      </trkpt>
      <trkpt lat="42.95514" lon="-0.89187">
        <ele>1717</ele>
        <time>2024-07-27T11:07:08.451Z</time>
      </trkpt>
      <trkpt lat="42.95512" lon="-0.89173">
        <ele>1719</ele>
        <time>2024-07-27T11:07:27.984Z</time>
      </trkpt>
      <trkpt lat="42.95517" lon="-0.89164">
        <ele>1717</ele>
        <time>2024-07-27T11:07:34.812Z</time>
      </trkpt>
      <trkpt lat="42.95517" lon="-0.89157">
        <ele>1718</ele>
        <time>2024-07-27T11:07:44.701Z</time>
      </trkpt>
      <trkpt lat="42.95519" lon="-0.89144">
        <ele>1718</ele>
        <time>2024-07-27T11:07:53.868Z</time>
      </trkpt>
      <trkpt lat="42.95526" lon="-0.89118">
        <ele>1715</ele>
        <time>2024-07-27T11:08:11.381Z</time>
      </trkpt>
      <trkpt lat="42.95532" lon="-0.89104">
        <ele>1711</ele>
        <time>2024-07-27T11:08:21.647Z</time>
      </trkpt>
      <trkpt lat="42.95535" lon="-0.89092">
        <ele>1709</ele>
        <time>2024-07-27T11:08:29.194Z</time>
      </trkpt>
      <trkpt lat="42.95541" lon="-0.89078">
        <ele>1704</ele>
        <time>2024-07-27T11:08:39.460Z</time>
      </trkpt>
      <trkpt lat="42.95542" lon="-0.89074">
        <ele>1703</ele>
        <time>2024-07-27T11:08:41.777Z</time>
      </trkpt>
      <trkpt lat="42.95536" lon="-0.89065">
        <ele>1706</ele>
        <time>2024-07-27T11:09:12.928Z</time>
      </trkpt>
      <trkpt lat="42.95533" lon="-0.89055">
        <ele>1707</ele>
        <time>2024-07-27T11:09:24.682Z</time>
      </trkpt>
      <trkpt lat="42.95525" lon="-0.89032">
        <ele>1708</ele>
        <time>2024-07-27T11:09:46.332Z</time>
      </trkpt>
      <trkpt lat="42.95522" lon="-0.89018">
        <ele>1708</ele>
        <time>2024-07-27T11:09:56.831Z</time>
      </trkpt>
      <trkpt lat="42.95521" lon="-0.89006">
        <ele>1708</ele>
        <time>2024-07-27T11:10:05.352Z</time>
      </trkpt>
      <trkpt lat="42.95521" lon="-0.88986">
        <ele>1707</ele>
        <time>2024-07-27T11:10:17.680Z</time>
      </trkpt>
      <trkpt lat="42.95503" lon="-0.88955">
        <ele>1712</ele>
        <time>2024-07-27T11:11:08.598Z</time>
      </trkpt>
      <trkpt lat="42.95501" lon="-0.88941">
        <ele>1714</ele>
        <time>2024-07-27T11:11:28.194Z</time>
      </trkpt>
      <trkpt lat="42.95502" lon="-0.88931">
        <ele>1715</ele>
        <time>2024-07-27T11:11:39.861Z</time>
      </trkpt>
      <trkpt lat="42.95499" lon="-0.88918">
        <ele>1718</ele>
        <time>2024-07-27T11:12:09.377Z</time>
      </trkpt>
      <trkpt lat="42.95499" lon="-0.88907">
        <ele>1720</ele>
        <time>2024-07-27T11:12:28.480Z</time>
      </trkpt>
      <trkpt lat="42.95499" lon="-0.88901">
        <ele>1721</ele>
        <time>2024-07-27T11:12:38.105Z</time>
      </trkpt>
      <trkpt lat="42.95495" lon="-0.88895">
        <ele>1722</ele>
        <time>2024-07-27T11:12:48.210Z</time>
      </trkpt>
      <trkpt lat="42.95486" lon="-0.88878">
        <ele>1726</ele>
        <time>2024-07-27T11:13:26.394Z</time>
      </trkpt>
      <trkpt lat="42.95482" lon="-0.88872">
        <ele>1728</ele>
        <time>2024-07-27T11:13:48.178Z</time>
      </trkpt>
      <trkpt lat="42.95465" lon="-0.88844">
        <ele>1733</ele>
        <time>2024-07-27T11:14:37.766Z</time>
      </trkpt>
      <trkpt lat="42.95444" lon="-0.88814">
        <ele>1742</ele>
        <time>2024-07-27T11:16:05.051Z</time>
      </trkpt>
      <trkpt lat="42.95437" lon="-0.888">
        <ele>1746</ele>
        <time>2024-07-27T11:16:45.838Z</time>
      </trkpt>
      <trkpt lat="42.95424" lon="-0.88785">
        <ele>1751</ele>
        <time>2024-07-27T11:17:34.338Z</time>
      </trkpt>
      <trkpt lat="42.95411" lon="-0.88774">
        <ele>1757</ele>
        <time>2024-07-27T11:18:40.631Z</time>
      </trkpt>
      <trkpt lat="42.95408" lon="-0.88758">
        <ele>1761</ele>
        <time>2024-07-27T11:19:20.897Z</time>
      </trkpt>
      <trkpt lat="42.954" lon="-0.88741">
        <ele>1769</ele>
        <time>2024-07-27T11:20:38.053Z</time>
      </trkpt>
      <trkpt lat="42.95391" lon="-0.8873">
        <ele>1775</ele>
        <time>2024-07-27T11:21:37.624Z</time>
      </trkpt>
      <trkpt lat="42.95384" lon="-0.8872">
        <ele>1780</ele>
        <time>2024-07-27T11:22:27.334Z</time>
      </trkpt>
      <trkpt lat="42.95373" lon="-0.88709">
        <ele>1787</ele>
        <time>2024-07-27T11:23:41.689Z</time>
      </trkpt>
      <trkpt lat="42.95365" lon="-0.8871">
        <ele>1788</ele>
        <time>2024-07-27T11:23:52.862Z</time>
      </trkpt>
      <trkpt lat="42.9536" lon="-0.88702">
        <ele>1792</ele>
        <time>2024-07-27T11:24:32.799Z</time>
      </trkpt>
      <trkpt lat="42.95351" lon="-0.88693">
        <ele>1798</ele>
        <time>2024-07-27T11:25:29.045Z</time>
      </trkpt>
      <trkpt lat="42.95339" lon="-0.88686">
        <ele>1803</ele>
        <time>2024-07-27T11:26:23.113Z</time>
      </trkpt>
      <trkpt lat="42.95329" lon="-0.88678">
        <ele>1807</ele>
        <time>2024-07-27T11:27:03.513Z</time>
      </trkpt>
      <trkpt lat="42.95321" lon="-0.8868">
        <ele>1809</ele>
        <time>2024-07-27T11:27:22.601Z</time>
      </trkpt>
      <trkpt lat="42.95321" lon="-0.8867">
        <ele>1810</ele>
        <time>2024-07-27T11:27:33.847Z</time>
      </trkpt>
      <trkpt lat="42.95318" lon="-0.88666">
        <ele>1811</ele>
        <time>2024-07-27T11:27:43.395Z</time>
      </trkpt>
      <trkpt lat="42.95313" lon="-0.88661">
        <ele>1811</ele>
        <time>2024-07-27T11:27:48.849Z</time>
      </trkpt>
      <trkpt lat="42.95307" lon="-0.88649">
        <ele>1810</ele>
        <time>2024-07-27T11:27:57.740Z</time>
      </trkpt>
      <trkpt lat="42.95299" lon="-0.88636">
        <ele>1805</ele>
        <time>2024-07-27T11:28:08.771Z</time>
      </trkpt>
      <trkpt lat="42.95295" lon="-0.88618">
        <ele>1799</ele>
        <time>2024-07-27T11:28:20.474Z</time>
      </trkpt>
      <trkpt lat="42.95292" lon="-0.88612">
        <ele>1797</ele>
        <time>2024-07-27T11:28:24.974Z</time>
      </trkpt>
      <trkpt lat="42.95293" lon="-0.886">
        <ele>1794</ele>
        <time>2024-07-27T11:28:32.270Z</time>
      </trkpt>
      <trkpt lat="42.95292" lon="-0.8859">
        <ele>1791</ele>
        <time>2024-07-27T11:28:38.513Z</time>
      </trkpt>
      <trkpt lat="42.95292" lon="-0.88581">
        <ele>1788</ele>
        <time>2024-07-27T11:28:44.112Z</time>
      </trkpt>
      <trkpt lat="42.95289" lon="-0.88573">
        <ele>1785</ele>
        <time>2024-07-27T11:28:49.593Z</time>
      </trkpt>
      <trkpt lat="42.95283" lon="-0.88561">
        <ele>1780</ele>
        <time>2024-07-27T11:28:58.432Z</time>
      </trkpt>
      <trkpt lat="42.95283" lon="-0.8855">
        <ele>1775</ele>
        <time>2024-07-27T11:29:05.728Z</time>
      </trkpt>
      <trkpt lat="42.95283" lon="-0.88532">
        <ele>1768</ele>
        <time>2024-07-27T11:29:16.876Z</time>
      </trkpt>
      <trkpt lat="42.95284" lon="-0.88523">
        <ele>1765</ele>
        <time>2024-07-27T11:29:22.498Z</time>
      </trkpt>
      <trkpt lat="42.95277" lon="-0.88507">
        <ele>1759</ele>
        <time>2024-07-27T11:29:33.814Z</time>
      </trkpt>
      <trkpt lat="42.95281" lon="-0.88482">
        <ele>1750</ele>
        <time>2024-07-27T11:29:49.795Z</time>
      </trkpt>
      <trkpt lat="42.95286" lon="-0.88472">
        <ele>1747</ele>
        <time>2024-07-27T11:29:57.884Z</time>
      </trkpt>
      <trkpt lat="42.95296" lon="-0.88459">
        <ele>1744</ele>
        <time>2024-07-27T11:30:09.322Z</time>
      </trkpt>
      <trkpt lat="42.95296" lon="-0.88454">
        <ele>1743</ele>
        <time>2024-07-27T11:30:12.122Z</time>
      </trkpt>
      <trkpt lat="42.95294" lon="-0.88449">
        <ele>1741</ele>
        <time>2024-07-27T11:30:15.599Z</time>
      </trkpt>
      <trkpt lat="42.95296" lon="-0.88441">
        <ele>1739</ele>
        <time>2024-07-27T11:30:20.819Z</time>
      </trkpt>
      <trkpt lat="42.95294" lon="-0.88439">
        <ele>1738</ele>
        <time>2024-07-27T11:30:22.855Z</time>
      </trkpt>
      <trkpt lat="42.95292" lon="-0.88437">
        <ele>1737</ele>
        <time>2024-07-27T11:30:24.384Z</time>
      </trkpt>
      <trkpt lat="42.95294" lon="-0.88429">
        <ele>1735</ele>
        <time>2024-07-27T11:30:29.761Z</time>
      </trkpt>
      <trkpt lat="42.95294" lon="-0.88426">
        <ele>1734</ele>
        <time>2024-07-27T11:30:31.939Z</time>
      </trkpt>
      <trkpt lat="42.95293" lon="-0.88422">
        <ele>1733</ele>
        <time>2024-07-27T11:30:34.475Z</time>
      </trkpt>
      <trkpt lat="42.9529" lon="-0.88417">
        <ele>1731</ele>
        <time>2024-07-27T11:30:38.496Z</time>
      </trkpt>
      <trkpt lat="42.95292" lon="-0.88411">
        <ele>1730</ele>
        <time>2024-07-27T11:30:42.317Z</time>
      </trkpt>
      <trkpt lat="42.95292" lon="-0.88403">
        <ele>1727</ele>
        <time>2024-07-27T11:30:47.320Z</time>
      </trkpt>
      <trkpt lat="42.9529" lon="-0.88402">
        <ele>1727</ele>
        <time>2024-07-27T11:30:48.823Z</time>
      </trkpt>
      <trkpt lat="42.95289" lon="-0.884">
        <ele>1726</ele>
        <time>2024-07-27T11:30:50.833Z</time>
      </trkpt>
      <trkpt lat="42.95292" lon="-0.88393">
        <ele>1725</ele>
        <time>2024-07-27T11:30:55.375Z</time>
      </trkpt>
      <trkpt lat="42.95289" lon="-0.88391">
        <ele>1724</ele>
        <time>2024-07-27T11:30:58.219Z</time>
      </trkpt>
      <trkpt lat="42.95284" lon="-0.88388">
        <ele>1723</ele>
        <time>2024-07-27T11:31:02.474Z</time>
      </trkpt>
      <trkpt lat="42.95284" lon="-0.88385">
        <ele>1722</ele>
        <time>2024-07-27T11:31:04.256Z</time>
      </trkpt>
      <trkpt lat="42.95287" lon="-0.88373">
        <ele>1719</ele>
        <time>2024-07-27T11:31:12.582Z</time>
      </trkpt>
      <trkpt lat="42.95286" lon="-0.88366">
        <ele>1717</ele>
        <time>2024-07-27T11:31:17.028Z</time>
      </trkpt>
      <trkpt lat="42.95289" lon="-0.88358">
        <ele>1715</ele>
        <time>2024-07-27T11:31:22.023Z</time>
      </trkpt>
      <trkpt lat="42.9529" lon="-0.88345">
        <ele>1712</ele>
        <time>2024-07-27T11:31:30.380Z</time>
      </trkpt>
      <trkpt lat="42.95288" lon="-0.88343">
        <ele>1711</ele>
        <time>2024-07-27T11:31:31.999Z</time>
      </trkpt>
      <trkpt lat="42.95288" lon="-0.8834">
        <ele>1710</ele>
        <time>2024-07-27T11:31:33.678Z</time>
      </trkpt>
      <trkpt lat="42.95291" lon="-0.88337">
        <ele>1709</ele>
        <time>2024-07-27T11:31:36.825Z</time>
      </trkpt>
      <trkpt lat="42.95293" lon="-0.88331">
        <ele>1708</ele>
        <time>2024-07-27T11:31:41.006Z</time>
      </trkpt>
      <trkpt lat="42.95294" lon="-0.88324">
        <ele>1706</ele>
        <time>2024-07-27T11:31:44.970Z</time>
      </trkpt>
      <trkpt lat="42.95297" lon="-0.8832">
        <ele>1705</ele>
        <time>2024-07-27T11:31:48.978Z</time>
      </trkpt>
      <trkpt lat="42.95297" lon="-0.88314">
        <ele>1703</ele>
        <time>2024-07-27T11:31:52.275Z</time>
      </trkpt>
      <trkpt lat="42.953" lon="-0.88309">
        <ele>1701</ele>
        <time>2024-07-27T11:31:56.296Z</time>
      </trkpt>
      <trkpt lat="42.95298" lon="-0.88304">
        <ele>1700</ele>
        <time>2024-07-27T11:31:59.773Z</time>
      </trkpt>
      <trkpt lat="42.95292" lon="-0.88295">
        <ele>1696</ele>
        <time>2024-07-27T11:32:07.293Z</time>
      </trkpt>
      <trkpt lat="42.95284" lon="-0.88291">
        <ele>1695</ele>
        <time>2024-07-27T11:32:14.647Z</time>
      </trkpt>
      <trkpt lat="42.95283" lon="-0.88285">
        <ele>1693</ele>
        <time>2024-07-27T11:32:18.697Z</time>
      </trkpt>
      <trkpt lat="42.95286" lon="-0.88279">
        <ele>1691</ele>
        <time>2024-07-27T11:32:23.026Z</time>
      </trkpt>
      <trkpt lat="42.95289" lon="-0.88274">
        <ele>1689</ele>
        <time>2024-07-27T11:32:27.348Z</time>
      </trkpt>
      <trkpt lat="42.95288" lon="-0.88268">
        <ele>1688</ele>
        <time>2024-07-27T11:32:30.807Z</time>
      </trkpt>
      <trkpt lat="42.95284" lon="-0.88265">
        <ele>1687</ele>
        <time>2024-07-27T11:32:35.357Z</time>
      </trkpt>
      <trkpt lat="42.95283" lon="-0.88259">
        <ele>1685</ele>
        <time>2024-07-27T11:32:39.407Z</time>
      </trkpt>
      <trkpt lat="42.95286" lon="-0.88255">
        <ele>1684</ele>
        <time>2024-07-27T11:32:43.408Z</time>
      </trkpt>
      <trkpt lat="42.9529" lon="-0.8825">
        <ele>1682</ele>
        <time>2024-07-27T11:32:48.127Z</time>
      </trkpt>
      <trkpt lat="42.9529" lon="-0.88243">
        <ele>1680</ele>
        <time>2024-07-27T11:32:52.080Z</time>
      </trkpt>
      <trkpt lat="42.95287" lon="-0.88238">
        <ele>1678</ele>
        <time>2024-07-27T11:32:56.097Z</time>
      </trkpt>
      <trkpt lat="42.95289" lon="-0.88234">
        <ele>1677</ele>
        <time>2024-07-27T11:32:58.909Z</time>
      </trkpt>
      <trkpt lat="42.95285" lon="-0.88225">
        <ele>1674</ele>
        <time>2024-07-27T11:33:05.415Z</time>
      </trkpt>
      <trkpt lat="42.95283" lon="-0.88219">
        <ele>1672</ele>
        <time>2024-07-27T11:33:09.688Z</time>
      </trkpt>
      <trkpt lat="42.95284" lon="-0.88212">
        <ele>1670</ele>
        <time>2024-07-27T11:33:14.258Z</time>
      </trkpt>
      <trkpt lat="42.95285" lon="-0.88206">
        <ele>1668</ele>
        <time>2024-07-27T11:33:18.354Z</time>
      </trkpt>
      <trkpt lat="42.95288" lon="-0.88203">
        <ele>1667</ele>
        <time>2024-07-27T11:33:21.129Z</time>
      </trkpt>
      <trkpt lat="42.9529" lon="-0.88193">
        <ele>1664</ele>
        <time>2024-07-27T11:33:27.459Z</time>
      </trkpt>
      <trkpt lat="42.95292" lon="-0.8819">
        <ele>1664</ele>
        <time>2024-07-27T11:33:30.589Z</time>
      </trkpt>
      <trkpt lat="42.95292" lon="-0.88181">
        <ele>1661</ele>
        <time>2024-07-27T11:33:36.188Z</time>
      </trkpt>
      <trkpt lat="42.9529" lon="-0.88175">
        <ele>1659</ele>
        <time>2024-07-27T11:33:40.460Z</time>
      </trkpt>
      <trkpt lat="42.95294" lon="-0.8817">
        <ele>1658</ele>
        <time>2024-07-27T11:33:44.836Z</time>
      </trkpt>
      <trkpt lat="42.95298" lon="-0.88157">
        <ele>1655</ele>
        <time>2024-07-27T11:33:53.596Z</time>
      </trkpt>
      <trkpt lat="42.95298" lon="-0.8815">
        <ele>1653</ele>
        <time>2024-07-27T11:33:58.075Z</time>
      </trkpt>
      <trkpt lat="42.95297" lon="-0.88144">
        <ele>1651</ele>
        <time>2024-07-27T11:34:02.147Z</time>
      </trkpt>
      <trkpt lat="42.95294" lon="-0.88141">
        <ele>1650</ele>
        <time>2024-07-27T11:34:05.417Z</time>
      </trkpt>
      <trkpt lat="42.9529" lon="-0.88145">
        <ele>1650</ele>
        <time>2024-07-27T11:34:10.375Z</time>
      </trkpt>
      <trkpt lat="42.95287" lon="-0.88144">
        <ele>1650</ele>
        <time>2024-07-27T11:34:13.294Z</time>
      </trkpt>
      <trkpt lat="42.95283" lon="-0.88135">
        <ele>1647</ele>
        <time>2024-07-27T11:34:19.800Z</time>
      </trkpt>
      <trkpt lat="42.95283" lon="-0.88129">
        <ele>1645</ele>
        <time>2024-07-27T11:34:23.160Z</time>
      </trkpt>
      <trkpt lat="42.9528" lon="-0.88128">
        <ele>1645</ele>
        <time>2024-07-27T11:34:26.429Z</time>
      </trkpt>
      <trkpt lat="42.95278" lon="-0.88126">
        <ele>1644</ele>
        <time>2024-07-27T11:34:28.819Z</time>
      </trkpt>
      <trkpt lat="42.9528" lon="-0.88114">
        <ele>1640</ele>
        <time>2024-07-27T11:34:36.293Z</time>
      </trkpt>
      <trkpt lat="42.95283" lon="-0.88103">
        <ele>1637</ele>
        <time>2024-07-27T11:34:43.334Z</time>
      </trkpt>
      <trkpt lat="42.9528" lon="-0.88093">
        <ele>1634</ele>
        <time>2024-07-27T11:34:49.907Z</time>
      </trkpt>
      <trkpt lat="42.95281" lon="-0.88089">
        <ele>1633</ele>
        <time>2024-07-27T11:34:52.769Z</time>
      </trkpt>
      <trkpt lat="42.95285" lon="-0.88082">
        <ele>1632</ele>
        <time>2024-07-27T11:34:58.715Z</time>
      </trkpt>
      <trkpt lat="42.9529" lon="-0.88058">
        <ele>1626</ele>
        <time>2024-07-27T11:35:13.728Z</time>
      </trkpt>
      <trkpt lat="42.95294" lon="-0.88044">
        <ele>1624</ele>
        <time>2024-07-27T11:35:23.503Z</time>
      </trkpt>
      <trkpt lat="42.95295" lon="-0.88036">
        <ele>1622</ele>
        <time>2024-07-27T11:35:28.629Z</time>
      </trkpt>
      <trkpt lat="42.95298" lon="-0.88029">
        <ele>1622</ele>
        <time>2024-07-27T11:35:34.609Z</time>
      </trkpt>
      <trkpt lat="42.953" lon="-0.88021">
        <ele>1620</ele>
        <time>2024-07-27T11:35:39.223Z</time>
      </trkpt>
      <trkpt lat="42.953" lon="-0.88014">
        <ele>1619</ele>
        <time>2024-07-27T11:35:43.640Z</time>
      </trkpt>
      <trkpt lat="42.95298" lon="-0.88008">
        <ele>1617</ele>
        <time>2024-07-27T11:35:47.879Z</time>
      </trkpt>
      <trkpt lat="42.95298" lon="-0.88003">
        <ele>1615</ele>
        <time>2024-07-27T11:35:51.238Z</time>
      </trkpt>
      <trkpt lat="42.953" lon="-0.87996">
        <ele>1614</ele>
        <time>2024-07-27T11:35:55.477Z</time>
      </trkpt>
      <trkpt lat="42.95297" lon="-0.87988">
        <ele>1611</ele>
        <time>2024-07-27T11:36:01.037Z</time>
      </trkpt>
      <trkpt lat="42.95298" lon="-0.87984">
        <ele>1611</ele>
        <time>2024-07-27T11:36:04.410Z</time>
      </trkpt>
      <trkpt lat="42.95296" lon="-0.87974">
        <ele>1607</ele>
        <time>2024-07-27T11:36:10.954Z</time>
      </trkpt>
      <trkpt lat="42.95294" lon="-0.87959">
        <ele>1603</ele>
        <time>2024-07-27T11:36:19.980Z</time>
      </trkpt>
      <trkpt lat="42.95295" lon="-0.87951">
        <ele>1602</ele>
        <time>2024-07-27T11:36:24.983Z</time>
      </trkpt>
      <trkpt lat="42.95299" lon="-0.87935">
        <ele>1601</ele>
        <time>2024-07-27T11:36:35.678Z</time>
      </trkpt>
      <trkpt lat="42.95297" lon="-0.87915">
        <ele>1597</ele>
        <time>2024-07-27T11:36:48.606Z</time>
      </trkpt>
      <trkpt lat="42.95295" lon="-0.87889">
        <ele>1593</ele>
        <time>2024-07-27T11:37:04.870Z</time>
      </trkpt>
      <trkpt lat="42.9529" lon="-0.8787">
        <ele>1588</ele>
        <time>2024-07-27T11:37:17.261Z</time>
      </trkpt>
      <trkpt lat="42.9529" lon="-0.87853">
        <ele>1586</ele>
        <time>2024-07-27T11:37:27.912Z</time>
      </trkpt>
      <trkpt lat="42.95285" lon="-0.87841">
        <ele>1583</ele>
        <time>2024-07-27T11:37:36.119Z</time>
      </trkpt>
      <trkpt lat="42.95285" lon="-0.87832">
        <ele>1582</ele>
        <time>2024-07-27T11:37:41.718Z</time>
      </trkpt>
      <trkpt lat="42.95282" lon="-0.87821">
        <ele>1580</ele>
        <time>2024-07-27T11:37:48.942Z</time>
      </trkpt>
      <trkpt lat="42.95278" lon="-0.87798">
        <ele>1576</ele>
        <time>2024-07-27T11:38:03.952Z</time>
      </trkpt>
      <trkpt lat="42.95267" lon="-0.87761">
        <ele>1565</ele>
        <time>2024-07-27T11:38:28.713Z</time>
      </trkpt>
      <trkpt lat="42.95265" lon="-0.8774">
        <ele>1564</ele>
        <time>2024-07-27T11:38:41.576Z</time>
      </trkpt>
      <trkpt lat="42.95269" lon="-0.87733">
        <ele>1566</ele>
        <time>2024-07-27T11:39:01.184Z</time>
      </trkpt>
      <trkpt lat="42.95267" lon="-0.87726">
        <ele>1565</ele>
        <time>2024-07-27T11:39:05.917Z</time>
      </trkpt>
      <trkpt lat="42.95261" lon="-0.87714">
        <ele>1560</ele>
        <time>2024-07-27T11:39:14.808Z</time>
      </trkpt>
      <trkpt lat="42.95257" lon="-0.87689">
        <ele>1555</ele>
        <time>2024-07-27T11:39:30.844Z</time>
      </trkpt>
      <trkpt lat="42.95263" lon="-0.87658">
        <ele>1555</ele>
        <time>2024-07-27T11:39:54.031Z</time>
      </trkpt>
      <trkpt lat="42.95262" lon="-0.87633">
        <ele>1552</ele>
        <time>2024-07-27T11:40:09.593Z</time>
      </trkpt>
      <trkpt lat="42.95261" lon="-0.87624">
        <ele>1550</ele>
        <time>2024-07-27T11:40:14.667Z</time>
      </trkpt>
      <trkpt lat="42.9526" lon="-0.87608">
        <ele>1547</ele>
        <time>2024-07-27T11:40:24.805Z</time>
      </trkpt>
      <trkpt lat="42.95265" lon="-0.87583">
        <ele>1546</ele>
        <time>2024-07-27T11:40:40.903Z</time>
      </trkpt>
      <trkpt lat="42.95265" lon="-0.8757">
        <ele>1544</ele>
        <time>2024-07-27T11:40:49.301Z</time>
      </trkpt>
      <trkpt lat="42.95265" lon="-0.87561">
        <ele>1543</ele>
        <time>2024-07-27T11:40:54.932Z</time>
      </trkpt>
      <trkpt lat="42.95264" lon="-0.87551">
        <ele>1540</ele>
        <time>2024-07-27T11:41:01.205Z</time>
      </trkpt>
      <trkpt lat="42.95267" lon="-0.87544">
        <ele>1541</ele>
        <time>2024-07-27T11:41:11.311Z</time>
      </trkpt>
      <trkpt lat="42.95271" lon="-0.8754">
        <ele>1542</ele>
        <time>2024-07-27T11:41:20.951Z</time>
      </trkpt>
      <trkpt lat="42.95273" lon="-0.87525">
        <ele>1541</ele>
        <time>2024-07-27T11:41:30.620Z</time>
      </trkpt>
      <trkpt lat="42.95275" lon="-0.87518">
        <ele>1543</ele>
        <time>2024-07-27T11:41:52.000Z</time>
      </trkpt>
      <trkpt lat="42.95277" lon="-0.87511">
        <ele>1543</ele>
        <time>2024-07-27T11:41:57.409Z</time>
      </trkpt>
      <trkpt lat="42.95275" lon="-0.87491">
        <ele>1539</ele>
        <time>2024-07-27T11:42:09.924Z</time>
      </trkpt>
      <trkpt lat="42.95278" lon="-0.8746">
        <ele>1540</ele>
        <time>2024-07-27T11:42:35.756Z</time>
      </trkpt>
      <trkpt lat="42.95275" lon="-0.87438">
        <ele>1537</ele>
        <time>2024-07-27T11:42:49.374Z</time>
      </trkpt>
      <trkpt lat="42.95279" lon="-0.87382">
        <ele>1540</ele>
        <time>2024-07-27T11:43:40.312Z</time>
      </trkpt>
      <trkpt lat="42.95271" lon="-0.87353">
        <ele>1535</ele>
        <time>2024-07-27T11:43:59.388Z</time>
      </trkpt>
      <trkpt lat="42.95264" lon="-0.87315">
        <ele>1529</ele>
        <time>2024-07-27T11:44:24.048Z</time>
      </trkpt>
      <trkpt lat="42.95262" lon="-0.87288">
        <ele>1526</ele>
        <time>2024-07-27T11:44:40.427Z</time>
      </trkpt>
      <trkpt lat="42.95265" lon="-0.87268">
        <ele>1525</ele>
        <time>2024-07-27T11:44:53.546Z</time>
      </trkpt>
      <trkpt lat="42.95265" lon="-0.87253">
        <ele>1522</ele>
        <time>2024-07-27T11:45:02.525Z</time>
      </trkpt>
      <trkpt lat="42.95267" lon="-0.87234">
        <ele>1521</ele>
        <time>2024-07-27T11:45:14.978Z</time>
      </trkpt>
      <trkpt lat="42.95266" lon="-0.87189">
        <ele>1513</ele>
        <time>2024-07-27T11:45:42.933Z</time>
      </trkpt>
      <trkpt lat="42.95269" lon="-0.87142">
        <ele>1507</ele>
        <time>2024-07-27T11:46:12.121Z</time>
      </trkpt>
      <trkpt lat="42.95279" lon="-0.87111">
        <ele>1504</ele>
        <time>2024-07-27T11:46:33.220Z</time>
      </trkpt>
      <trkpt lat="42.9528" lon="-0.87101">
        <ele>1502</ele>
        <time>2024-07-27T11:46:39.416Z</time>
      </trkpt>
      <trkpt lat="42.95281" lon="-0.87094">
        <ele>1501</ele>
        <time>2024-07-27T11:46:43.935Z</time>
      </trkpt>
      <trkpt lat="42.95283" lon="-0.87086">
        <ele>1500</ele>
        <time>2024-07-27T11:46:48.784Z</time>
      </trkpt>
      <trkpt lat="42.95284" lon="-0.87083">
        <ele>1499</ele>
        <time>2024-07-27T11:46:51.495Z</time>
      </trkpt>
      <trkpt lat="42.95284" lon="-0.87077">
        <ele>1498</ele>
        <time>2024-07-27T11:46:54.917Z</time>
      </trkpt>
      <trkpt lat="42.95283" lon="-0.87065">
        <ele>1495</ele>
        <time>2024-07-27T11:47:02.798Z</time>
      </trkpt>
      <trkpt lat="42.95281" lon="-0.87054">
        <ele>1492</ele>
        <time>2024-07-27T11:47:09.683Z</time>
      </trkpt>
      <trkpt lat="42.95276" lon="-0.87014">
        <ele>1484</ele>
        <time>2024-07-27T11:47:34.727Z</time>
      </trkpt>
      <trkpt lat="42.95273" lon="-0.8699">
        <ele>1480</ele>
        <time>2024-07-27T11:47:49.882Z</time>
      </trkpt>
      <trkpt lat="42.95273" lon="-0.86977">
        <ele>1477</ele>
        <time>2024-07-27T11:47:58.281Z</time>
      </trkpt>
      <trkpt lat="42.95276" lon="-0.86966">
        <ele>1475</ele>
        <time>2024-07-27T11:48:05.354Z</time>
      </trkpt>
      <trkpt lat="42.95275" lon="-0.86961">
        <ele>1474</ele>
        <time>2024-07-27T11:48:08.690Z</time>
      </trkpt>
      <trkpt lat="42.95261" lon="-0.86934">
        <ele>1469</ele>
        <time>2024-07-27T11:48:28.771Z</time>
      </trkpt>
      <trkpt lat="42.95255" lon="-0.86913">
        <ele>1463</ele>
        <time>2024-07-27T11:48:43.218Z</time>
      </trkpt>
      <trkpt lat="42.95252" lon="-0.86904">
        <ele>1460</ele>
        <time>2024-07-27T11:48:49.443Z</time>
      </trkpt>
      <trkpt lat="42.95242" lon="-0.86895">
        <ele>1458</ele>
        <time>2024-07-27T11:48:59.550Z</time>
      </trkpt>
      <trkpt lat="42.95233" lon="-0.86882">
        <ele>1454</ele>
        <time>2024-07-27T11:49:10.623Z</time>
      </trkpt>
      <trkpt lat="42.95223" lon="-0.86873">
        <ele>1452</ele>
        <time>2024-07-27T11:49:20.240Z</time>
      </trkpt>
      <trkpt lat="42.95215" lon="-0.86862">
        <ele>1450</ele>
        <time>2024-07-27T11:49:30.143Z</time>
      </trkpt>
      <trkpt lat="42.95206" lon="-0.86851">
        <ele>1448</ele>
        <time>2024-07-27T11:49:40.912Z</time>
      </trkpt>
      <trkpt lat="42.95198" lon="-0.86844">
        <ele>1447</ele>
        <time>2024-07-27T11:49:48.878Z</time>
      </trkpt>
      <trkpt lat="42.95188" lon="-0.86829">
        <ele>1444</ele>
        <time>2024-07-27T11:50:01.583Z</time>
      </trkpt>
      <trkpt lat="42.95183" lon="-0.86812">
        <ele>1440</ele>
        <time>2024-07-27T11:50:12.679Z</time>
      </trkpt>
      <trkpt lat="42.95176" lon="-0.86786">
        <ele>1435</ele>
        <time>2024-07-27T11:50:29.800Z</time>
      </trkpt>
      <trkpt lat="42.95169" lon="-0.8676">
        <ele>1430</ele>
        <time>2024-07-27T11:50:46.892Z</time>
      </trkpt>
      <trkpt lat="42.95159" lon="-0.86728">
        <ele>1425</ele>
        <time>2024-07-27T11:51:08.915Z</time>
      </trkpt>
      <trkpt lat="42.95151" lon="-0.86713">
        <ele>1423</ele>
        <time>2024-07-27T11:51:20.563Z</time>
      </trkpt>
      <trkpt lat="42.95146" lon="-0.86701">
        <ele>1422</ele>
        <time>2024-07-27T11:51:28.786Z</time>
      </trkpt>
      <trkpt lat="42.95139" lon="-0.86678">
        <ele>1420</ele>
        <time>2024-07-27T11:51:44.554Z</time>
      </trkpt>
      <trkpt lat="42.95133" lon="-0.86649">
        <ele>1418</ele>
        <time>2024-07-27T11:52:03.329Z</time>
      </trkpt>
      <trkpt lat="42.95127" lon="-0.86639">
        <ele>1417</ele>
        <time>2024-07-27T11:52:10.910Z</time>
      </trkpt>
      <trkpt lat="42.95117" lon="-0.86609">
        <ele>1415</ele>
        <time>2024-07-27T11:52:31.393Z</time>
      </trkpt>
      <trkpt lat="42.95109" lon="-0.86591">
        <ele>1414</ele>
        <time>2024-07-27T11:52:44.397Z</time>
      </trkpt>
      <trkpt lat="42.95103" lon="-0.86578">
        <ele>1414</ele>
        <time>2024-07-27T11:52:55.637Z</time>
      </trkpt>
      <trkpt lat="42.95099" lon="-0.86567">
        <ele>1414</ele>
        <time>2024-07-27T11:53:04.180Z</time>
      </trkpt>
      <trkpt lat="42.95097" lon="-0.86563">
        <ele>1415</ele>
        <time>2024-07-27T11:53:13.731Z</time>
      </trkpt>
      <trkpt lat="42.95092" lon="-0.86551">
        <ele>1416</ele>
        <time>2024-07-27T11:53:27.176Z</time>
      </trkpt>
      <trkpt lat="42.95083" lon="-0.86539">
        <ele>1416</ele>
        <time>2024-07-27T11:53:38.897Z</time>
      </trkpt>
      <trkpt lat="42.95074" lon="-0.86522">
        <ele>1417</ele>
        <time>2024-07-27T11:53:57.446Z</time>
      </trkpt>
      <trkpt lat="42.95065" lon="-0.86502">
        <ele>1419</ele>
        <time>2024-07-27T11:54:22.030Z</time>
      </trkpt>
      <trkpt lat="42.95051" lon="-0.86484">
        <ele>1417</ele>
        <time>2024-07-27T11:54:38.247Z</time>
      </trkpt>
      <trkpt lat="42.95046" lon="-0.86475">
        <ele>1418</ele>
        <time>2024-07-27T11:54:50.410Z</time>
      </trkpt>
      <trkpt lat="42.95039" lon="-0.86459">
        <ele>1417</ele>
        <time>2024-07-27T11:55:01.726Z</time>
      </trkpt>
      <trkpt lat="42.95034" lon="-0.86446">
        <ele>1416</ele>
        <time>2024-07-27T11:55:11.312Z</time>
      </trkpt>
      <trkpt lat="42.95029" lon="-0.86417">
        <ele>1415</ele>
        <time>2024-07-27T11:55:29.591Z</time>
      </trkpt>
      <trkpt lat="42.95028" lon="-0.86404">
        <ele>1415</ele>
        <time>2024-07-27T11:55:39.202Z</time>
      </trkpt>
      <trkpt lat="42.95027" lon="-0.86381">
        <ele>1414</ele>
        <time>2024-07-27T11:55:53.243Z</time>
      </trkpt>
      <trkpt lat="42.95026" lon="-0.8637">
        <ele>1414</ele>
        <time>2024-07-27T11:56:00.952Z</time>
      </trkpt>
      <trkpt lat="42.95027" lon="-0.86348">
        <ele>1416</ele>
        <time>2024-07-27T11:56:24.948Z</time>
      </trkpt>
      <trkpt lat="42.95026" lon="-0.86331">
        <ele>1416</ele>
        <time>2024-07-27T11:56:37.102Z</time>
      </trkpt>
      <trkpt lat="42.95027" lon="-0.86322">
        <ele>1418</ele>
        <time>2024-07-27T11:56:56.702Z</time>
      </trkpt>
      <trkpt lat="42.95024" lon="-0.86316">
        <ele>1418</ele>
        <time>2024-07-27T11:57:01.352Z</time>
      </trkpt>
      <trkpt lat="42.95021" lon="-0.86307">
        <ele>1419</ele>
        <time>2024-07-27T11:57:12.895Z</time>
      </trkpt>
      <trkpt lat="42.95016" lon="-0.86292">
        <ele>1420</ele>
        <time>2024-07-27T11:57:27.927Z</time>
      </trkpt>
      <trkpt lat="42.95016" lon="-0.86289">
        <ele>1420</ele>
        <time>2024-07-27T11:57:30.622Z</time>
      </trkpt>
      <trkpt lat="42.95016" lon="-0.86281">
        <ele>1423</ele>
        <time>2024-07-27T11:57:57.301Z</time>
      </trkpt>
      <trkpt lat="42.95016" lon="-0.86279">
        <ele>1423</ele>
        <time>2024-07-27T11:57:59.240Z</time>
      </trkpt>
      <trkpt lat="42.95003" lon="-0.86264">
        <ele>1424</ele>
        <time>2024-07-27T11:58:18.599Z</time>
      </trkpt>
      <trkpt lat="42.94991" lon="-0.8625">
        <ele>1424</ele>
        <time>2024-07-27T11:58:34.483Z</time>
      </trkpt>
      <trkpt lat="42.94979" lon="-0.86241">
        <ele>1424</ele>
        <time>2024-07-27T11:58:47.105Z</time>
      </trkpt>
      <trkpt lat="42.94962" lon="-0.86235">
        <ele>1422</ele>
        <time>2024-07-27T11:59:02.159Z</time>
      </trkpt>
      <trkpt lat="42.94958" lon="-0.86229">
        <ele>1422</ele>
        <time>2024-07-27T11:59:07.502Z</time>
      </trkpt>
      <trkpt lat="42.94943" lon="-0.8622">
        <ele>1422</ele>
        <time>2024-07-27T11:59:23.506Z</time>
      </trkpt>
      <trkpt lat="42.94903" lon="-0.86182">
        <ele>1421</ele>
        <time>2024-07-27T12:00:08.294Z</time>
      </trkpt>
      <trkpt lat="42.94889" lon="-0.86166">
        <ele>1420</ele>
        <time>2024-07-27T12:00:23.867Z</time>
      </trkpt>
      <trkpt lat="42.94881" lon="-0.86154">
        <ele>1418</ele>
        <time>2024-07-27T12:00:34.188Z</time>
      </trkpt>
      <trkpt lat="42.9487" lon="-0.8613">
        <ele>1416</ele>
        <time>2024-07-27T12:00:51.265Z</time>
      </trkpt>
      <trkpt lat="42.94867" lon="-0.86113">
        <ele>1414</ele>
        <time>2024-07-27T12:01:02.207Z</time>
      </trkpt>
      <trkpt lat="42.94866" lon="-0.86099">
        <ele>1412</ele>
        <time>2024-07-27T12:01:11.181Z</time>
      </trkpt>
      <trkpt lat="42.9487" lon="-0.86083">
        <ele>1411</ele>
        <time>2024-07-27T12:01:21.620Z</time>
      </trkpt>
      <trkpt lat="42.94875" lon="-0.86066">
        <ele>1411</ele>
        <time>2024-07-27T12:01:34.759Z</time>
      </trkpt>
      <trkpt lat="42.94889" lon="-0.86036">
        <ele>1414</ele>
        <time>2024-07-27T12:02:11.557Z</time>
      </trkpt>
      <trkpt lat="42.94895" lon="-0.86016">
        <ele>1416</ele>
        <time>2024-07-27T12:02:35.014Z</time>
      </trkpt>
      <trkpt lat="42.94898" lon="-0.85999">
        <ele>1418</ele>
        <time>2024-07-27T12:02:56.148Z</time>
      </trkpt>
      <trkpt lat="42.94903" lon="-0.85976">
        <ele>1422</ele>
        <time>2024-07-27T12:03:34.515Z</time>
      </trkpt>
      <trkpt lat="42.94902" lon="-0.85972">
        <ele>1422</ele>
        <time>2024-07-27T12:03:37.413Z</time>
      </trkpt>
      <trkpt lat="42.94897" lon="-0.85968">
        <ele>1421</ele>
        <time>2024-07-27T12:03:42.186Z</time>
      </trkpt>
      <trkpt lat="42.9489" lon="-0.85961">
        <ele>1419</ele>
        <time>2024-07-27T12:03:49.807Z</time>
      </trkpt>
      <trkpt lat="42.94879" lon="-0.85937">
        <ele>1418</ele>
        <time>2024-07-27T12:04:06.830Z</time>
      </trkpt>
      <trkpt lat="42.94872" lon="-0.85902">
        <ele>1416</ele>
        <time>2024-07-27T12:04:29.450Z</time>
      </trkpt>
      <trkpt lat="42.94871" lon="-0.85883">
        <ele>1414</ele>
        <time>2024-07-27T12:04:41.764Z</time>
      </trkpt>
      <trkpt lat="42.9487" lon="-0.85861">
        <ele>1410</ele>
        <time>2024-07-27T12:04:55.212Z</time>
      </trkpt>
      <trkpt lat="42.94877" lon="-0.85832">
        <ele>1408</ele>
        <time>2024-07-27T12:05:13.988Z</time>
      </trkpt>
      <trkpt lat="42.94891" lon="-0.85798">
        <ele>1410</ele>
        <time>2024-07-27T12:05:48.979Z</time>
      </trkpt>
      <trkpt lat="42.94901" lon="-0.85768">
        <ele>1414</ele>
        <time>2024-07-27T12:06:30.369Z</time>
      </trkpt>
      <trkpt lat="42.94903" lon="-0.85756">
        <ele>1416</ele>
        <time>2024-07-27T12:06:49.534Z</time>
      </trkpt>
      <trkpt lat="42.94909" lon="-0.85746">
        <ele>1420</ele>
        <time>2024-07-27T12:07:34.738Z</time>
      </trkpt>
      <trkpt lat="42.94909" lon="-0.85739">
        <ele>1422</ele>
        <time>2024-07-27T12:07:56.309Z</time>
      </trkpt>
      <trkpt lat="42.94908" lon="-0.8573">
        <ele>1424</ele>
        <time>2024-07-27T12:08:15.909Z</time>
      </trkpt>
      <trkpt lat="42.94903" lon="-0.85722">
        <ele>1424</ele>
        <time>2024-07-27T12:08:23.517Z</time>
      </trkpt>
      <trkpt lat="42.94879" lon="-0.85698">
        <ele>1423</ele>
        <time>2024-07-27T12:08:49.181Z</time>
      </trkpt>
      <trkpt lat="42.94856" lon="-0.85666">
        <ele>1427</ele>
        <time>2024-07-27T12:09:37.127Z</time>
      </trkpt>
      <trkpt lat="42.94849" lon="-0.85662">
        <ele>1426</ele>
        <time>2024-07-27T12:09:44.379Z</time>
      </trkpt>
      <trkpt lat="42.94837" lon="-0.85661">
        <ele>1422</ele>
        <time>2024-07-27T12:09:53.919Z</time>
      </trkpt>
      <trkpt lat="42.94826" lon="-0.85648">
        <ele>1422</ele>
        <time>2024-07-27T12:10:08.013Z</time>
      </trkpt>
      <trkpt lat="42.94805" lon="-0.85625">
        <ele>1419</ele>
        <time>2024-07-27T12:10:31.008Z</time>
      </trkpt>
      <trkpt lat="42.94789" lon="-0.85604">
        <ele>1414</ele>
        <time>2024-07-27T12:10:49.615Z</time>
      </trkpt>
      <trkpt lat="42.94783" lon="-0.85581">
        <ele>1412</ele>
        <time>2024-07-27T12:11:05.159Z</time>
      </trkpt>
      <trkpt lat="42.94782" lon="-0.85529">
        <ele>1416</ele>
        <time>2024-07-27T12:11:57.535Z</time>
      </trkpt>
      <trkpt lat="42.94772" lon="-0.85508">
        <ele>1417</ele>
        <time>2024-07-27T12:12:18.709Z</time>
      </trkpt>
      <trkpt lat="42.94735" lon="-0.85463">
        <ele>1416</ele>
        <time>2024-07-27T12:13:03.846Z</time>
      </trkpt>
      <trkpt lat="42.94711" lon="-0.85435">
        <ele>1413</ele>
        <time>2024-07-27T12:13:30.397Z</time>
      </trkpt>
      <trkpt lat="42.94703" lon="-0.85408">
        <ele>1410</ele>
        <time>2024-07-27T12:13:48.457Z</time>
      </trkpt>
      <trkpt lat="42.947" lon="-0.85366">
        <ele>1407</ele>
        <time>2024-07-27T12:14:14.862Z</time>
      </trkpt>
      <trkpt lat="42.94707" lon="-0.85327">
        <ele>1409</ele>
        <time>2024-07-27T12:14:50.039Z</time>
      </trkpt>
      <trkpt lat="42.94699" lon="-0.85296">
        <ele>1406</ele>
        <time>2024-07-27T12:15:10.697Z</time>
      </trkpt>
      <trkpt lat="42.94698" lon="-0.85272">
        <ele>1408</ele>
        <time>2024-07-27T12:15:35.764Z</time>
      </trkpt>
      <trkpt lat="42.94704" lon="-0.8526">
        <ele>1412</ele>
        <time>2024-07-27T12:16:18.781Z</time>
      </trkpt>
      <trkpt lat="42.94703" lon="-0.85255">
        <ele>1413</ele>
        <time>2024-07-27T12:16:28.324Z</time>
      </trkpt>
      <trkpt lat="42.94688" lon="-0.85245">
        <ele>1410</ele>
        <time>2024-07-27T12:16:42.583Z</time>
      </trkpt>
      <trkpt lat="42.94683" lon="-0.85241">
        <ele>1409</ele>
        <time>2024-07-27T12:16:47.567Z</time>
      </trkpt>
      <trkpt lat="42.9468" lon="-0.85233">
        <ele>1410</ele>
        <time>2024-07-27T12:16:58.144Z</time>
      </trkpt>
      <trkpt lat="42.9468" lon="-0.85227">
        <ele>1411</ele>
        <time>2024-07-27T12:17:07.785Z</time>
      </trkpt>
      <trkpt lat="42.94672" lon="-0.85225">
        <ele>1410</ele>
        <time>2024-07-27T12:17:14.018Z</time>
      </trkpt>
      <trkpt lat="42.94653" lon="-0.85206">
        <ele>1411</ele>
        <time>2024-07-27T12:17:40.642Z</time>
      </trkpt>
      <trkpt lat="42.94639" lon="-0.85201">
        <ele>1410</ele>
        <time>2024-07-27T12:17:52.336Z</time>
      </trkpt>
      <trkpt lat="42.94634" lon="-0.85195">
        <ele>1411</ele>
        <time>2024-07-27T12:18:03.088Z</time>
      </trkpt>
      <trkpt lat="42.9463" lon="-0.85193">
        <ele>1411</ele>
        <time>2024-07-27T12:18:07.951Z</time>
      </trkpt>
      <trkpt lat="42.94609" lon="-0.85186">
        <ele>1411</ele>
        <time>2024-07-27T12:18:28.837Z</time>
      </trkpt>
      <trkpt lat="42.94574" lon="-0.85168">
        <ele>1412</ele>
        <time>2024-07-27T12:19:07.822Z</time>
      </trkpt>
      <trkpt lat="42.94548" lon="-0.85141">
        <ele>1412</ele>
        <time>2024-07-27T12:19:39.400Z</time>
      </trkpt>
      <trkpt lat="42.94538" lon="-0.85127">
        <ele>1410</ele>
        <time>2024-07-27T12:19:51.691Z</time>
      </trkpt>
      <trkpt lat="42.94534" lon="-0.85115">
        <ele>1410</ele>
        <time>2024-07-27T12:20:01.135Z</time>
      </trkpt>
      <trkpt lat="42.94534" lon="-0.85097">
        <ele>1410</ele>
        <time>2024-07-27T12:20:14.432Z</time>
      </trkpt>
      <trkpt lat="42.9453" lon="-0.85079">
        <ele>1410</ele>
        <time>2024-07-27T12:20:27.236Z</time>
      </trkpt>
      <trkpt lat="42.94521" lon="-0.8507">
        <ele>1408</ele>
        <time>2024-07-27T12:20:36.444Z</time>
      </trkpt>
      <trkpt lat="42.94518" lon="-0.8506">
        <ele>1407</ele>
        <time>2024-07-27T12:20:43.668Z</time>
      </trkpt>
      <trkpt lat="42.94516" lon="-0.85016">
        <ele>1407</ele>
        <time>2024-07-27T12:21:14.981Z</time>
      </trkpt>
      <trkpt lat="42.94516" lon="-0.84995">
        <ele>1407</ele>
        <time>2024-07-27T12:21:29.701Z</time>
      </trkpt>
      <trkpt lat="42.94514" lon="-0.84983">
        <ele>1408</ele>
        <time>2024-07-27T12:21:42.085Z</time>
      </trkpt>
      <trkpt lat="42.94511" lon="-0.84975">
        <ele>1408</ele>
        <time>2024-07-27T12:21:48.739Z</time>
      </trkpt>
      <trkpt lat="42.94505" lon="-0.84966">
        <ele>1407</ele>
        <time>2024-07-27T12:21:56.256Z</time>
      </trkpt>
      <trkpt lat="42.94493" lon="-0.84923">
        <ele>1406</ele>
        <time>2024-07-27T12:22:26.102Z</time>
      </trkpt>
      <trkpt lat="42.94484" lon="-0.84868">
        <ele>1403</ele>
        <time>2024-07-27T12:23:01.145Z</time>
      </trkpt>
      <trkpt lat="42.9449" lon="-0.84818">
        <ele>1403</ele>
        <time>2024-07-27T12:23:37.281Z</time>
      </trkpt>
      <trkpt lat="42.94495" lon="-0.848">
        <ele>1405</ele>
        <time>2024-07-27T12:23:59.413Z</time>
      </trkpt>
      <trkpt lat="42.9449" lon="-0.84755">
        <ele>1406</ele>
        <time>2024-07-27T12:24:34.847Z</time>
      </trkpt>
      <trkpt lat="42.94474" lon="-0.84722">
        <ele>1405</ele>
        <time>2024-07-27T12:25:00.225Z</time>
      </trkpt>
      <trkpt lat="42.94465" lon="-0.84652">
        <ele>1408</ele>
        <time>2024-07-27T12:26:01.008Z</time>
      </trkpt>
      <trkpt lat="42.94457" lon="-0.84608">
        <ele>1407</ele>
        <time>2024-07-27T12:26:30.418Z</time>
      </trkpt>
      <trkpt lat="42.9447" lon="-0.8451">
        <ele>1408</ele>
        <time>2024-07-27T12:27:44.165Z</time>
      </trkpt>
      <trkpt lat="42.94478" lon="-0.84462">
        <ele>1406</ele>
        <time>2024-07-27T12:28:14.671Z</time>
      </trkpt>
      <trkpt lat="42.94508" lon="-0.84393">
        <ele>1404</ele>
        <time>2024-07-27T12:29:06.097Z</time>
      </trkpt>
      <trkpt lat="42.94534" lon="-0.84355">
        <ele>1406</ele>
        <time>2024-07-27T12:29:49.913Z</time>
      </trkpt>
      <trkpt lat="42.94549" lon="-0.84322">
        <ele>1410</ele>
        <time>2024-07-27T12:30:33.970Z</time>
      </trkpt>
      <trkpt lat="42.94558" lon="-0.84298">
        <ele>1414</ele>
        <time>2024-07-27T12:31:13.058Z</time>
      </trkpt>
      <trkpt lat="42.94561" lon="-0.84275">
        <ele>1416</ele>
        <time>2024-07-27T12:31:37.663Z</time>
      </trkpt>
      <trkpt lat="42.9456" lon="-0.84243">
        <ele>1420</ele>
        <time>2024-07-27T12:32:18.315Z</time>
      </trkpt>
      <trkpt lat="42.94559" lon="-0.84233">
        <ele>1422</ele>
        <time>2024-07-27T12:32:37.552Z</time>
      </trkpt>
      <trkpt lat="42.94555" lon="-0.84225">
        <ele>1422</ele>
        <time>2024-07-27T12:32:44.841Z</time>
      </trkpt>
      <trkpt lat="42.94543" lon="-0.84216">
        <ele>1422</ele>
        <time>2024-07-27T12:32:58.054Z</time>
      </trkpt>
      <trkpt lat="42.9453" lon="-0.84201">
        <ele>1422</ele>
        <time>2024-07-27T12:33:14.797Z</time>
      </trkpt>
      <trkpt lat="42.94516" lon="-0.84173">
        <ele>1421</ele>
        <time>2024-07-27T12:33:35.878Z</time>
      </trkpt>
      <trkpt lat="42.94512" lon="-0.84155">
        <ele>1420</ele>
        <time>2024-07-27T12:33:47.582Z</time>
      </trkpt>
      <trkpt lat="42.94513" lon="-0.84136">
        <ele>1419</ele>
        <time>2024-07-27T12:33:59.356Z</time>
      </trkpt>
      <trkpt lat="42.94518" lon="-0.84114">
        <ele>1419</ele>
        <time>2024-07-27T12:34:16.284Z</time>
      </trkpt>
      <trkpt lat="42.94526" lon="-0.84098">
        <ele>1418</ele>
        <time>2024-07-27T12:34:28.076Z</time>
      </trkpt>
      <trkpt lat="42.9453" lon="-0.84086">
        <ele>1418</ele>
        <time>2024-07-27T12:34:37.566Z</time>
      </trkpt>
      <trkpt lat="42.94535" lon="-0.84083">
        <ele>1419</ele>
        <time>2024-07-27T12:34:47.296Z</time>
      </trkpt>
      <trkpt lat="42.94539" lon="-0.84078">
        <ele>1420</ele>
        <time>2024-07-27T12:34:57.614Z</time>
      </trkpt>
      <trkpt lat="42.94542" lon="-0.84074">
        <ele>1420</ele>
        <time>2024-07-27T12:35:01.329Z</time>
      </trkpt>
      <trkpt lat="42.94545" lon="-0.84065">
        <ele>1420</ele>
        <time>2024-07-27T12:35:08.143Z</time>
      </trkpt>
      <trkpt lat="42.94546" lon="-0.84059">
        <ele>1419</ele>
        <time>2024-07-27T12:35:12.215Z</time>
      </trkpt>
      <trkpt lat="42.94547" lon="-0.84051">
        <ele>1418</ele>
        <time>2024-07-27T12:35:17.375Z</time>
      </trkpt>
      <trkpt lat="42.94568" lon="-0.84028">
        <ele>1422</ele>
        <time>2024-07-27T12:36:00.360Z</time>
      </trkpt>
      <trkpt lat="42.94583" lon="-0.84001">
        <ele>1425</ele>
        <time>2024-07-27T12:36:36.050Z</time>
      </trkpt>
      <trkpt lat="42.94595" lon="-0.83972">
        <ele>1427</ele>
        <time>2024-07-27T12:37:07.574Z</time>
      </trkpt>
      <trkpt lat="42.94611" lon="-0.83934">
        <ele>1433</ele>
        <time>2024-07-27T12:38:06.973Z</time>
      </trkpt>
      <trkpt lat="42.94616" lon="-0.83909">
        <ele>1436</ele>
        <time>2024-07-27T12:38:38.561Z</time>
      </trkpt>
      <trkpt lat="42.94616" lon="-0.83891">
        <ele>1437</ele>
        <time>2024-07-27T12:38:54.914Z</time>
      </trkpt>
      <trkpt lat="42.94614" lon="-0.83861">
        <ele>1439</ele>
        <time>2024-07-27T12:39:23.965Z</time>
      </trkpt>
      <trkpt lat="42.94611" lon="-0.83837">
        <ele>1440</ele>
        <time>2024-07-27T12:39:44.199Z</time>
      </trkpt>
      <trkpt lat="42.94607" lon="-0.83818">
        <ele>1442</ele>
        <time>2024-07-27T12:40:06.489Z</time>
      </trkpt>
      <trkpt lat="42.94602" lon="-0.83804">
        <ele>1443</ele>
        <time>2024-07-27T12:40:21.522Z</time>
      </trkpt>
      <trkpt lat="42.94596" lon="-0.83793">
        <ele>1444</ele>
        <time>2024-07-27T12:40:34.938Z</time>
      </trkpt>
      <trkpt lat="42.94585" lon="-0.83778">
        <ele>1444</ele>
        <time>2024-07-27T12:40:50.324Z</time>
      </trkpt>
      <trkpt lat="42.9458" lon="-0.83769">
        <ele>1444</ele>
        <time>2024-07-27T12:40:58.129Z</time>
      </trkpt>
      <trkpt lat="42.94578" lon="-0.83762">
        <ele>1444</ele>
        <time>2024-07-27T12:41:03.774Z</time>
      </trkpt>
      <trkpt lat="42.94575" lon="-0.83745">
        <ele>1445</ele>
        <time>2024-07-27T12:41:19.701Z</time>
      </trkpt>
      <trkpt lat="42.94578" lon="-0.83725">
        <ele>1446</ele>
        <time>2024-07-27T12:41:37.493Z</time>
      </trkpt>
      <trkpt lat="42.94593" lon="-0.83669">
        <ele>1450</ele>
        <time>2024-07-27T12:42:34.512Z</time>
      </trkpt>
      <trkpt lat="42.94607" lon="-0.83621">
        <ele>1454</ele>
        <time>2024-07-27T12:43:26.838Z</time>
      </trkpt>
      <trkpt lat="42.9466" lon="-0.83436">
        <ele>1462</ele>
        <time>2024-07-27T12:46:15.479Z</time>
      </trkpt>
      <trkpt lat="42.94699" lon="-0.83295">
        <ele>1472</ele>
        <time>2024-07-27T12:48:39.429Z</time>
      </trkpt>
      <trkpt lat="42.94714" lon="-0.83245">
        <ele>1474</ele>
        <time>2024-07-27T12:49:24.264Z</time>
      </trkpt>
      <trkpt lat="42.94723" lon="-0.83222">
        <ele>1475</ele>
        <time>2024-07-27T12:49:46.180Z</time>
      </trkpt>
      <trkpt lat="42.94741" lon="-0.83182">
        <ele>1477</ele>
        <time>2024-07-27T12:50:26.350Z</time>
      </trkpt>
      <trkpt lat="42.94755" lon="-0.83153">
        <ele>1478</ele>
        <time>2024-07-27T12:50:53.721Z</time>
      </trkpt>
      <trkpt lat="42.94764" lon="-0.83137">
        <ele>1479</ele>
        <time>2024-07-27T12:51:12.076Z</time>
      </trkpt>
      <trkpt lat="42.94778" lon="-0.8312">
        <ele>1480</ele>
        <time>2024-07-27T12:51:33.129Z</time>
      </trkpt>
      <trkpt lat="42.94818" lon="-0.83073">
        <ele>1486</ele>
        <time>2024-07-27T12:52:48.542Z</time>
      </trkpt>
      <trkpt lat="42.9483" lon="-0.83057">
        <ele>1487</ele>
        <time>2024-07-27T12:53:07.780Z</time>
      </trkpt>
      <trkpt lat="42.94839" lon="-0.83043">
        <ele>1489</ele>
        <time>2024-07-27T12:53:29.450Z</time>
      </trkpt>
      <trkpt lat="42.94845" lon="-0.83027">
        <ele>1490</ele>
        <time>2024-07-27T12:53:46.109Z</time>
      </trkpt>
      <trkpt lat="42.94852" lon="-0.83003">
        <ele>1491</ele>
        <time>2024-07-27T12:54:07.838Z</time>
      </trkpt>
      <trkpt lat="42.94856" lon="-0.82985">
        <ele>1492</ele>
        <time>2024-07-27T12:54:24.913Z</time>
      </trkpt>
      <trkpt lat="42.94864" lon="-0.82959">
        <ele>1493</ele>
        <time>2024-07-27T12:54:47.496Z</time>
      </trkpt>
      <trkpt lat="42.94872" lon="-0.82939">
        <ele>1494</ele>
        <time>2024-07-27T12:55:07.506Z</time>
      </trkpt>
      <trkpt lat="42.94898" lon="-0.82877">
        <ele>1496</ele>
        <time>2024-07-27T12:56:04.905Z</time>
      </trkpt>
      <trkpt lat="42.94918" lon="-0.82831">
        <ele>1500</ele>
        <time>2024-07-27T12:56:57.918Z</time>
      </trkpt>
      <trkpt lat="42.94925" lon="-0.82809">
        <ele>1502</ele>
        <time>2024-07-27T12:57:22.822Z</time>
      </trkpt>
      <trkpt lat="42.9493" lon="-0.82794">
        <ele>1504</ele>
        <time>2024-07-27T12:57:43.461Z</time>
      </trkpt>
      <trkpt lat="42.94935" lon="-0.82776">
        <ele>1505</ele>
        <time>2024-07-27T12:58:00.536Z</time>
      </trkpt>
      <trkpt lat="42.94938" lon="-0.82756">
        <ele>1506</ele>
        <time>2024-07-27T12:58:19.058Z</time>
      </trkpt>
      <trkpt lat="42.94941" lon="-0.82719">
        <ele>1508</ele>
        <time>2024-07-27T12:58:52.491Z</time>
      </trkpt>
      <trkpt lat="42.94947" lon="-0.82617">
        <ele>1513</ele>
        <time>2024-07-27T13:00:22.358Z</time>
      </trkpt>
      <trkpt lat="42.94947" lon="-0.82592">
        <ele>1515</ele>
        <time>2024-07-27T13:00:47.850Z</time>
      </trkpt>
      <trkpt lat="42.94947" lon="-0.82483">
        <ele>1525</ele>
        <time>2024-07-27T13:02:45.413Z</time>
      </trkpt>
      <trkpt lat="42.94944" lon="-0.82465">
        <ele>1527</ele>
        <time>2024-07-27T13:03:07.016Z</time>
      </trkpt>
      <trkpt lat="42.94941" lon="-0.82449">
        <ele>1528</ele>
        <time>2024-07-27T13:03:22.354Z</time>
      </trkpt>
      <trkpt lat="42.94907" lon="-0.82345">
        <ele>1533</ele>
        <time>2024-07-27T13:05:00.657Z</time>
      </trkpt>
      <trkpt lat="42.949" lon="-0.82321">
        <ele>1534</ele>
        <time>2024-07-27T13:05:22.658Z</time>
      </trkpt>
      <trkpt lat="42.9485" lon="-0.82137">
        <ele>1542</ele>
        <time>2024-07-27T13:08:09.189Z</time>
      </trkpt>
      <trkpt lat="42.94847" lon="-0.82119">
        <ele>1543</ele>
        <time>2024-07-27T13:08:26.065Z</time>
      </trkpt>
      <trkpt lat="42.94843" lon="-0.82096">
        <ele>1546</ele>
        <time>2024-07-27T13:08:56.259Z</time>
      </trkpt>
      <trkpt lat="42.94822" lon="-0.81947">
        <ele>1553</ele>
        <time>2024-07-27T13:11:08.349Z</time>
      </trkpt>
      <trkpt lat="42.9482" lon="-0.81921">
        <ele>1554</ele>
        <time>2024-07-27T13:11:30.299Z</time>
      </trkpt>
      <trkpt lat="42.94818" lon="-0.81878">
        <ele>1554</ele>
        <time>2024-07-27T13:12:01.072Z</time>
      </trkpt>
      <trkpt lat="42.94818" lon="-0.81828">
        <ele>1556</ele>
        <time>2024-07-27T13:12:42.968Z</time>
      </trkpt>
      <trkpt lat="42.94819" lon="-0.81805">
        <ele>1556</ele>
        <time>2024-07-27T13:12:59.546Z</time>
      </trkpt>
      <trkpt lat="42.94831" lon="-0.8169">
        <ele>1559</ele>
        <time>2024-07-27T13:14:31.841Z</time>
      </trkpt>
      <trkpt lat="42.94845" lon="-0.81568">
        <ele>1561</ele>
        <time>2024-07-27T13:16:05.935Z</time>
      </trkpt>
      <trkpt lat="42.94848" lon="-0.81549">
        <ele>1560</ele>
        <time>2024-07-27T13:16:18.024Z</time>
      </trkpt>
      <trkpt lat="42.94852" lon="-0.81534">
        <ele>1559</ele>
        <time>2024-07-27T13:16:28.132Z</time>
      </trkpt>
      <trkpt lat="42.94864" lon="-0.81503">
        <ele>1560</ele>
        <time>2024-07-27T13:16:56.309Z</time>
      </trkpt>
      <trkpt lat="42.94876" lon="-0.81479">
        <ele>1560</ele>
        <time>2024-07-27T13:17:16.727Z</time>
      </trkpt>
      <trkpt lat="42.94886" lon="-0.81464">
        <ele>1560</ele>
        <time>2024-07-27T13:17:31.537Z</time>
      </trkpt>
      <trkpt lat="42.94896" lon="-0.81457">
        <ele>1560</ele>
        <time>2024-07-27T13:17:42.379Z</time>
      </trkpt>
      <trkpt lat="42.94906" lon="-0.81451">
        <ele>1560</ele>
        <time>2024-07-27T13:17:52.708Z</time>
      </trkpt>
      <trkpt lat="42.94933" lon="-0.81449">
        <ele>1563</ele>
        <time>2024-07-27T13:18:30.539Z</time>
      </trkpt>
      <trkpt lat="42.94945" lon="-0.81444">
        <ele>1565</ele>
        <time>2024-07-27T13:18:51.392Z</time>
      </trkpt>
      <trkpt lat="42.94954" lon="-0.81434">
        <ele>1568</ele>
        <time>2024-07-27T13:19:20.019Z</time>
      </trkpt>
      <trkpt lat="42.94963" lon="-0.81422">
        <ele>1569</ele>
        <time>2024-07-27T13:19:35.354Z</time>
      </trkpt>
      <trkpt lat="42.94969" lon="-0.81407">
        <ele>1570</ele>
        <time>2024-07-27T13:19:51.113Z</time>
      </trkpt>
      <trkpt lat="42.94975" lon="-0.8138">
        <ele>1571</ele>
        <time>2024-07-27T13:20:14.681Z</time>
      </trkpt>
      <trkpt lat="42.94982" lon="-0.81339">
        <ele>1572</ele>
        <time>2024-07-27T13:20:47.998Z</time>
      </trkpt>
      <trkpt lat="42.94998" lon="-0.81188">
        <ele>1573</ele>
        <time>2024-07-27T13:22:39.531Z</time>
      </trkpt>
      <trkpt lat="42.95002" lon="-0.81168">
        <ele>1573</ele>
        <time>2024-07-27T13:22:54.042Z</time>
      </trkpt>
      <trkpt lat="42.9501" lon="-0.81143">
        <ele>1574</ele>
        <time>2024-07-27T13:23:16.659Z</time>
      </trkpt>
      <trkpt lat="42.95019" lon="-0.81122">
        <ele>1573</ele>
        <time>2024-07-27T13:23:31.726Z</time>
      </trkpt>
      <trkpt lat="42.95033" lon="-0.81102">
        <ele>1573</ele>
        <time>2024-07-27T13:23:51.581Z</time>
      </trkpt>
      <trkpt lat="42.95046" lon="-0.8109">
        <ele>1573</ele>
        <time>2024-07-27T13:24:07.358Z</time>
      </trkpt>
      <trkpt lat="42.95125" lon="-0.81042">
        <ele>1580</ele>
        <time>2024-07-27T13:25:56.002Z</time>
      </trkpt>
      <trkpt lat="42.95133" lon="-0.81035">
        <ele>1580</ele>
        <time>2024-07-27T13:26:05.481Z</time>
      </trkpt>
      <trkpt lat="42.95144" lon="-0.81027">
        <ele>1581</ele>
        <time>2024-07-27T13:26:20.809Z</time>
      </trkpt>
      <trkpt lat="42.9521" lon="-0.80989">
        <ele>1583</ele>
        <time>2024-07-27T13:27:37.017Z</time>
      </trkpt>
      <trkpt lat="42.9522" lon="-0.80981">
        <ele>1583</ele>
        <time>2024-07-27T13:27:48.190Z</time>
      </trkpt>
      <trkpt lat="42.95229" lon="-0.8097">
        <ele>1582</ele>
        <time>2024-07-27T13:27:58.490Z</time>
      </trkpt>
      <trkpt lat="42.95236" lon="-0.80955">
        <ele>1581</ele>
        <time>2024-07-27T13:28:09.686Z</time>
      </trkpt>
      <trkpt lat="42.9524" lon="-0.80943">
        <ele>1581</ele>
        <time>2024-07-27T13:28:19.067Z</time>
      </trkpt>
      <trkpt lat="42.95243" lon="-0.8093">
        <ele>1581</ele>
        <time>2024-07-27T13:28:28.582Z</time>
      </trkpt>
      <trkpt lat="42.95248" lon="-0.80877">
        <ele>1582</ele>
        <time>2024-07-27T13:29:09.777Z</time>
      </trkpt>
      <trkpt lat="42.95252" lon="-0.80856">
        <ele>1584</ele>
        <time>2024-07-27T13:29:33.579Z</time>
      </trkpt>
      <trkpt lat="42.95257" lon="-0.80839">
        <ele>1585</ele>
        <time>2024-07-27T13:29:50.016Z</time>
      </trkpt>
      <trkpt lat="42.95265" lon="-0.80821">
        <ele>1587</ele>
        <time>2024-07-27T13:30:13.075Z</time>
      </trkpt>
      <trkpt lat="42.95275" lon="-0.80809">
        <ele>1589</ele>
        <time>2024-07-27T13:30:34.784Z</time>
      </trkpt>
      <trkpt lat="42.95286" lon="-0.80799">
        <ele>1590</ele>
        <time>2024-07-27T13:30:51.252Z</time>
      </trkpt>
      <trkpt lat="42.953" lon="-0.80791">
        <ele>1591</ele>
        <time>2024-07-27T13:31:09.346Z</time>
      </trkpt>
      <trkpt lat="42.95357" lon="-0.80769">
        <ele>1590</ele>
        <time>2024-07-27T13:32:04.071Z</time>
      </trkpt>
      <trkpt lat="42.95367" lon="-0.80764">
        <ele>1590</ele>
        <time>2024-07-27T13:32:13.798Z</time>
      </trkpt>
      <trkpt lat="42.95378" lon="-0.80757">
        <ele>1589</ele>
        <time>2024-07-27T13:32:24.319Z</time>
      </trkpt>
      <trkpt lat="42.95388" lon="-0.80748">
        <ele>1588</ele>
        <time>2024-07-27T13:32:34.356Z</time>
      </trkpt>
      <trkpt lat="42.95398" lon="-0.80737">
        <ele>1587</ele>
        <time>2024-07-27T13:32:45.527Z</time>
      </trkpt>
      <trkpt lat="42.95423" lon="-0.80698">
        <ele>1586</ele>
        <time>2024-07-27T13:33:18.964Z</time>
      </trkpt>
      <trkpt lat="42.95432" lon="-0.80681">
        <ele>1585</ele>
        <time>2024-07-27T13:33:32.217Z</time>
      </trkpt>
      <trkpt lat="42.95437" lon="-0.80666">
        <ele>1586</ele>
        <time>2024-07-27T13:33:47.787Z</time>
      </trkpt>
      <trkpt lat="42.95443" lon="-0.80646">
        <ele>1588</ele>
        <time>2024-07-27T13:34:11.073Z</time>
      </trkpt>
      <trkpt lat="42.95449" lon="-0.80626">
        <ele>1590</ele>
        <time>2024-07-27T13:34:34.986Z</time>
      </trkpt>
      <trkpt lat="42.95456" lon="-0.80612">
        <ele>1590</ele>
        <time>2024-07-27T13:34:46.469Z</time>
      </trkpt>
      <trkpt lat="42.95469" lon="-0.80593">
        <ele>1589</ele>
        <time>2024-07-27T13:35:02.721Z</time>
      </trkpt>
      <trkpt lat="42.95507" lon="-0.8054">
        <ele>1592</ele>
        <time>2024-07-27T13:36:05.229Z</time>
      </trkpt>
      <trkpt lat="42.95524" lon="-0.80519">
        <ele>1595</ele>
        <time>2024-07-27T13:36:40.430Z</time>
      </trkpt>
      <trkpt lat="42.95534" lon="-0.80512">
        <ele>1595</ele>
        <time>2024-07-27T13:36:51.324Z</time>
      </trkpt>
      <trkpt lat="42.95544" lon="-0.80509">
        <ele>1595</ele>
        <time>2024-07-27T13:37:00.465Z</time>
      </trkpt>
      <trkpt lat="42.95555" lon="-0.80508">
        <ele>1596</ele>
        <time>2024-07-27T13:37:15.030Z</time>
      </trkpt>
      <trkpt lat="42.95565" lon="-0.80512">
        <ele>1595</ele>
        <time>2024-07-27T13:37:23.640Z</time>
      </trkpt>
      <trkpt lat="42.95595" lon="-0.80529">
        <ele>1593</ele>
        <time>2024-07-27T13:37:51.977Z</time>
      </trkpt>
      <trkpt lat="42.95606" lon="-0.80533">
        <ele>1592</ele>
        <time>2024-07-27T13:38:01.411Z</time>
      </trkpt>
      <trkpt lat="42.95615" lon="-0.80534">
        <ele>1592</ele>
        <time>2024-07-27T13:38:09.693Z</time>
      </trkpt>
      <trkpt lat="42.95622" lon="-0.80533">
        <ele>1590</ele>
        <time>2024-07-27T13:38:16.431Z</time>
      </trkpt>
      <trkpt lat="42.95632" lon="-0.80529">
        <ele>1590</ele>
        <time>2024-07-27T13:38:26.474Z</time>
      </trkpt>
      <trkpt lat="42.95641" lon="-0.80519">
        <ele>1590</ele>
        <time>2024-07-27T13:38:37.850Z</time>
      </trkpt>
      <trkpt lat="42.95651" lon="-0.80505">
        <ele>1589</ele>
        <time>2024-07-27T13:38:49.325Z</time>
      </trkpt>
      <trkpt lat="42.95659" lon="-0.80488">
        <ele>1589</ele>
        <time>2024-07-27T13:39:04.076Z</time>
      </trkpt>
      <trkpt lat="42.95667" lon="-0.80464">
        <ele>1590</ele>
        <time>2024-07-27T13:39:26.232Z</time>
      </trkpt>
      <trkpt lat="42.95686" lon="-0.80392">
        <ele>1591</ele>
        <time>2024-07-27T13:40:23.722Z</time>
      </trkpt>
      <trkpt lat="42.95737" lon="-0.80188">
        <ele>1588</ele>
        <time>2024-07-27T13:42:48.206Z</time>
      </trkpt>
      <trkpt lat="42.95745" lon="-0.80159">
        <ele>1590</ele>
        <time>2024-07-27T13:43:18.095Z</time>
      </trkpt>
      <trkpt lat="42.95757" lon="-0.80133">
        <ele>1591</ele>
        <time>2024-07-27T13:43:43.199Z</time>
      </trkpt>
      <trkpt lat="42.9577" lon="-0.80109">
        <ele>1593</ele>
        <time>2024-07-27T13:44:11.601Z</time>
      </trkpt>
      <trkpt lat="42.95785" lon="-0.80088">
        <ele>1593</ele>
        <time>2024-07-27T13:44:31.905Z</time>
      </trkpt>
      <trkpt lat="42.958" lon="-0.80069">
        <ele>1594</ele>
        <time>2024-07-27T13:44:55.582Z</time>
      </trkpt>
      <trkpt lat="42.95841" lon="-0.80025">
        <ele>1592</ele>
        <time>2024-07-27T13:45:41.012Z</time>
      </trkpt>
      <trkpt lat="42.95861" lon="-0.79997">
        <ele>1591</ele>
        <time>2024-07-27T13:46:05.798Z</time>
      </trkpt>
      <trkpt lat="42.95878" lon="-0.79962">
        <ele>1589</ele>
        <time>2024-07-27T13:46:31.976Z</time>
      </trkpt>
      <trkpt lat="42.95906" lon="-0.79894">
        <ele>1588</ele>
        <time>2024-07-27T13:47:24.499Z</time>
      </trkpt>
      <trkpt lat="42.95936" lon="-0.79832">
        <ele>1584</ele>
        <time>2024-07-27T13:48:10.828Z</time>
      </trkpt>
      <trkpt lat="42.95971" lon="-0.79766">
        <ele>1583</ele>
        <time>2024-07-27T13:49:05.600Z</time>
      </trkpt>
      <trkpt lat="42.95985" lon="-0.79737">
        <ele>1586</ele>
        <time>2024-07-27T13:49:42.259Z</time>
      </trkpt>
      <trkpt lat="42.96" lon="-0.79705">
        <ele>1589</ele>
        <time>2024-07-27T13:50:20.693Z</time>
      </trkpt>
      <trkpt lat="42.96015" lon="-0.7967">
        <ele>1590</ele>
        <time>2024-07-27T13:50:52.847Z</time>
      </trkpt>
      <trkpt lat="42.9607" lon="-0.79512">
        <ele>1592</ele>
        <time>2024-07-27T13:53:03.523Z</time>
      </trkpt>
      <trkpt lat="42.96099" lon="-0.79427">
        <ele>1607</ele>
        <time>2024-07-27T13:55:27.661Z</time>
      </trkpt>
      <trkpt lat="42.96121" lon="-0.79362">
        <ele>1599</ele>
        <time>2024-07-27T13:56:12.653Z</time>
      </trkpt>
      <trkpt lat="42.96128" lon="-0.79338">
        <ele>1594</ele>
        <time>2024-07-27T13:56:28.660Z</time>
      </trkpt>
      <trkpt lat="42.96133" lon="-0.79316">
        <ele>1592</ele>
        <time>2024-07-27T13:56:42.830Z</time>
      </trkpt>
      <trkpt lat="42.96142" lon="-0.79272">
        <ele>1592</ele>
        <time>2024-07-27T13:57:15.181Z</time>
      </trkpt>
      <trkpt lat="42.96179" lon="-0.79064">
        <ele>1601</ele>
        <time>2024-07-27T14:00:18.198Z</time>
      </trkpt>
      <trkpt lat="42.96184" lon="-0.79029">
        <ele>1602</ele>
        <time>2024-07-27T14:00:46.437Z</time>
      </trkpt>
      <trkpt lat="42.96192" lon="-0.78999">
        <ele>1603</ele>
        <time>2024-07-27T14:01:12.787Z</time>
      </trkpt>
      <trkpt lat="42.96201" lon="-0.78968">
        <ele>1603</ele>
        <time>2024-07-27T14:01:35.957Z</time>
      </trkpt>
      <trkpt lat="42.96209" lon="-0.78942">
        <ele>1601</ele>
        <time>2024-07-27T14:01:53.783Z</time>
      </trkpt>
      <trkpt lat="42.96252" lon="-0.78826">
        <ele>1588</ele>
        <time>2024-07-27T14:03:14.534Z</time>
      </trkpt>
      <trkpt lat="42.96261" lon="-0.78795">
        <ele>1587</ele>
        <time>2024-07-27T14:03:35.731Z</time>
      </trkpt>
      <trkpt lat="42.96269" lon="-0.78764">
        <ele>1587</ele>
        <time>2024-07-27T14:03:58.610Z</time>
      </trkpt>
      <trkpt lat="42.96273" lon="-0.78732">
        <ele>1587</ele>
        <time>2024-07-27T14:04:22.002Z</time>
      </trkpt>
      <trkpt lat="42.96287" lon="-0.78614">
        <ele>1587</ele>
        <time>2024-07-27T14:05:46.809Z</time>
      </trkpt>
      <trkpt lat="42.96292" lon="-0.78586">
        <ele>1585</ele>
        <time>2024-07-27T14:06:04.678Z</time>
      </trkpt>
      <trkpt lat="42.96298" lon="-0.78563">
        <ele>1583</ele>
        <time>2024-07-27T14:06:19.855Z</time>
      </trkpt>
      <trkpt lat="42.96307" lon="-0.78525">
        <ele>1579</ele>
        <time>2024-07-27T14:06:44.799Z</time>
      </trkpt>
      <trkpt lat="42.96337" lon="-0.78432">
        <ele>1577</ele>
        <time>2024-07-27T14:07:51.504Z</time>
      </trkpt>
      <trkpt lat="42.96359" lon="-0.78378">
        <ele>1577</ele>
        <time>2024-07-27T14:08:35.519Z</time>
      </trkpt>
      <trkpt lat="42.96366" lon="-0.78358">
        <ele>1580</ele>
        <time>2024-07-27T14:09:05.242Z</time>
      </trkpt>
      <trkpt lat="42.96371" lon="-0.78332">
        <ele>1583</ele>
        <time>2024-07-27T14:09:37.345Z</time>
      </trkpt>
      <trkpt lat="42.96375" lon="-0.7831">
        <ele>1584</ele>
        <time>2024-07-27T14:09:57.009Z</time>
      </trkpt>
      <trkpt lat="42.96378" lon="-0.78274">
        <ele>1583</ele>
        <time>2024-07-27T14:10:20.116Z</time>
      </trkpt>
      <trkpt lat="42.9639" lon="-0.78214">
        <ele>1589</ele>
        <time>2024-07-27T14:11:28.794Z</time>
      </trkpt>
      <trkpt lat="42.96393" lon="-0.78193">
        <ele>1593</ele>
        <time>2024-07-27T14:12:07.036Z</time>
      </trkpt>
      <trkpt lat="42.96395" lon="-0.78167">
        <ele>1597</ele>
        <time>2024-07-27T14:12:45.781Z</time>
      </trkpt>
      <trkpt lat="42.96396" lon="-0.78137">
        <ele>1601</ele>
        <time>2024-07-27T14:13:25.642Z</time>
      </trkpt>
      <trkpt lat="42.96394" lon="-0.78118">
        <ele>1603</ele>
        <time>2024-07-27T14:13:47.631Z</time>
      </trkpt>
      <trkpt lat="42.9639" lon="-0.78101">
        <ele>1604</ele>
        <time>2024-07-27T14:14:03.857Z</time>
      </trkpt>
      <trkpt lat="42.96384" lon="-0.78085">
        <ele>1604</ele>
        <time>2024-07-27T14:14:16.536Z</time>
      </trkpt>
      <trkpt lat="42.96357" lon="-0.7803">
        <ele>1603</ele>
        <time>2024-07-27T14:15:00.524Z</time>
      </trkpt>
      <trkpt lat="42.96349" lon="-0.78007">
        <ele>1606</ele>
        <time>2024-07-27T14:15:32.215Z</time>
      </trkpt>
      <trkpt lat="42.96342" lon="-0.77979">
        <ele>1612</ele>
        <time>2024-07-27T14:16:30.004Z</time>
      </trkpt>
      <trkpt lat="42.9633" lon="-0.77961">
        <ele>1616</ele>
        <time>2024-07-27T14:17:08.240Z</time>
      </trkpt>
      <trkpt lat="42.96317" lon="-0.7795">
        <ele>1620</ele>
        <time>2024-07-27T14:17:46.502Z</time>
      </trkpt>
      <trkpt lat="42.96301" lon="-0.77947">
        <ele>1620</ele>
        <time>2024-07-27T14:18:02.722Z</time>
      </trkpt>
      <trkpt lat="42.96282" lon="-0.77947">
        <ele>1616</ele>
        <time>2024-07-27T14:18:18.957Z</time>
      </trkpt>
      <trkpt lat="42.96264" lon="-0.77942">
        <ele>1614</ele>
        <time>2024-07-27T14:18:34.271Z</time>
      </trkpt>
      <trkpt lat="42.96249" lon="-0.77932">
        <ele>1615</ele>
        <time>2024-07-27T14:18:54.208Z</time>
      </trkpt>
      <trkpt lat="42.96238" lon="-0.77918">
        <ele>1616</ele>
        <time>2024-07-27T14:19:12.240Z</time>
      </trkpt>
      <trkpt lat="42.96232" lon="-0.77902">
        <ele>1617</ele>
        <time>2024-07-27T14:19:28.594Z</time>
      </trkpt>
      <trkpt lat="42.96229" lon="-0.77882">
        <ele>1619</ele>
        <time>2024-07-27T14:19:51.259Z</time>
      </trkpt>
      <trkpt lat="42.96224" lon="-0.77841">
        <ele>1624</ele>
        <time>2024-07-27T14:20:43.163Z</time>
      </trkpt>
      <trkpt lat="42.9622" lon="-0.77821">
        <ele>1625</ele>
        <time>2024-07-27T14:21:01.150Z</time>
      </trkpt>
      <trkpt lat="42.96215" lon="-0.77808">
        <ele>1625</ele>
        <time>2024-07-27T14:21:12.103Z</time>
      </trkpt>
      <trkpt lat="42.96209" lon="-0.77797">
        <ele>1626</ele>
        <time>2024-07-27T14:21:25.112Z</time>
      </trkpt>
      <trkpt lat="42.96201" lon="-0.77788">
        <ele>1625</ele>
        <time>2024-07-27T14:21:34.252Z</time>
      </trkpt>
      <trkpt lat="42.9619" lon="-0.77778">
        <ele>1625</ele>
        <time>2024-07-27T14:21:47.210Z</time>
      </trkpt>
      <trkpt lat="42.96112" lon="-0.77729">
        <ele>1631</ele>
        <time>2024-07-27T14:23:31.402Z</time>
      </trkpt>
      <trkpt lat="42.96104" lon="-0.7772">
        <ele>1636</ele>
        <time>2024-07-27T14:24:23.619Z</time>
      </trkpt>
      <trkpt lat="42.961" lon="-0.77707">
        <ele>1640</ele>
        <time>2024-07-27T14:25:07.408Z</time>
      </trkpt>
      <trkpt lat="42.96102" lon="-0.77694">
        <ele>1642</ele>
        <time>2024-07-27T14:25:26.684Z</time>
      </trkpt>
      <trkpt lat="42.96105" lon="-0.77685">
        <ele>1644</ele>
        <time>2024-07-27T14:25:45.787Z</time>
      </trkpt>
      <trkpt lat="42.96112" lon="-0.77678">
        <ele>1645</ele>
        <time>2024-07-27T14:25:57.649Z</time>
      </trkpt>
      <trkpt lat="42.9612" lon="-0.77675">
        <ele>1646</ele>
        <time>2024-07-27T14:26:10.262Z</time>
      </trkpt>
      <trkpt lat="42.96135" lon="-0.77673">
        <ele>1647</ele>
        <time>2024-07-27T14:26:28.358Z</time>
      </trkpt>
      <trkpt lat="42.9624" lon="-0.77671">
        <ele>1646</ele>
        <time>2024-07-27T14:28:07.727Z</time>
      </trkpt>
      <trkpt lat="42.96254" lon="-0.77668">
        <ele>1649</ele>
        <time>2024-07-27T14:28:36.460Z</time>
      </trkpt>
      <trkpt lat="42.96265" lon="-0.77661">
        <ele>1651</ele>
        <time>2024-07-27T14:28:57.239Z</time>
      </trkpt>
      <trkpt lat="42.96273" lon="-0.7765">
        <ele>1654</ele>
        <time>2024-07-27T14:29:25.902Z</time>
      </trkpt>
      <trkpt lat="42.9628" lon="-0.77637">
        <ele>1656</ele>
        <time>2024-07-27T14:29:46.440Z</time>
      </trkpt>
      <trkpt lat="42.96284" lon="-0.77619">
        <ele>1657</ele>
        <time>2024-07-27T14:30:03.418Z</time>
      </trkpt>
      <trkpt lat="42.96286" lon="-0.776">
        <ele>1657</ele>
        <time>2024-07-27T14:30:17.008Z</time>
      </trkpt>
      <trkpt lat="42.96288" lon="-0.77577">
        <ele>1658</ele>
        <time>2024-07-27T14:30:37.151Z</time>
      </trkpt>
      <trkpt lat="42.96288" lon="-0.77561">
        <ele>1658</ele>
        <time>2024-07-27T14:30:48.687Z</time>
      </trkpt>
      <trkpt lat="42.96286" lon="-0.77544">
        <ele>1659</ele>
        <time>2024-07-27T14:31:03.903Z</time>
      </trkpt>
      <trkpt lat="42.96282" lon="-0.77526">
        <ele>1661</ele>
        <time>2024-07-27T14:31:25.601Z</time>
      </trkpt>
      <trkpt lat="42.96273" lon="-0.77502">
        <ele>1660</ele>
        <time>2024-07-27T14:31:42.846Z</time>
      </trkpt>
      <trkpt lat="42.96237" lon="-0.77423">
        <ele>1657</ele>
        <time>2024-07-27T14:32:40.641Z</time>
      </trkpt>
      <trkpt lat="42.96217" lon="-0.77377">
        <ele>1659</ele>
        <time>2024-07-27T14:33:25.106Z</time>
      </trkpt>
      <trkpt lat="42.96215" lon="-0.77366">
        <ele>1660</ele>
        <time>2024-07-27T14:33:37.680Z</time>
      </trkpt>
      <trkpt lat="42.96215" lon="-0.77356">
        <ele>1662</ele>
        <time>2024-07-27T14:33:56.926Z</time>
      </trkpt>
      <trkpt lat="42.96219" lon="-0.77344">
        <ele>1664</ele>
        <time>2024-07-27T14:34:16.343Z</time>
      </trkpt>
      <trkpt lat="42.96227" lon="-0.77336">
        <ele>1665</ele>
        <time>2024-07-27T14:34:29.680Z</time>
      </trkpt>
      <trkpt lat="42.96237" lon="-0.77333">
        <ele>1665</ele>
        <time>2024-07-27T14:34:39.486Z</time>
      </trkpt>
      <trkpt lat="42.96245" lon="-0.77334">
        <ele>1666</ele>
        <time>2024-07-27T14:34:51.128Z</time>
      </trkpt>
      <trkpt lat="42.96252" lon="-0.7734">
        <ele>1667</ele>
        <time>2024-07-27T14:35:02.955Z</time>
      </trkpt>
      <trkpt lat="42.96255" lon="-0.77347">
        <ele>1667</ele>
        <time>2024-07-27T14:35:08.821Z</time>
      </trkpt>
      <trkpt lat="42.96258" lon="-0.77357">
        <ele>1667</ele>
        <time>2024-07-27T14:35:16.398Z</time>
      </trkpt>
      <trkpt lat="42.96259" lon="-0.77373">
        <ele>1666</ele>
        <time>2024-07-27T14:35:26.363Z</time>
      </trkpt>
      <trkpt lat="42.9626" lon="-0.77395">
        <ele>1665</ele>
        <time>2024-07-27T14:35:40.471Z</time>
      </trkpt>
      <trkpt lat="42.96263" lon="-0.77408">
        <ele>1665</ele>
        <time>2024-07-27T14:35:49.778Z</time>
      </trkpt>
      <trkpt lat="42.96267" lon="-0.77419">
        <ele>1665</ele>
        <time>2024-07-27T14:35:58.275Z</time>
      </trkpt>
      <trkpt lat="42.96273" lon="-0.77428">
        <ele>1666</ele>
        <time>2024-07-27T14:36:10.760Z</time>
      </trkpt>
      <trkpt lat="42.96279" lon="-0.77433">
        <ele>1667</ele>
        <time>2024-07-27T14:36:22.298Z</time>
      </trkpt>
      <trkpt lat="42.96286" lon="-0.77435">
        <ele>1668</ele>
        <time>2024-07-27T14:36:33.104Z</time>
      </trkpt>
      <trkpt lat="42.96292" lon="-0.77434">
        <ele>1669</ele>
        <time>2024-07-27T14:36:43.840Z</time>
      </trkpt>
      <trkpt lat="42.96299" lon="-0.77429">
        <ele>1669</ele>
        <time>2024-07-27T14:36:51.229Z</time>
      </trkpt>
      <trkpt lat="42.96304" lon="-0.7742">
        <ele>1670</ele>
        <time>2024-07-27T14:37:03.388Z</time>
      </trkpt>
      <trkpt lat="42.96336" lon="-0.77358">
        <ele>1680</ele>
        <time>2024-07-27T14:38:43.836Z</time>
      </trkpt>
      <trkpt lat="42.96344" lon="-0.7734">
        <ele>1681</ele>
        <time>2024-07-27T14:39:01.405Z</time>
      </trkpt>
      <trkpt lat="42.96334" lon="-0.77332">
        <ele>1680</ele>
        <time>2024-07-27T14:39:10.674Z</time>
      </trkpt>
      <trkpt lat="42.96337" lon="-0.77323">
        <ele>1680</ele>
        <time>2024-07-27T14:39:18.151Z</time>
      </trkpt>
      <trkpt lat="42.96369" lon="-0.77312">
        <ele>1687</ele>
        <time>2024-07-27T14:40:25.584Z</time>
      </trkpt>
      <trkpt lat="42.96432" lon="-0.7729">
        <ele>1699</ele>
        <time>2024-07-27T14:42:25.184Z</time>
      </trkpt>
      <trkpt lat="42.96442" lon="-0.77284">
        <ele>1699</ele>
        <time>2024-07-27T14:42:35.793Z</time>
      </trkpt>
      <trkpt lat="42.96449" lon="-0.77275">
        <ele>1700</ele>
        <time>2024-07-27T14:42:49.064Z</time>
      </trkpt>
      <trkpt lat="42.96456" lon="-0.77261">
        <ele>1701</ele>
        <time>2024-07-27T14:43:04.491Z</time>
      </trkpt>
      <trkpt lat="42.96463" lon="-0.77246">
        <ele>1701</ele>
        <time>2024-07-27T14:43:17.474Z</time>
      </trkpt>
      <trkpt lat="42.96472" lon="-0.77231">
        <ele>1704</ele>
        <time>2024-07-27T14:43:46.398Z</time>
      </trkpt>
      <trkpt lat="42.9648" lon="-0.7722">
        <ele>1705</ele>
        <time>2024-07-27T14:44:01.383Z</time>
      </trkpt>
      <trkpt lat="42.96487" lon="-0.77215">
        <ele>1706</ele>
        <time>2024-07-27T14:44:12.952Z</time>
      </trkpt>
      <trkpt lat="42.96499" lon="-0.77207">
        <ele>1708</ele>
        <time>2024-07-27T14:44:34.357Z</time>
      </trkpt>
      <trkpt lat="42.96507" lon="-0.77202">
        <ele>1709</ele>
        <time>2024-07-27T14:44:46.580Z</time>
      </trkpt>
      <trkpt lat="42.96515" lon="-0.77198">
        <ele>1710</ele>
        <time>2024-07-27T14:44:59.319Z</time>
      </trkpt>
      <trkpt lat="42.96528" lon="-0.77191">
        <ele>1712</ele>
        <time>2024-07-27T14:45:20.832Z</time>
      </trkpt>
      <trkpt lat="42.96536" lon="-0.77184">
        <ele>1713</ele>
        <time>2024-07-27T14:45:33.840Z</time>
      </trkpt>
      <trkpt lat="42.96555" lon="-0.77153">
        <ele>1714</ele>
        <time>2024-07-27T14:46:06.512Z</time>
      </trkpt>
      <trkpt lat="42.96568" lon="-0.77128">
        <ele>1715</ele>
        <time>2024-07-27T14:46:31.783Z</time>
      </trkpt>
      <trkpt lat="42.96576" lon="-0.7711">
        <ele>1714</ele>
        <time>2024-07-27T14:46:44.369Z</time>
      </trkpt>
      <trkpt lat="42.96585" lon="-0.77079">
        <ele>1717</ele>
        <time>2024-07-27T14:47:20.339Z</time>
      </trkpt>
      <trkpt lat="42.96592" lon="-0.7706">
        <ele>1720</ele>
        <time>2024-07-27T14:47:49.775Z</time>
      </trkpt>
      <trkpt lat="42.966" lon="-0.77045">
        <ele>1720</ele>
        <time>2024-07-27T14:48:03.085Z</time>
      </trkpt>
      <trkpt lat="42.96624" lon="-0.77012">
        <ele>1717</ele>
        <time>2024-07-27T14:48:31.889Z</time>
      </trkpt>
      <trkpt lat="42.96639" lon="-0.7698">
        <ele>1719</ele>
        <time>2024-07-27T14:49:06.019Z</time>
      </trkpt>
      <trkpt lat="42.96662" lon="-0.76942">
        <ele>1719</ele>
        <time>2024-07-27T14:49:41.403Z</time>
      </trkpt>
      <trkpt lat="42.96685" lon="-0.76906">
        <ele>1716</ele>
        <time>2024-07-27T14:50:10.795Z</time>
      </trkpt>
      <trkpt lat="42.96691" lon="-0.7689">
        <ele>1715</ele>
        <time>2024-07-27T14:50:21.551Z</time>
      </trkpt>
      <trkpt lat="42.96693" lon="-0.76876">
        <ele>1716</ele>
        <time>2024-07-27T14:50:35.750Z</time>
      </trkpt>
      <trkpt lat="42.96694" lon="-0.7686">
        <ele>1717</ele>
        <time>2024-07-27T14:50:50.840Z</time>
      </trkpt>
      <trkpt lat="42.96691" lon="-0.76802">
        <ele>1719</ele>
        <time>2024-07-27T14:51:38.486Z</time>
      </trkpt>
      <trkpt lat="42.96686" lon="-0.76739">
        <ele>1724</ele>
        <time>2024-07-27T14:52:43.277Z</time>
      </trkpt>
      <trkpt lat="42.96686" lon="-0.76725">
        <ele>1727</ele>
        <time>2024-07-27T14:53:12.784Z</time>
      </trkpt>
      <trkpt lat="42.96688" lon="-0.76714">
        <ele>1728</ele>
        <time>2024-07-27T14:53:24.693Z</time>
      </trkpt>
      <trkpt lat="42.96692" lon="-0.76702">
        <ele>1730</ele>
        <time>2024-07-27T14:53:44.198Z</time>
      </trkpt>
      <trkpt lat="42.96698" lon="-0.76689">
        <ele>1734</ele>
        <time>2024-07-27T14:54:26.194Z</time>
      </trkpt>
      <trkpt lat="42.96705" lon="-0.7668">
        <ele>1736</ele>
        <time>2024-07-27T14:54:45.624Z</time>
      </trkpt>
      <trkpt lat="42.96714" lon="-0.76672">
        <ele>1738</ele>
        <time>2024-07-27T14:55:05.591Z</time>
      </trkpt>
      <trkpt lat="42.96724" lon="-0.76668">
        <ele>1740</ele>
        <time>2024-07-27T14:55:25.328Z</time>
      </trkpt>
      <trkpt lat="42.96736" lon="-0.76665">
        <ele>1741</ele>
        <time>2024-07-27T14:55:40.571Z</time>
      </trkpt>
      <trkpt lat="42.96746" lon="-0.76666">
        <ele>1741</ele>
        <time>2024-07-27T14:55:50.113Z</time>
      </trkpt>
      <trkpt lat="42.96754" lon="-0.76669">
        <ele>1740</ele>
        <time>2024-07-27T14:55:57.034Z</time>
      </trkpt>
      <trkpt lat="42.96762" lon="-0.76673">
        <ele>1739</ele>
        <time>2024-07-27T14:56:04.309Z</time>
      </trkpt>
      <trkpt lat="42.9677" lon="-0.76682">
        <ele>1739</ele>
        <time>2024-07-27T14:56:14.788Z</time>
      </trkpt>
      <trkpt lat="42.96776" lon="-0.76691">
        <ele>1738</ele>
        <time>2024-07-27T14:56:22.304Z</time>
      </trkpt>
      <trkpt lat="42.96779" lon="-0.76702">
        <ele>1738</ele>
        <time>2024-07-27T14:56:30.652Z</time>
      </trkpt>
      <trkpt lat="42.96781" lon="-0.76712">
        <ele>1738</ele>
        <time>2024-07-27T14:56:37.911Z</time>
      </trkpt>
      <trkpt lat="42.96781" lon="-0.76722">
        <ele>1737</ele>
        <time>2024-07-27T14:56:44.654Z</time>
      </trkpt>
      <trkpt lat="42.96779" lon="-0.76742">
        <ele>1736</ele>
        <time>2024-07-27T14:56:57.027Z</time>
      </trkpt>
      <trkpt lat="42.96779" lon="-0.76762">
        <ele>1737</ele>
        <time>2024-07-27T14:57:14.609Z</time>
      </trkpt>
      <trkpt lat="42.96779" lon="-0.76785">
        <ele>1738</ele>
        <time>2024-07-27T14:57:34.593Z</time>
      </trkpt>
      <trkpt lat="42.96781" lon="-0.76801">
        <ele>1740</ele>
        <time>2024-07-27T14:57:55.186Z</time>
      </trkpt>
      <trkpt lat="42.96783" lon="-0.76812">
        <ele>1741</ele>
        <time>2024-07-27T14:58:07.134Z</time>
      </trkpt>
      <trkpt lat="42.96785" lon="-0.76819">
        <ele>1741</ele>
        <time>2024-07-27T14:58:11.950Z</time>
      </trkpt>
      <trkpt lat="42.96787" lon="-0.76825">
        <ele>1741</ele>
        <time>2024-07-27T14:58:16.831Z</time>
      </trkpt>
      <trkpt lat="42.96793" lon="-0.76834">
        <ele>1742</ele>
        <time>2024-07-27T14:58:28.938Z</time>
      </trkpt>
      <trkpt lat="42.96797" lon="-0.7684">
        <ele>1743</ele>
        <time>2024-07-27T14:58:39.588Z</time>
      </trkpt>
      <trkpt lat="42.96809" lon="-0.76846">
        <ele>1746</ele>
        <time>2024-07-27T14:59:08.236Z</time>
      </trkpt>
      <trkpt lat="42.96818" lon="-0.76851">
        <ele>1748</ele>
        <time>2024-07-27T14:59:27.709Z</time>
      </trkpt>
      <trkpt lat="42.96827" lon="-0.76857">
        <ele>1749</ele>
        <time>2024-07-27T14:59:40.904Z</time>
      </trkpt>
      <trkpt lat="42.96839" lon="-0.76854">
        <ele>1752</ele>
        <time>2024-07-27T15:00:09.533Z</time>
      </trkpt>
      <trkpt lat="42.96846" lon="-0.76838">
        <ele>1757</ele>
        <time>2024-07-27T15:01:02.020Z</time>
      </trkpt>
      <trkpt lat="42.96855" lon="-0.76831">
        <ele>1760</ele>
        <time>2024-07-27T15:01:30.966Z</time>
      </trkpt>
      <trkpt lat="42.96865" lon="-0.76816">
        <ele>1764</ele>
        <time>2024-07-27T15:02:09.231Z</time>
      </trkpt>
      <trkpt lat="42.96877" lon="-0.76812">
        <ele>1765</ele>
        <time>2024-07-27T15:02:24.043Z</time>
      </trkpt>
      <trkpt lat="42.9688" lon="-0.76816">
        <ele>1764</ele>
        <time>2024-07-27T15:02:27.593Z</time>
      </trkpt>
      <trkpt lat="42.96886" lon="-0.76822">
        <ele>1765</ele>
        <time>2024-07-27T15:02:38.970Z</time>
      </trkpt>
      <trkpt lat="42.96892" lon="-0.76817">
        <ele>1765</ele>
        <time>2024-07-27T15:02:45.949Z</time>
      </trkpt>
      <trkpt lat="42.96896" lon="-0.76823">
        <ele>1766</ele>
        <time>2024-07-27T15:02:56.281Z</time>
      </trkpt>
      <trkpt lat="42.96902" lon="-0.76799">
        <ele>1766</ele>
        <time>2024-07-27T15:03:14.443Z</time>
      </trkpt>
      <trkpt lat="42.9691" lon="-0.76779">
        <ele>1767</ele>
        <time>2024-07-27T15:03:33.856Z</time>
      </trkpt>
      <trkpt lat="42.96924" lon="-0.76752">
        <ele>1768</ele>
        <time>2024-07-27T15:04:00.879Z</time>
      </trkpt>
      <trkpt lat="42.96931" lon="-0.76741">
        <ele>1768</ele>
        <time>2024-07-27T15:04:11.317Z</time>
      </trkpt>
      <trkpt lat="42.96937" lon="-0.76733">
        <ele>1767</ele>
        <time>2024-07-27T15:04:18.029Z</time>
      </trkpt>
      <trkpt lat="42.96961" lon="-0.76693">
        <ele>1764</ele>
        <time>2024-07-27T15:04:50.555Z</time>
      </trkpt>
      <trkpt lat="42.96974" lon="-0.76673">
        <ele>1764</ele>
        <time>2024-07-27T15:05:09.529Z</time>
      </trkpt>
      <trkpt lat="42.97001" lon="-0.76632">
        <ele>1762</ele>
        <time>2024-07-27T15:05:43.974Z</time>
      </trkpt>
      <trkpt lat="42.97033" lon="-0.76581">
        <ele>1760</ele>
        <time>2024-07-27T15:06:25.990Z</time>
      </trkpt>
      <trkpt lat="42.97042" lon="-0.7656">
        <ele>1759</ele>
        <time>2024-07-27T15:06:41.534Z</time>
      </trkpt>
      <trkpt lat="42.97058" lon="-0.76519">
        <ele>1758</ele>
        <time>2024-07-27T15:07:11.850Z</time>
      </trkpt>
      <trkpt lat="42.97072" lon="-0.76474">
        <ele>1756</ele>
        <time>2024-07-27T15:07:42.163Z</time>
      </trkpt>
      <trkpt lat="42.97077" lon="-0.76449">
        <ele>1755</ele>
        <time>2024-07-27T15:07:58.350Z</time>
      </trkpt>
      <trkpt lat="42.97077" lon="-0.76381">
        <ele>1763</ele>
        <time>2024-07-27T15:09:21.711Z</time>
      </trkpt>
      <trkpt lat="42.9708" lon="-0.76355">
        <ele>1763</ele>
        <time>2024-07-27T15:09:40.576Z</time>
      </trkpt>
      <trkpt lat="42.9709" lon="-0.76314">
        <ele>1762</ele>
        <time>2024-07-27T15:10:08.668Z</time>
      </trkpt>
      <trkpt lat="42.97097" lon="-0.76271">
        <ele>1763</ele>
        <time>2024-07-27T15:10:43.169Z</time>
      </trkpt>
      <trkpt lat="42.971" lon="-0.76248">
        <ele>1764</ele>
        <time>2024-07-27T15:11:02.880Z</time>
      </trkpt>
      <trkpt lat="42.97125" lon="-0.76186">
        <ele>1761</ele>
        <time>2024-07-27T15:11:46.664Z</time>
      </trkpt>
      <trkpt lat="42.97139" lon="-0.76145">
        <ele>1755</ele>
        <time>2024-07-27T15:12:15.116Z</time>
      </trkpt>
      <trkpt lat="42.97141" lon="-0.76127">
        <ele>1753</ele>
        <time>2024-07-27T15:12:26.378Z</time>
      </trkpt>
      <trkpt lat="42.97141" lon="-0.76093">
        <ele>1753</ele>
        <time>2024-07-27T15:12:50.686Z</time>
      </trkpt>
      <trkpt lat="42.97144" lon="-0.76028">
        <ele>1754</ele>
        <time>2024-07-27T15:13:39.875Z</time>
      </trkpt>
      <trkpt lat="42.97149" lon="-0.75997">
        <ele>1757</ele>
        <time>2024-07-27T15:14:14.552Z</time>
      </trkpt>
      <trkpt lat="42.9716" lon="-0.75982">
        <ele>1756</ele>
        <time>2024-07-27T15:14:27.611Z</time>
      </trkpt>
      <trkpt lat="42.97224" lon="-0.75926">
        <ele>1745</ele>
        <time>2024-07-27T15:15:32.691Z</time>
      </trkpt>
      <trkpt lat="42.9724" lon="-0.75893">
        <ele>1741</ele>
        <time>2024-07-27T15:15:56.582Z</time>
      </trkpt>
      <trkpt lat="42.97259" lon="-0.75815">
        <ele>1741</ele>
        <time>2024-07-27T15:16:55.298Z</time>
      </trkpt>
      <trkpt lat="42.97291" lon="-0.75774">
        <ele>1738</ele>
        <time>2024-07-27T15:17:32.505Z</time>
      </trkpt>
      <trkpt lat="42.97311" lon="-0.75734">
        <ele>1736</ele>
        <time>2024-07-27T15:18:02.474Z</time>
      </trkpt>
      <trkpt lat="42.9732" lon="-0.75731">
        <ele>1734</ele>
        <time>2024-07-27T15:18:10.119Z</time>
      </trkpt>
      <trkpt lat="42.97332" lon="-0.75701">
        <ele>1731</ele>
        <time>2024-07-27T15:18:31.083Z</time>
      </trkpt>
      <trkpt lat="42.97346" lon="-0.75645">
        <ele>1729</ele>
        <time>2024-07-27T15:19:07.909Z</time>
      </trkpt>
      <trkpt lat="42.97357" lon="-0.7562">
        <ele>1730</ele>
        <time>2024-07-27T15:19:31.781Z</time>
      </trkpt>
      <trkpt lat="42.97376" lon="-0.75608">
        <ele>1727</ele>
        <time>2024-07-27T15:19:49.732Z</time>
      </trkpt>
      <trkpt lat="42.97391" lon="-0.75589">
        <ele>1725</ele>
        <time>2024-07-27T15:20:07.135Z</time>
      </trkpt>
      <trkpt lat="42.97409" lon="-0.75548">
        <ele>1725</ele>
        <time>2024-07-27T15:20:41.010Z</time>
      </trkpt>
      <trkpt lat="42.97432" lon="-0.75538">
        <ele>1720</ele>
        <time>2024-07-27T15:21:01.506Z</time>
      </trkpt>
      <trkpt lat="42.97447" lon="-0.75514">
        <ele>1720</ele>
        <time>2024-07-27T15:21:23.676Z</time>
      </trkpt>
      <trkpt lat="42.97464" lon="-0.75502">
        <ele>1720</ele>
        <time>2024-07-27T15:21:43.148Z</time>
      </trkpt>
      <trkpt lat="42.97477" lon="-0.75502">
        <ele>1717</ele>
        <time>2024-07-27T15:21:53.688Z</time>
      </trkpt>
      <trkpt lat="42.97556" lon="-0.75433">
        <ele>1717</ele>
        <time>2024-07-27T15:23:24.949Z</time>
      </trkpt>
      <trkpt lat="42.97576" lon="-0.75432">
        <ele>1719</ele>
        <time>2024-07-27T15:23:51.665Z</time>
      </trkpt>
      <trkpt lat="42.97632" lon="-0.75466">
        <ele>1709</ele>
        <time>2024-07-27T15:24:43.496Z</time>
      </trkpt>
      <trkpt lat="42.97659" lon="-0.75464">
        <ele>1707</ele>
        <time>2024-07-27T15:25:06.391Z</time>
      </trkpt>
      <trkpt lat="42.97718" lon="-0.75432">
        <ele>1704</ele>
        <time>2024-07-27T15:26:00.571Z</time>
      </trkpt>
      <trkpt lat="42.9773" lon="-0.75422">
        <ele>1704</ele>
        <time>2024-07-27T15:26:13.984Z</time>
      </trkpt>
      <trkpt lat="42.97789" lon="-0.7537">
        <ele>1707</ele>
        <time>2024-07-27T15:27:32.201Z</time>
      </trkpt>
      <trkpt lat="42.9783" lon="-0.75344">
        <ele>1709</ele>
        <time>2024-07-27T15:28:22.533Z</time>
      </trkpt>
      <trkpt lat="42.97867" lon="-0.75334">
        <ele>1704</ele>
        <time>2024-07-27T15:28:54.996Z</time>
      </trkpt>
      <trkpt lat="42.9788" lon="-0.75318">
        <ele>1701</ele>
        <time>2024-07-27T15:29:09.642Z</time>
      </trkpt>
      <trkpt lat="42.97892" lon="-0.75243">
        <ele>1697</ele>
        <time>2024-07-27T15:29:57.591Z</time>
      </trkpt>
      <trkpt lat="42.97863" lon="-0.75211">
        <ele>1691</ele>
        <time>2024-07-27T15:30:29.361Z</time>
      </trkpt>
      <trkpt lat="42.97834" lon="-0.75157">
        <ele>1684</ele>
        <time>2024-07-27T15:31:10.867Z</time>
      </trkpt>
      <trkpt lat="42.97805" lon="-0.75145">
        <ele>1685</ele>
        <time>2024-07-27T15:31:43.364Z</time>
      </trkpt>
      <trkpt lat="42.97806" lon="-0.7512">
        <ele>1681</ele>
        <time>2024-07-27T15:31:59.043Z</time>
      </trkpt>
      <trkpt lat="42.97803" lon="-0.75107">
        <ele>1679</ele>
        <time>2024-07-27T15:32:07.365Z</time>
      </trkpt>
      <trkpt lat="42.97801" lon="-0.75095">
        <ele>1676</ele>
        <time>2024-07-27T15:32:15.365Z</time>
      </trkpt>
      <trkpt lat="42.97802" lon="-0.75073">
        <ele>1672</ele>
        <time>2024-07-27T15:32:28.719Z</time>
      </trkpt>
      <trkpt lat="42.97803" lon="-0.75057">
        <ele>1669</ele>
        <time>2024-07-27T15:32:38.868Z</time>
      </trkpt>
      <trkpt lat="42.97801" lon="-0.75047">
        <ele>1666</ele>
        <time>2024-07-27T15:32:45.233Z</time>
      </trkpt>
      <trkpt lat="42.97801" lon="-0.75044">
        <ele>1666</ele>
        <time>2024-07-27T15:32:47.720Z</time>
      </trkpt>
      <trkpt lat="42.97801" lon="-0.75037">
        <ele>1664</ele>
        <time>2024-07-27T15:32:51.671Z</time>
      </trkpt>
      <trkpt lat="42.978" lon="-0.75036">
        <ele>1664</ele>
        <time>2024-07-27T15:32:53.087Z</time>
      </trkpt>
      <trkpt lat="42.97798" lon="-0.75035">
        <ele>1664</ele>
        <time>2024-07-27T15:32:55.155Z</time>
      </trkpt>
      <trkpt lat="42.97798" lon="-0.75035">
        <ele>1664</ele>
        <time>2024-07-27T15:32:55.970Z</time>
      </trkpt>
      <trkpt lat="42.97798" lon="-0.7503">
        <ele>1663</ele>
        <time>2024-07-27T15:32:58.768Z</time>
      </trkpt>
      <trkpt lat="42.97799" lon="-0.75027">
        <ele>1663</ele>
        <time>2024-07-27T15:33:01.065Z</time>
      </trkpt>
      <trkpt lat="42.97805" lon="-0.75023">
        <ele>1662</ele>
        <time>2024-07-27T15:33:07.307Z</time>
      </trkpt>
      <trkpt lat="42.97808" lon="-0.75019">
        <ele>1662</ele>
        <time>2024-07-27T15:33:10.953Z</time>
      </trkpt>
      <trkpt lat="42.97813" lon="-0.75013">
        <ele>1662</ele>
        <time>2024-07-27T15:33:17.279Z</time>
      </trkpt>
      <trkpt lat="42.97816" lon="-0.75006">
        <ele>1662</ele>
        <time>2024-07-27T15:33:23.317Z</time>
      </trkpt>
      <trkpt lat="42.9782" lon="-0.75002">
        <ele>1661</ele>
        <time>2024-07-27T15:33:27.317Z</time>
      </trkpt>
      <trkpt lat="42.97822" lon="-0.74998">
        <ele>1661</ele>
        <time>2024-07-27T15:33:31.059Z</time>
      </trkpt>
      <trkpt lat="42.97823" lon="-0.74994">
        <ele>1660</ele>
        <time>2024-07-27T15:33:33.375Z</time>
      </trkpt>
      <trkpt lat="42.97821" lon="-0.7499">
        <ele>1659</ele>
        <time>2024-07-27T15:33:36.359Z</time>
      </trkpt>
      <trkpt lat="42.97815" lon="-0.74968">
        <ele>1656</ele>
        <time>2024-07-27T15:33:50.916Z</time>
      </trkpt>
      <trkpt lat="42.97819" lon="-0.74958">
        <ele>1654</ele>
        <time>2024-07-27T15:33:57.948Z</time>
      </trkpt>
    </trkseg>
  </trk>
</gpx>